[[{"header":{"parameterUnit":"m.s-1","parameterCategory":1,"la1":31.0,"la2":29.5877,"lo1":-88.7671,"lo2":-86.6584,"dy":0.0162,"dx":0.0185,"nx":115,"ny":88,"refTime":"2023-05-23T12:00:00:Z","depth":0,"parameterNumber":2,"parameterNumberName":"U-component_of_WINDS"},"data":[0.0,0.0,0.0,0.0,0.0,0.0,0.0,0.0,0.0,0.0,0.0,0.0,0.0,0.0,0.0,0.0,0.0,0.0,0.0,0.0,0.0,0.0,0.0,0.0,0.0,0.0,0.0,0.0,0.0,0.0,0.0,0.0,0.0,0.0,0.0,0.0,0.0,0.0,0.0,0.0,0.0,0.0,0.0,0.0,0.0,0.0,0.0,0.0,0.0,0.0,0.0,0.0,0.0,0.0,0.0,0.0,0.0,0.0,0.0,0.0,0.0,0.0,0.0,0.0,0.0,0.0,0.0,0.0,0.0,0.0,0.0,0.0,0.0,0.0,0.0,0.0,0.0,0.0,0.0,0.0,0.0,0.0,0.0,0.0,0.0,0.0,0.0,0.0,0.0,0.0,0.0,0.0,0.0,0.0,0.0,0.0,0.0,0.0,0.0,0.0,0.0,0.0,0.0,0.0,0.0,0.0,0.0,0.0,0.0,0.0,0.0,0.0,0.0,0.0,0.0,0.0,0.0,0.0,0.0,0.0,0.0,0.0,0.0,0.0,0.0,0.0,0.0,0.0,0.0,0.0,0.0,0.0,0.0,0.0,0.0,0.0,0.0,0.0,0.0,0.0,0.0,0.0,0.0,0.0,0.0,0.0,0.0,0.0,0.0,0.0,0.0,0.0,0.0,0.0,0.0,0.0,0.0,0.0,0.0,0.0,0.0,0.0,0.0,0.0,0.0,0.0,0.0,0.0,0.0,0.0,0.0,0.0,0.0,0.0,0.0,0.0,0.0,0.0,0.0,0.0,0.0,0.0,0.0,0.0,0.0,0.0,0.0,0.0,0.0,0.0,0.0,0.0,0.0,0.0,0.0,0.0,0.0,0.0,0.0,0.0,0.0,0.0,0.0,0.0,0.0,0.0,0.0,0.0,0.0,0.0,0.0,0.0,0.0,0.0,0.0,0.0,0.0,0.0,0.0,0.0,0.0,0.0,0.0,0.0,0.0,0.0,0.0,0.0,0.0,0.0,0.0,0.0,0.0,0.0,0.0,0.0,0.0,0.0,0.0,0.0,0.0,0.0,0.0,0.0,0.0,0.0,0.0,0.0,0.0,0.0,0.0,0.0,0.0,0.0,0.0,0.0,0.0,0.0,0.0,0.0,0.0,0.0,0.0,0.0,0.0,0.0,0.0,0.0,0.0,0.0,0.0,0.0,0.0,0.0,0.0,0.0,0.0,0.0,0.0,0.0,0.0,0.0,0.0,0.0,0.0,0.0,0.0,0.0,0.0,0.0,0.0,0.0,0.0,0.0,0.0,0.0,0.0,0.0,0.0,0.0,0.0,0.0,0.0,0.0,0.0,0.0,0.0,0.0,0.0,0.0,0.0,0.0,0.0,0.0,0.0,0.0,0.0,0.0,0.0,0.0,0.0,0.0,0.0,0.0,0.0,0.0,0.0,0.0,0.0,0.0,0.0,0.0,0.0,0.0,0.0,0.0,0.0,0.0,0.0,0.0,0.0,0.0,0.0,0.0,0.0,0.0,0.0,0.0,0.0,0.0,0.0,0.0,0.0,0.0,0.0,0.0,0.0,0.0,0.0,0.0,0.0,0.0,0.0,0.0,0.0,0.0,0.0,0.0,0.0,0.0,0.0,0.0,0.0,0.0,0.0,0.0,0.0,0.0,0.0,0.0,0.0,0.0,0.0,0.0,0.0,0.0,0.0,0.0,0.0,0.0,0.0,0.0,0.0,0.0,0.0,0.0,0.0,0.0,0.0,0.0,0.0,0.0,0.0,0.0,0.0,0.0,0.0,0.0,0.0,0.0,0.0,0.0,0.0,0.0,0.0,0.0,0.0,0.0,0.0,0.0,0.0,0.0,0.0,0.0,0.0,0.0,0.0,0.0,0.0,0.0,0.0,0.0,0.0,0.0,0.0,0.0,0.0,0.0,0.0,0.0,0.0,0.0,0.0,0.0,0.0,0.0,0.0,0.0,0.0,0.0,0.0,0.0,0.0,0.0,0.0,0.0,0.0,0.0,0.0,0.0,0.0,0.0,0.0,0.0,0.0,0.0,0.0,0.0,0.0,0.0,0.0,0.0,0.0,0.0,0.0,0.0,0.0,0.0,0.0,0.0,0.0,0.0,0.0,0.0,0.0,0.0,0.0,0.0,0.0,0.0,0.0,0.0,0.0,0.0,0.0,0.0,0.0,0.0,0.0,0.0,0.0,0.0,0.0,0.0,0.0,0.0,0.0,0.0,0.0,0.0,0.0,0.0,0.0,0.0,0.0,0.0,0.0,0.0,0.0,0.0,0.0,0.0,0.0,0.0,0.0,0.0,0.0,0.0,0.0,0.0,0.0,0.0,0.0,0.0,0.0,0.0,0.0,0.0,0.0,0.0,0.0,0.0,0.0,0.0,0.0,0.0,0.0,0.0,0.0,0.0,0.0,0.0,0.0,0.0,0.0,0.0,0.0,0.0,0.0,0.0,0.0,0.0,0.0,0.0,0.0,0.0,0.0,0.0,0.0,0.0,0.0,0.0,0.0,0.0,0.0,0.0,0.0,0.0,0.0,0.0,0.0,0.0,0.0,0.0,0.0,0.0,0.0,0.0,0.0,0.0,0.0,0.0,0.0,0.0,0.0,0.0,0.0,0.0,0.0,0.0,0.0,0.0,0.0,0.0,0.0,0.0,0.0,0.0,0.0,0.0,0.0,0.0,0.0,0.0,0.0,0.0,0.0,0.0,0.0,0.0,0.0,0.0,0.0,0.0,0.0,0.0,0.0,0.0,0.0,0.0,0.0,0.0,0.0,0.0,0.0,0.0,0.0,0.0,0.0,0.0,0.0,0.0,0.0,0.0,0.0,0.0,0.0,0.0,0.0,0.0,0.0,0.0,0.0,0.0,0.0,0.0,0.0,0.0,0.0,0.0,0.0,0.0,0.0,0.0,0.0,0.0,0.0,0.0,0.0,0.0,0.0,0.0,0.0,0.0,0.0,0.0,0.0,0.0,0.0,0.0,0.0,0.0,0.0,0.0,0.0,0.0,0.0,0.0,0.0,0.0,0.0,0.0,0.0,0.0,0.0,0.0,0.0,0.0,0.0,0.0,0.0,0.0,0.0,0.0,0.0,0.0,0.0,0.0,0.0,0.0,0.0,0.0,0.0,0.0,0.0,0.0,0.0,0.0,0.0,0.0,0.0,0.0,0.0,0.0,0.0,0.0,0.0,0.0,0.0,0.0,0.0,0.0,0.0,0.0,0.0,0.0,0.0,0.0,0.0,0.0,0.0,0.0,0.0,0.0,0.0,0.0,0.0,0.0,0.0,0.0,0.0,0.0,0.0,0.0,0.0,0.0,0.0,0.0,0.0,0.0,0.0,0.0,0.0,0.0,0.0,0.0,0.0,0.0,0.0,0.0,0.0,0.0,0.0,0.0,0.0,0.0,0.0,0.0,0.0,0.0,0.0,0.0,0.0,0.0,0.0,0.0,0.0,0.0,0.0,0.0,0.0,0.0,0.0,0.0,0.0,0.0,0.0,0.0,0.0,0.0,0.0,0.0,0.0,0.0,0.0,0.0,0.0,0.0,0.0,0.0,0.0,0.0,0.0,0.0,0.0,0.0,0.0,0.0,0.0,0.0,0.0,0.0,0.0,0.0,0.0,0.0,0.0,0.0,0.0,0.0,0.0,0.0,0.0,0.0,0.0,0.0,0.0,0.0,0.0,0.0,0.0,0.0,0.0,0.0,0.0,0.0,0.0,0.0,0.0,0.0,0.0,0.0,0.0,0.0,0.0,0.0,0.0,0.0,0.0,0.0,0.0,0.0,0.0,0.0,0.0,0.0,0.0,0.0,0.0,0.0,0.0,0.0,0.0,0.0,0.0,0.0,0.0,0.0,0.0,0.0,0.0,0.0,0.0,0.0,0.0,0.0,0.0,0.0,0.0,0.0,0.0,0.0,0.0,0.0,0.0,0.0,0.0,0.0,0.0,0.0,0.0,0.0,0.0,0.0,0.0,0.0,0.0,0.0,0.0,0.0,0.0,0.0,0.0,0.0,0.0,0.0,0.0,0.0,0.0,0.0,0.0,0.0,0.0,0.0,0.0,0.0,0.0,0.0,0.0,0.0,0.0,0.0,0.0,0.0,0.0,0.0,0.0,0.0,0.0,0.0,0.0,0.0,0.0,0.0,0.0,0.0,0.0,0.0,0.0,0.0,0.0,0.0,0.0,0.0,0.0,0.0,0.0,0.0,0.0,0.0,0.0,0.0,0.0,0.0,0.0,0.0,2.0474,0.0,0.0,0.0,0.0,0.0,0.0,0.0,0.0,0.0,0.0,0.0,0.0,0.0,0.0,0.0,0.0,0.0,0.0,0.0,0.0,0.0,0.0,0.0,0.0,0.0,0.0,0.0,0.0,0.0,0.0,0.0,0.0,0.0,0.0,0.0,0.0,0.0,0.0,0.0,0.0,0.0,0.0,0.0,0.0,0.0,0.0,0.0,0.0,0.0,0.0,0.0,0.0,0.0,0.0,0.0,0.0,0.0,0.0,0.0,0.0,0.0,0.0,0.0,0.0,0.0,0.0,0.0,0.0,0.0,0.0,0.0,0.0,0.0,0.0,0.0,0.0,0.0,0.0,0.0,0.0,0.0,0.0,0.0,0.0,0.0,0.0,0.0,0.0,0.0,0.0,0.0,0.0,0.0,0.0,0.0,0.0,0.0,0.0,0.0,0.0,0.0,0.0,0.0,0.0,0.0,0.0,0.0,0.0,0.0,0.0,2.1347,2.1619,2.1424,2.1306,2.1259,0.0,0.0,0.0,0.0,0.0,0.0,0.0,0.0,0.0,0.0,0.0,0.0,0.0,0.0,0.0,0.0,0.0,0.0,0.0,0.0,0.0,0.0,0.0,0.0,0.0,0.0,0.0,0.0,0.0,0.0,0.0,0.0,0.0,0.0,0.0,0.0,0.0,0.0,0.0,0.0,0.0,0.0,0.0,0.0,0.0,0.0,0.0,0.0,0.0,0.0,0.0,0.0,0.0,0.0,0.0,0.0,0.0,0.0,0.0,0.0,0.0,0.0,0.0,0.0,0.0,0.0,0.0,0.0,0.0,0.0,0.0,0.0,0.0,0.0,0.0,0.0,0.0,0.0,0.0,0.0,0.0,0.0,0.0,0.0,0.0,0.0,0.0,0.0,0.0,0.0,0.0,0.0,0.0,0.0,0.0,0.0,0.0,0.0,0.0,0.0,0.0,0.0,0.0,0.0,0.0,0.0,0.0,0.0,0.0,0.0,0.0,0.0,2.2125,2.1721,2.1302,0.0,0.0,0.0,0.0,0.0,0.0,0.0,0.0,0.0,0.0,0.0,0.0,0.0,0.0,0.0,0.0,0.0,0.0,0.0,0.0,0.0,0.0,0.0,0.0,0.0,0.0,0.0,0.0,0.0,0.0,0.0,0.0,0.0,0.0,0.0,0.0,0.0,0.0,0.0,0.0,0.0,0.0,0.0,0.0,0.0,0.0,0.0,0.0,0.0,0.0,0.0,0.0,0.0,0.0,0.0,0.0,0.0,0.0,0.0,0.0,0.0,0.0,0.0,0.0,0.0,0.0,0.0,0.0,0.0,0.0,0.0,0.0,0.0,0.0,0.0,0.0,0.0,0.0,0.0,0.0,0.0,0.0,0.0,0.0,0.0,0.0,0.0,0.0,0.0,0.0,0.0,0.0,0.0,0.0,0.0,0.0,0.0,0.0,0.0,0.0,0.0,0.0,0.0,0.0,0.0,0.0,0.0,0.0,0.0,0.0,2.2323,2.0894,2.1522,0.0,1.9677,0.0,0.0,0.0,0.0,0.0,0.0,0.0,0.0,0.0,0.0,0.0,0.0,0.0,0.0,0.0,0.0,0.0,0.0,0.0,0.0,0.0,0.0,0.0,0.0,0.0,0.0,0.0,0.0,0.0,0.0,0.0,0.0,0.0,0.0,0.0,0.0,0.0,0.0,0.0,0.0,0.0,0.0,0.0,0.0,0.0,0.0,0.0,0.0,0.0,0.0,0.0,0.0,0.0,0.0,0.0,0.0,0.0,0.0,0.0,0.0,0.0,0.0,0.0,0.0,0.0,0.0,0.0,0.0,0.0,0.0,0.0,0.0,0.0,0.0,0.0,0.0,0.0,0.0,0.0,0.0,0.0,0.0,0.0,0.0,0.0,0.0,0.0,0.0,0.0,0.0,0.0,0.0,0.0,0.0,0.0,0.0,0.0,0.0,0.0,0.0,0.0,0.0,0.0,0.0,0.0,0.0,0.0,0.0,0.0,0.0,2.254,2.1396,2.0719,2.0036,0.0,0.0,0.0,0.0,0.0,0.0,0.0,0.0,0.0,0.0,0.0,0.0,0.0,0.0,0.0,0.0,0.0,0.0,0.0,0.0,0.0,0.0,0.0,0.0,0.0,0.0,0.0,0.0,0.0,0.0,0.0,0.0,0.0,0.0,0.0,0.0,0.0,0.0,0.0,0.0,0.0,0.0,0.0,0.0,0.0,0.0,0.0,0.0,0.0,0.0,0.0,0.0,0.0,0.0,0.0,0.0,0.0,0.0,0.0,0.0,0.0,0.0,0.0,0.0,0.0,0.0,0.0,0.0,0.0,0.0,0.0,0.0,0.0,0.0,0.0,0.0,0.0,0.0,0.0,0.0,0.0,0.0,0.0,0.0,0.0,0.0,0.0,0.0,0.0,0.0,0.0,0.0,0.0,0.0,0.0,0.0,0.0,0.0,0.0,0.0,0.0,0.0,0.0,0.0,0.0,0.0,0.0,0.0,0.0,0.0,2.2975,2.2613,2.1538,2.0074,1.9193,1.8944,0.0,0.0,0.0,0.0,0.0,0.0,0.0,0.0,0.0,0.0,0.0,0.0,0.0,0.0,0.0,0.0,0.0,0.0,0.0,0.0,0.0,0.0,0.0,0.0,0.0,0.0,0.0,0.0,0.0,0.0,0.0,0.0,0.0,0.0,0.0,0.0,0.0,0.0,0.0,0.0,0.0,0.0,0.0,0.0,0.0,0.0,0.0,0.0,0.0,0.0,0.0,0.0,0.0,0.0,0.0,0.0,0.0,0.0,0.0,0.0,0.0,0.0,0.0,0.0,0.0,0.0,0.0,0.0,0.0,0.0,0.0,0.0,0.0,0.0,0.0,0.0,0.0,0.0,0.0,0.0,0.0,0.0,0.0,0.0,0.0,0.0,0.0,0.0,0.0,0.0,0.0,0.0,0.0,0.0,0.0,0.0,0.0,0.0,0.0,0.0,0.0,0.0,0.0,0.0,0.0,0.0,0.0,0.0,2.2032,2.2702,2.2298,2.0746,1.9781,1.8911,0.0,0.0,0.0,0.0,0.0,0.0,0.0,0.0,0.0,0.0,0.0,0.0,0.0,0.0,0.0,0.0,0.0,0.0,0.0,0.0,0.0,0.0,0.0,0.0,0.0,0.0,0.0,0.0,0.0,0.0,0.0,0.0,0.0,0.0,0.0,0.0,0.0,0.0,0.0,0.0,0.0,0.0,0.0,0.0,0.0,0.0,0.0,0.0,0.0,0.0,0.0,0.0,0.0,0.0,0.0,0.0,0.0,0.0,0.0,0.0,0.0,0.0,0.0,0.0,0.0,0.0,0.0,0.0,0.0,0.0,0.0,0.0,0.0,0.0,0.0,0.0,0.0,0.0,0.0,0.0,0.0,0.0,0.0,0.0,0.0,0.0,0.0,0.0,0.0,0.0,0.0,0.0,0.0,0.0,0.0,0.0,0.0,0.0,0.0,0.0,0.0,0.0,0.0,0.0,0.0,0.0,0.0,0.0,0.0,2.2686,2.246,2.1772,2.0639,2.0301,1.9464,0.0,0.0,0.0,0.0,0.0,0.0,0.0,0.0,0.0,0.0,0.0,0.0,0.0,0.0,0.0,0.0,0.0,0.0,0.0,0.0,0.0,0.0,0.0,0.0,0.0,0.0,0.0,0.0,0.0,0.0,0.0,0.0,0.0,0.0,0.0,0.0,0.0,0.0,0.0,0.0,0.0,0.0,0.0,0.0,0.0,0.0,0.0,0.0,0.0,0.0,0.0,0.0,0.0,0.0,0.0,0.0,0.0,0.0,0.0,0.0,0.0,0.0,0.0,0.0,0.0,0.0,0.0,0.0,0.0,0.0,0.0,0.0,0.0,0.0,0.0,0.0,0.0,0.0,0.0,0.0,0.0,0.0,0.0,0.0,0.0,0.0,0.0,0.0,0.0,0.0,0.0,0.0,0.0,0.0,0.0,0.0,0.0,0.0,0.0,0.0,0.0,0.0,0.0,0.0,0.0,0.0,0.0,0.0,0.0,2.2702,0.0,2.1207,2.0627,2.0606,1.9911,0.0,0.0,0.0,0.0,0.0,0.0,0.0,0.0,0.0,0.0,0.0,0.0,0.0,0.0,0.0,0.0,0.0,0.0,0.0,0.0,0.0,0.0,0.0,0.0,0.0,0.0,0.0,0.0,0.0,0.0,0.0,0.0,0.0,0.0,0.0,0.0,0.0,0.0,0.0,0.0,0.0,0.0,0.0,0.0,0.0,0.0,0.0,0.0,0.0,0.0,0.0,0.0,0.0,0.0,0.0,0.0,0.0,0.0,0.0,0.0,0.0,0.0,0.0,0.0,0.0,0.0,0.0,0.0,0.0,0.0,0.0,0.0,0.0,0.0,0.0,0.0,0.0,0.0,0.0,0.0,0.0,0.0,0.0,0.0,0.0,0.0,0.0,0.0,0.0,0.0,0.0,0.0,0.0,0.0,0.0,0.0,0.0,0.0,0.0,0.0,0.0,0.0,0.0,0.0,0.0,0.0,0.0,0.0,2.2686,2.1924,2.1112,2.0655,2.059,2.0627,2.022,0.0,0.0,0.0,0.0,0.0,0.0,0.0,0.0,0.0,0.0,0.0,0.0,0.0,0.0,0.0,0.0,0.0,0.0,0.0,0.0,0.0,0.0,0.0,0.0,0.0,0.0,0.0,0.0,0.0,0.0,0.0,0.0,0.0,0.0,0.0,0.0,0.0,0.0,0.0,0.0,0.0,0.0,0.0,0.0,0.0,0.0,0.0,0.0,0.0,0.0,0.0,0.0,0.0,0.0,0.0,0.0,0.0,0.0,0.0,0.0,0.0,0.0,0.0,0.0,0.0,0.0,0.0,0.0,0.0,0.0,0.0,0.0,0.0,0.0,0.0,0.0,0.0,0.0,0.0,0.0,0.0,0.0,0.0,0.0,0.0,0.0,0.0,0.0,0.0,0.0,0.0,0.0,0.0,0.0,0.0,0.0,0.0,0.0,0.0,0.0,0.0,0.0,0.0,0.0,0.0,0.0,0.0,0.0,0.0,2.1905,2.1643,2.0937,1.9814,2.1416,2.1078,0.0,0.0,0.0,0.0,0.0,0.0,0.0,0.0,0.0,0.0,0.0,0.0,0.0,0.0,0.0,0.0,0.0,0.0,0.0,0.0,0.0,0.0,0.0,0.0,0.0,0.0,0.0,0.0,0.0,0.0,0.0,0.0,0.0,0.0,0.0,0.0,0.0,0.0,0.0,0.0,0.0,0.0,0.0,0.0,0.0,0.0,0.0,0.0,0.0,0.0,0.0,0.0,0.0,0.0,0.0,0.0,0.0,0.0,0.0,0.0,0.0,0.0,0.0,0.0,0.0,0.0,0.0,0.0,0.0,0.0,0.0,0.0,0.0,0.0,0.0,0.0,0.0,0.0,0.0,0.0,0.0,0.0,0.0,0.0,0.0,0.0,0.0,0.0,0.0,0.0,0.0,0.0,0.0,0.0,0.0,0.0,0.0,0.0,0.0,0.0,0.0,0.0,0.0,0.0,0.0,0.0,0.0,0.0,0.0,2.091,2.0606,2.0074,1.9299,2.0851,2.0675,1.863,0.0,0.0,0.0,0.0,0.0,0.0,0.0,0.0,0.0,0.0,0.0,0.0,0.0,0.0,0.0,0.0,0.0,0.0,0.0,0.0,0.0,0.0,0.0,0.0,0.0,0.0,0.0,0.0,0.0,0.0,0.0,0.0,0.0,0.0,0.0,0.0,0.0,0.0,0.0,0.0,0.0,0.0,0.0,0.0,0.0,0.0,0.0,0.0,0.0,0.0,0.0,0.0,0.0,0.0,0.0,0.0,0.0,0.0,0.0,0.0,0.0,0.0,0.0,0.0,0.0,0.0,0.0,0.0,0.0,0.0,0.0,0.0,0.0,0.0,0.0,0.0,0.0,0.0,0.0,0.0,0.0,0.0,0.0,0.0,0.0,0.0,0.0,0.0,0.0,0.0,0.0,0.0,0.0,0.0,0.0,0.0,0.0,0.0,0.0,0.0,0.0,0.0,0.0,0.0,0.0,0.0,0.0,0.0,1.9243,1.8428,1.8411,1.9183,1.9365,1.9326,0.0,0.0,0.0,0.0,0.0,0.0,0.0,0.0,0.0,0.0,0.0,0.0,0.0,0.0,0.0,0.0,0.0,0.0,0.0,0.0,0.0,0.0,0.0,0.0,0.0,0.0,0.0,0.0,0.0,0.0,0.0,0.0,0.0,0.0,0.0,0.0,0.0,0.0,0.0,0.0,0.0,0.0,0.0,0.0,0.0,0.0,0.0,0.0,0.0,0.0,0.0,0.0,0.0,0.0,0.0,0.0,0.0,0.0,0.0,0.0,0.0,0.0,0.0,0.0,0.0,0.0,0.0,0.0,0.0,0.0,0.0,0.0,0.0,0.0,0.0,0.0,0.0,0.0,0.0,0.0,0.0,0.0,0.0,0.0,0.0,0.0,0.0,0.0,0.0,0.0,0.0,0.0,0.0,0.0,0.0,0.0,0.0,0.0,0.0,0.0,0.0,0.0,0.0,0.0,0.0,0.0,0.0,0.0,0.0,1.8395,1.8127,1.81,1.8361,1.9595,1.9661,0.0,0.0,0.0,0.0,0.0,0.0,0.0,0.0,0.0,0.0,0.0,0.0,0.0,0.0,0.0,0.0,0.0,0.0,0.0,0.0,0.0,0.0,0.0,0.0,0.0,0.0,0.0,0.0,0.0,0.0,0.0,0.0,0.0,0.0,0.0,0.0,0.0,0.0,0.0,0.0,0.0,0.0,0.0,0.0,0.0,0.0,0.0,0.0,0.0,0.0,0.0,0.0,0.0,0.0,0.0,0.0,0.0,0.0,0.0,0.0,0.0,0.0,0.0,0.0,0.0,0.0,0.0,0.0,0.0,0.0,0.0,0.0,0.0,0.0,0.0,0.0,0.0,0.0,0.0,0.0,0.0,0.0,0.0,0.0,0.0,0.0,0.0,0.0,0.0,0.0,0.0,0.0,0.0,0.0,0.0,0.0,0.0,0.0,0.0,0.0,0.0,0.0,0.0,0.0,0.0,0.0,0.0,0.0,1.9955,1.857,1.8168,1.8008,1.8008,1.8961,1.911,0.0,0.0,0.0,0.0,0.0,0.0,0.0,0.0,0.0,0.0,0.0,0.0,0.0,0.0,0.0,0.0,0.0,0.0,0.0,0.0,0.0,0.0,0.0,0.0,0.0,0.0,0.0,0.0,0.0,0.0,0.0,0.0,0.0,0.0,0.0,0.0,0.0,0.0,0.0,0.0,0.0,0.0,0.0,0.0,0.0,0.0,0.0,0.0,0.0,0.0,0.0,0.0,0.0,0.0,0.0,0.0,0.0,0.0,0.0,0.0,0.0,0.0,0.0,0.0,0.0,0.0,0.0,0.0,0.0,0.0,0.0,0.0,0.0,0.0,0.0,0.0,0.0,0.0,0.0,0.0,0.0,0.0,0.0,0.0,0.0,0.0,0.0,0.0,0.0,0.0,0.0,0.0,0.0,0.0,0.0,0.0,0.0,0.0,0.0,0.0,0.0,0.0,0.0,0.0,0.0,0.0,0.0,0.0,2.0156,1.9223,1.8464,1.8079,1.8118,1.8079,1.8235,0.0,0.0,0.0,0.0,0.0,0.0,0.0,0.0,0.0,0.0,0.0,0.0,0.0,0.0,0.0,0.0,0.0,0.0,0.0,0.0,0.0,0.0,0.0,0.0,0.0,0.0,0.0,0.0,0.0,0.0,0.0,0.0,0.0,0.0,0.0,0.0,0.0,0.0,0.0,0.0,0.0,0.0,0.0,0.0,0.0,0.0,0.0,0.0,0.0,0.0,0.0,0.0,0.0,0.0,0.0,0.0,0.0,0.0,0.0,0.0,0.0,0.0,0.0,0.0,0.0,0.0,0.0,0.0,0.0,0.0,0.0,0.0,0.0,0.0,0.0,0.0,0.0,0.0,0.0,0.0,0.0,0.0,0.0,0.0,0.0,0.0,0.0,0.0,0.0,0.0,0.0,0.0,0.0,0.0,0.0,0.0,0.0,0.0,0.0,0.0,0.0,0.0,0.0,0.0,0.0,0.0,0.0,0.0,1.9986,1.8772,1.8566,1.8637,1.9022,1.8682,1.851,0.0,0.0,0.0,0.0,0.0,0.0,0.0,0.0,0.0,0.0,0.0,0.0,0.0,0.0,0.0,0.0,0.0,0.0,0.0,0.0,0.0,0.0,0.0,0.0,0.0,0.0,0.0,0.0,0.0,0.0,0.0,0.0,0.0,0.0,0.0,0.0,0.0,0.0,0.0,0.0,0.0,0.0,0.0,0.0,0.0,0.0,0.0,0.0,2.9352,0.0,0.0,0.0,0.0,0.0,0.0,0.0,0.0,0.0,0.0,0.0,0.0,0.0,0.0,0.0,0.0,0.0,0.0,0.0,0.0,0.0,0.0,0.0,0.0,0.0,0.0,0.0,0.0,0.0,0.0,0.0,0.0,0.0,0.0,0.0,0.0,0.0,0.0,0.0,0.0,0.0,0.0,0.0,0.0,0.0,0.0,0.0,0.0,0.0,0.0,0.0,0.0,0.0,0.0,0.0,0.0,0.0,0.0,0.0,1.9931,1.9243,1.9023,1.9062,1.9286,1.924,1.922,0.0,0.0,0.0,0.0,0.0,0.0,0.0,0.0,0.0,0.0,0.0,0.0,0.0,0.0,0.0,0.0,0.0,0.0,0.0,0.0,0.0,0.0,0.0,0.0,0.0,0.0,0.0,0.0,0.0,0.0,0.0,0.0,0.0,0.0,0.0,0.0,0.0,0.0,0.0,0.0,0.0,0.0,0.0,0.0,0.0,0.0,0.0,0.0,0.0,0.0,0.0,0.0,0.0,0.0,0.0,0.0,0.0,0.0,0.0,0.0,0.0,0.0,0.0,0.0,0.0,0.0,0.0,0.0,0.0,0.0,0.0,0.0,0.0,0.0,0.0,0.0,0.0,0.0,0.0,0.0,0.0,0.0,0.0,0.0,0.0,0.0,0.0,0.0,0.0,0.0,0.0,0.0,0.0,0.0,0.0,0.0,0.0,0.0,0.0,0.0,0.0,0.0,0.0,0.0,0.0,0.0,0.0,2.0676,2.0027,1.9879,1.9577,1.9432,1.9501,1.9824,2.0019,1.9991,0.0,0.0,0.0,0.0,0.0,0.0,0.0,0.0,0.0,0.0,0.0,0.0,0.0,0.0,0.0,0.0,0.0,0.0,0.0,0.0,0.0,0.0,0.0,0.0,0.0,0.0,0.0,0.0,0.0,0.0,0.0,0.0,0.0,0.0,0.0,0.0,0.0,0.0,2.7474,2.7934,0.0,0.0,0.0,0.0,0.0,0.0,0.0,0.0,2.8905,0.0,0.0,0.0,0.0,0.0,0.0,0.0,0.0,0.0,0.0,0.0,0.0,0.0,0.0,0.0,0.0,0.0,0.0,0.0,0.0,0.0,0.0,0.0,0.0,0.0,0.0,0.0,0.0,0.0,0.0,0.0,0.0,0.0,0.0,0.0,0.0,0.0,0.0,0.0,0.0,0.0,0.0,0.0,0.0,0.0,0.0,0.0,0.0,0.0,0.0,0.0,0.0,0.0,0.0,0.0,0.0,2.1344,2.1097,2.0633,1.9909,1.9822,1.998,2.038,2.0439,2.0478,2.0478,0.0,0.0,0.0,0.0,0.0,0.0,0.0,0.0,0.0,0.0,0.0,0.0,0.0,0.0,0.0,0.0,0.0,0.0,0.0,0.0,0.0,0.0,0.0,0.0,0.0,0.0,0.0,0.0,0.0,0.0,0.0,0.0,0.0,0.0,0.0,0.0,0.0,0.0,0.0,2.8718,2.8982,0.0,0.0,0.0,0.0,0.0,0.0,0.0,0.0,2.8386,0.0,0.0,0.0,0.0,0.0,0.0,0.0,0.0,0.0,0.0,0.0,0.0,0.0,0.0,0.0,0.0,0.0,0.0,0.0,0.0,0.0,0.0,0.0,0.0,0.0,0.0,0.0,0.0,0.0,0.0,0.0,0.0,0.0,0.0,0.0,0.0,0.0,0.0,0.0,0.0,0.0,0.0,0.0,0.0,0.0,0.0,0.0,0.0,0.0,0.0,0.0,0.0,0.0,0.0,0.0,2.1185,2.0546,2.0122,1.993,2.0137,2.0371,2.0595,2.0596,2.0596,0.0,0.0,0.0,0.0,0.0,0.0,0.0,0.0,0.0,0.0,0.0,0.0,0.0,0.0,0.0,0.0,0.0,0.0,0.0,0.0,0.0,0.0,0.0,0.0,0.0,0.0,0.0,0.0,0.0,0.0,0.0,0.0,0.0,0.0,0.0,0.0,0.0,0.0,0.0,0.0,2.8304,2.8385,2.8136,0.0,0.0,0.0,0.0,0.0,0.0,2.7577,2.7462,0.0,0.0,0.0,0.0,0.0,0.0,0.0,0.0,0.0,0.0,0.0,0.0,0.0,0.0,0.0,0.0,0.0,0.0,0.0,0.0,0.0,0.0,0.0,0.0,0.0,0.0,0.0,0.0,0.0,0.0,0.0,0.0,0.0,0.0,0.0,0.0,0.0,0.0,0.0,0.0,0.0,0.0,0.0,0.0,0.0,0.0,0.0,0.0,0.0,0.0,0.0,0.0,0.0,0.0,0.0,2.1302,2.0243,1.9794,2.0029,2.041,2.0596,2.0596,2.0596,2.0596,0.0,0.0,0.0,0.0,0.0,0.0,0.0,0.0,0.0,0.0,0.0,0.0,0.0,0.0,0.0,0.0,0.0,0.0,0.0,0.0,0.0,0.0,0.0,0.0,0.0,0.0,0.0,0.0,0.0,0.0,0.0,0.0,0.0,0.0,0.0,0.0,0.0,0.0,0.0,0.0,0.0,2.7783,2.6944,2.7441,0.0,0.0,0.0,0.0,2.698,2.6897,0.0,0.0,0.0,0.0,0.0,0.0,0.0,0.0,0.0,0.0,0.0,0.0,0.0,0.0,0.0,0.0,0.0,0.0,0.0,0.0,0.0,0.0,0.0,0.0,0.0,0.0,0.0,0.0,0.0,0.0,0.0,0.0,0.0,0.0,0.0,0.0,0.0,0.0,0.0,0.0,0.0,0.0,0.0,0.0,0.0,0.0,0.0,0.0,0.0,0.0,0.0,0.0,0.0,0.0,0.0,0.0,2.1831,2.1264,2.0827,2.0546,2.0586,2.0596,2.0596,2.0596,2.0596,0.0,0.0,0.0,0.0,0.0,0.0,0.0,0.0,0.0,0.0,0.0,0.0,0.0,0.0,0.0,0.0,0.0,0.0,0.0,0.0,0.0,0.0,0.0,0.0,0.0,0.0,0.0,0.0,0.0,0.0,0.0,0.0,0.0,0.0,0.0,0.0,0.0,0.0,0.0,0.0,0.0,2.8076,2.7924,2.7516,2.7237,0.0,0.0,2.6313,2.6232,2.6232,0.0,0.0,0.0,0.0,0.0,0.0,0.0,0.0,0.0,0.0,0.0,0.0,0.0,0.0,0.0,0.0,0.0,0.0,0.0,0.0,0.0,0.0,0.0,0.0,0.0,0.0,0.0,0.0,0.0,0.0,0.0,0.0,0.0,0.0,0.0,0.0,0.0,0.0,0.0,0.0,0.0,0.0,0.0,0.0,0.0,0.0,0.0,0.0,0.0,0.0,0.0,0.0,0.0,0.0,0.0,2.1958,2.2281,2.1105,2.0605,2.0938,2.0937,2.0927,2.0957,2.0918,2.0957,0.0,0.0,0.0,0.0,0.0,0.0,0.0,0.0,0.0,0.0,0.0,0.0,0.0,0.0,0.0,0.0,0.0,0.0,0.0,0.0,0.0,0.0,0.0,0.0,0.0,0.0,0.0,0.0,0.0,0.0,0.0,0.0,0.0,0.0,0.0,0.0,0.0,0.0,0.0,0.0,0.0,0.0,2.5733,2.6152,0.0,0.0,0.0,2.6186,2.6414,0.0,0.0,0.0,0.0,0.0,0.0,0.0,0.0,0.0,0.0,0.0,0.0,0.0,0.0,0.0,0.0,0.0,0.0,0.0,0.0,0.0,0.0,0.0,0.0,0.0,0.0,0.0,0.0,0.0,0.0,0.0,0.0,0.0,0.0,0.0,0.0,0.0,0.0,0.0,0.0,0.0,0.0,0.0,0.0,0.0,0.0,0.0,0.0,0.0,0.0,0.0,0.0,0.0,0.0,0.0,0.0,0.0,2.2283,2.0946,2.0547,2.1171,2.1327,2.1356,2.1376,2.1376,0.0,0.0,0.0,0.0,0.0,0.0,0.0,0.0,0.0,0.0,0.0,0.0,0.0,0.0,0.0,0.0,0.0,0.0,0.0,0.0,0.0,0.0,0.0,0.0,0.0,0.0,0.0,2.7494,0.0,0.0,0.0,0.0,0.0,0.0,0.0,0.0,0.0,0.0,0.0,0.0,0.0,0.0,2.5292,2.4476,2.5222,2.5861,0.0,0.0,2.6103,2.6395,2.5774,2.5352,0.0,0.0,0.0,0.0,0.0,0.0,0.0,0.0,0.0,0.0,0.0,0.0,0.0,0.0,0.0,0.0,0.0,0.0,0.0,0.0,0.0,0.0,0.0,0.0,0.0,0.0,0.0,0.0,0.0,0.0,0.0,0.0,0.0,0.0,0.0,0.0,0.0,0.0,0.0,0.0,0.0,0.0,0.0,0.0,0.0,0.0,0.0,0.0,0.0,0.0,0.0,0.0,0.0,0.0,0.0,2.1329,2.1171,2.1132,2.121,2.1641,2.1866,2.1866,2.1857,2.1846,0.0,0.0,0.0,0.0,0.0,0.0,0.0,0.0,0.0,0.0,0.0,0.0,0.0,0.0,0.0,0.0,0.0,0.0,0.0,0.0,0.0,0.0,0.0,0.0,0.0,0.0,0.0,0.0,0.0,0.0,0.0,0.0,0.0,0.0,0.0,0.0,0.0,0.0,0.0,0.0,0.0,2.6027,2.5937,2.5493,2.5185,0.0,0.0,2.5727,2.5771,2.5708,2.5669,2.5708,0.0,0.0,0.0,0.0,0.0,0.0,0.0,0.0,0.0,0.0,0.0,0.0,0.0,0.0,0.0,0.0,0.0,0.0,0.0,0.0,0.0,0.0,0.0,0.0,0.0,0.0,0.0,0.0,0.0,0.0,0.0,0.0,0.0,0.0,0.0,0.0,0.0,0.0,0.0,0.0,0.0,0.0,0.0,0.0,0.0,0.0,0.0,0.0,0.0,0.0,0.0,0.0,0.0,2.2499,2.2119,2.153,2.1464,2.1981,2.2157,2.2266,2.2275,2.2266,2.2266,0.0,0.0,0.0,0.0,0.0,0.0,0.0,0.0,0.0,0.0,0.0,0.0,0.0,0.0,0.0,0.0,0.0,0.0,0.0,0.0,0.0,0.0,0.0,0.0,0.0,0.0,0.0,0.0,2.9095,2.9024,2.7929,0.0,0.0,0.0,0.0,0.0,0.0,0.0,0.0,0.0,0.0,2.5471,2.5481,2.548,0.0,0.0,2.5601,2.5708,2.5708,2.5708,2.5708,2.5708,2.5708,0.0,0.0,0.0,0.0,0.0,0.0,0.0,0.0,0.0,0.0,0.0,0.0,0.0,0.0,0.0,0.0,0.0,0.0,0.0,0.0,0.0,0.0,0.0,0.0,0.0,0.0,0.0,0.0,0.0,0.0,0.0,0.0,0.0,0.0,0.0,0.0,0.0,0.0,0.0,0.0,0.0,0.0,0.0,0.0,0.0,0.0,0.0,0.0,0.0,0.0,0.0,0.0,2.2849,2.2262,2.1809,2.1884,2.25,2.2615,2.2674,2.2674,2.2695,2.2684,0.0,0.0,0.0,0.0,0.0,0.0,0.0,0.0,0.0,0.0,0.0,0.0,0.0,0.0,0.0,0.0,0.0,0.0,0.0,0.0,0.0,0.0,0.0,0.0,0.0,0.0,0.0,0.0,2.8544,2.8164,2.7387,0.0,0.0,0.0,0.0,0.0,0.0,0.0,0.0,0.0,0.0,2.5297,2.5297,2.5513,2.5708,2.5708,2.5708,2.5708,2.5708,2.5708,2.5708,2.5708,0.0,0.0,0.0,0.0,0.0,0.0,0.0,0.0,0.0,0.0,0.0,0.0,0.0,0.0,0.0,0.0,0.0,0.0,0.0,0.0,0.0,0.0,0.0,0.0,0.0,0.0,0.0,0.0,0.0,0.0,2.307,0.0,0.0,0.0,0.0,0.0,0.0,0.0,0.0,0.0,0.0,0.0,0.0,0.0,0.0,0.0,0.0,0.0,0.0,0.0,0.0,0.0,0.0,2.3204,2.131,2.2051,2.2459,2.2539,2.2888,2.3071,2.3071,2.3081,2.3103,2.3071,0.0,0.0,0.0,0.0,0.0,0.0,0.0,0.0,0.0,0.0,0.0,0.0,0.0,0.0,0.0,0.0,0.0,0.0,0.0,0.0,0.0,0.0,0.0,0.0,0.0,0.0,2.8112,2.6571,2.5577,0.0,0.0,0.0,0.0,0.0,0.0,0.0,0.0,0.0,0.0,2.5439,2.5664,2.5664,2.5708,2.5708,2.5708,2.5708,2.5708,2.5708,2.5708,2.5708,0.0,0.0,0.0,0.0,0.0,0.0,0.0,0.0,0.0,0.0,0.0,0.0,0.0,0.0,0.0,0.0,0.0,0.0,0.0,0.0,0.0,0.0,0.0,0.0,0.0,0.0,0.0,2.3095,2.3095,0.0,0.0,0.0,0.0,0.0,0.0,0.0,0.0,0.0,0.0,0.0,2.4528,2.4544,0.0,0.0,0.0,0.0,0.0,0.0,0.0,0.0,0.0,0.0,0.0,0.0,2.3486,2.2144,2.2342,2.2625,2.2877,2.3023,2.3101,2.3101,2.3101,2.3101,2.3101,0.0,0.0,0.0,0.0,0.0,0.0,0.0,0.0,0.0,0.0,0.0,0.0,0.0,0.0,0.0,0.0,0.0,0.0,0.0,0.0,0.0,0.0,0.0,0.0,0.0,2.7151,0.0,0.0,0.0,0.0,0.0,0.0,0.0,0.0,0.0,0.0,0.0,2.5518,2.5518,2.562,2.5708,2.5708,2.5708,2.5708,0.0,0.0,0.0,0.0,0.0,0.0,0.0,0.0,0.0,0.0,0.0,0.0,0.0,0.0,2.6381,2.5815,2.5708,2.5796,2.6113,0.0,0.0,0.0,0.0,0.0,0.0,0.0,0.0,0.0,0.0,0.0,0.0,0.0,0.0,0.0,0.0,2.3697,0.0,0.0,0.0,0.0,0.0,0.0,0.0,0.0,2.508,2.5297,2.5657,2.5674,2.5774,0.0,2.5946,2.5946,0.0,0.0,0.0,0.0,0.0,0.0,0.0,0.0,2.3608,2.2575,2.2635,2.2918,2.3327,2.3347,2.3415,2.353,2.3415,2.3347,2.3347,2.3179,2.3101,0.0,0.0,0.0,0.0,0.0,0.0,0.0,0.0,0.0,0.0,0.0,0.0,0.0,0.0,0.0,0.0,0.0,0.0,0.0,0.0,0.0,0.0,0.0,2.6313,0.0,0.0,0.0,0.0,0.0,0.0,0.0,0.0,0.0,2.5342,2.5532,2.5708,2.5708,2.5708,2.5708,2.5708,0.0,0.0,0.0,0.0,0.0,0.0,0.0,2.5932,2.5942,2.6059,2.6157,2.6157,2.6391,2.6602,2.6611,0.0,0.0,2.6254,2.6157,2.6235,2.6543,2.6602,2.6689,2.6937,2.7012,2.7012,0.0,0.0,0.0,0.0,0.0,0.0,0.0,0.0,2.4804,2.4788,0.0,2.4842,0.0,0.0,0.0,0.0,0.0,2.4904,0.0,0.0,2.5711,2.6251,2.7273,2.7298,2.757,2.8084,2.8047,2.8059,2.7929,2.553,0.0,0.0,0.0,0.0,0.0,0.0,2.3512,2.2599,2.2937,2.3347,2.3811,2.3809,2.4004,2.4342,2.4023,2.3809,2.3799,2.3396,2.3149,2.3149,2.3149,0.0,0.0,0.0,0.0,0.0,0.0,0.0,0.0,0.0,0.0,0.0,0.0,0.0,0.0,0.0,0.0,0.0,0.0,0.0,0.0,2.6429,0.0,0.0,0.0,0.0,0.0,0.0,0.0,0.0,0.0,0.0,2.5689,2.5698,2.5708,2.5708,0.0,0.0,0.0,0.0,2.5732,2.5767,2.5757,2.5757,2.5767,2.6133,2.6406,2.6406,0.0,0.0,2.6976,2.6996,2.7015,2.7031,2.7045,2.7051,2.7035,2.6976,2.6967,2.7006,2.7006,2.7041,2.7035,2.7148,2.7119,2.5453,0.0,0.0,0.0,0.0,2.4713,2.4816,2.4829,2.5205,2.5372,2.5398,2.5841,0.0,0.0,0.0,0.0,0.0,0.0,2.6884,2.7381,2.7381,2.7557,2.7871,2.7871,2.7946,2.8109,2.8109,2.8109,2.8029,2.6615,2.6487,2.7578,0.0,0.0,0.0,0.0,2.3808,2.3455,2.3545,2.3809,2.4219,2.4238,2.4274,2.4391,2.4297,2.4238,2.4238,2.4098,2.403,2.403,2.403,0.0,0.0,0.0,0.0,0.0,0.0,0.0,0.0,0.0,0.0,0.0,0.0,0.0,0.0,0.0,0.0,0.0,0.0,0.0,2.5233,2.5293,2.5248,0.0,0.0,0.0,0.0,0.0,0.0,0.0,0.0,0.0,2.5708,2.5708,2.5708,0.0,0.0,2.6201,2.6201,2.643,2.6625,2.6625,0.0,0.0,0.0,2.6758,2.6836,2.6836,2.6934,2.7012,2.7012,2.7266,2.7506,2.7506,2.7751,2.792,2.7891,2.7422,2.7168,2.7393,2.7506,2.7588,2.7851,2.792,2.792,2.5414,2.4823,2.4806,2.5183,2.5757,2.5571,2.5721,2.6134,2.6452,2.6573,2.6615,2.6972,2.7153,2.714,2.7123,0.0,0.0,0.0,2.7908,2.8417,2.8662,2.8888,2.9095,2.9315,2.9396,2.9415,2.9402,2.916,2.8672,2.8082,2.7834,2.7869,0.0,0.0,2.5477,2.4439,2.3966,2.4049,2.4043,2.4248,2.4668,2.4853,2.4918,2.4908,2.4766,2.4678,2.4668,2.4512,2.4424,2.4424,2.4424,2.4424,0.0,0.0,0.0,0.0,0.0,0.0,0.0,0.0,0.0,0.0,0.0,2.6017,0.0,0.0,0.0,0.0,2.561,2.5503,2.4969,2.5176,0.0,0.0,0.0,0.0,0.0,0.0,0.0,2.5708,2.5874,2.5971,2.5971,2.6118,2.6157,2.6016,2.6367,2.6641,2.6631,0.0,2.7012,2.7012,2.7012,2.7012,2.7012,2.7168,2.7324,2.7474,2.7519,2.7519,2.7539,2.7754,2.7936,2.7966,2.8142,2.8301,2.8301,2.7861,2.7578,2.7878,2.7946,2.8034,2.8242,2.8301,2.8301,2.495,2.5029,2.4843,2.5658,2.7036,2.6683,2.6987,2.7859,2.8074,2.8117,2.805,2.8167,2.8235,2.8235,2.8285,0.0,2.8292,2.8348,2.8643,2.912,2.9666,3.0181,3.0676,3.1148,3.1406,3.1386,3.1304,3.0704,2.9629,2.9461,2.8813,2.7546,2.5433,2.4735,2.5369,2.4379,2.4043,2.443,2.444,2.4687,2.5141,2.5527,2.5708,2.5698,2.5332,2.5141,2.5131,2.4736,2.4498,2.4498,2.4498,2.4498,2.4521,0.0,0.0,0.0,0.0,0.0,0.0,0.0,0.0,0.0,0.0,0.0,0.0,0.0,0.0,0.0,2.4883,0.0,2.5654,2.5708,0.0,0.0,0.0,2.5728,2.5757,2.5757,2.5776,2.5781,0.0,0.0,2.6435,0.0,2.6794,2.6406,2.677,2.7019,2.692,2.7075,2.7091,2.6794,2.6927,2.6953,2.6724,2.7008,2.7342,2.7657,2.811,2.811,2.8147,2.8345,2.8372,2.8455,2.8435,2.8418,2.8398,2.8418,2.8398,2.8408,2.8369,2.835,2.8474,2.8467,2.8476,2.6271,2.685,2.5183,2.484,2.544,2.6181,2.6152,2.577,2.7789,2.8249,2.7572,2.8846,2.939,2.9415,2.9829,2.9998,3.0011,3.0432,3.0683,3.0809,3.0947,3.1097,3.121,3.1344,3.1406,3.1345,3.0464,2.9897,2.956,2.8609,2.7579,2.6508,2.5902,2.5727,2.5902,2.4828,2.4482,2.4936,2.4936,2.5137,2.5542,2.5659,2.5708,2.5708,2.561,2.5552,2.5542,2.5454,2.5396,2.5406,2.5372,2.5396,2.5382,2.565,0.0,0.0,0.0,0.0,0.0,0.0,0.0,0.0,0.0,2.4936,2.4945,0.0,2.5396,0.0,2.5493,2.5601,2.5708,2.5708,0.0,0.0,2.5708,2.5845,2.6191,2.623,2.6357,2.6654,2.5817,2.5617,2.6728,2.6531,2.6232,2.6078,2.6874,2.7206,2.6357,2.7546,2.765,2.5861,2.627,2.6621,2.5548,2.5341,2.5503,2.5549,2.6551,2.7369,2.7388,2.8461,2.9285,2.9295,2.9295,2.9285,2.9276,2.9295,2.9285,2.9266,2.9004,2.8877,2.9217,2.9285,2.9285,2.5698,2.6117,2.489,2.4488,2.4724,2.5821,2.6222,2.6233,2.7711,2.8337,2.8421,2.9856,3.0216,2.9723,3.0017,3.0449,3.0911,3.0704,3.089,3.1399,3.167,3.1469,3.0956,3.1188,3.1022,3.0484,2.9834,2.9231,2.87,2.8007,2.7054,2.5942,2.5918,2.5928,2.5885,2.5122,2.4922,2.5361,2.5371,2.5488,2.5674,2.5708,2.5708,2.5708,2.5708,2.5708,2.5708,2.5708,2.5708,2.5708,2.5708,2.5708,2.5708,2.5708,2.5708,0.0,0.0,0.0,0.0,0.0,0.0,0.0,0.0,0.0,0.0,0.0,2.5708,2.5708,2.5708,2.5708,2.5708,2.5884,2.6025,2.6001,2.6167,2.6381,2.6641,2.6085,2.6034,2.688,2.6039,2.5662,2.6396,2.6536,2.6234,2.5488,2.5936,2.6141,2.5602,2.6374,2.6436,2.5015,2.5464,2.5753,2.4816,2.4699,2.4699,2.4757,2.5435,2.6013,2.6079,2.7378,2.8493,2.8521,2.9065,2.9608,2.9608,2.9608,2.9647,2.9803,2.9658,2.9531,2.9588,2.9608,2.9608,2.458,2.4557,2.4567,2.4567,2.4626,2.562,2.6512,2.7294,2.7579,2.8329,2.9421,3.0451,3.0348,2.9357,2.9449,3.0131,3.1166,3.0266,3.0365,3.1385,3.1847,3.1418,3.0317,3.0754,3.0417,2.9396,2.9246,2.8634,2.7613,2.7458,2.6802,2.5732,2.5708,2.5708,2.5689,2.5342,2.5342,2.5698,2.5708,2.5708,2.5708,2.5708,2.5708,2.5708,2.5708,2.5708,2.5708,2.5708,2.5708,2.5708,2.5708,2.5708,2.5708,2.5708,2.5708,0.0,2.5708,0.0,0.0,0.0,0.0,0.0,0.0,0.0,0.0,2.5767,2.5796,2.5771,2.5845,2.5849,2.5849,2.624,2.6465,2.6484,2.6797,2.7025,2.7081,2.5854,2.5465,2.6849,2.6224,2.5639,2.5749,2.6284,2.5995,2.4727,2.4555,2.4491,2.4271,2.4651,2.4848,2.4381,2.422,2.4063,2.4026,2.4112,2.4083,2.4156,2.4453,2.4544,2.4614,2.5932,2.6967,2.7091,2.8092,2.9069,2.9389,2.9248,2.9278,2.9709,2.9814,2.9823,2.9826,2.9852,2.9764,2.544,2.5464,2.5464,2.5464,2.5464,2.5671,2.5493,2.5141,2.693,2.7841,2.8058,2.8307,2.8274,2.8092,2.8574,2.9437,3.0589,3.0801,3.1013,3.1244,3.134,3.0758,2.9636,2.9704,2.9636,2.9338,2.8402,2.7825,2.7565,2.6548,2.5927,2.5708,2.5708,2.5708,2.5708,0.0,0.0,0.0,2.5708,2.5708,2.5708,2.5708,2.5708,2.5708,2.5708,0.0,2.5708,2.5708,2.5708,2.5708,2.5708,0.0,0.0,0.0,0.0,0.0,0.0,0.0,0.0,0.0,0.0,0.0,2.5645,2.5708,2.5718,2.6055,2.6269,2.6269,2.6557,2.6752,2.6768,2.6846,2.6894,2.6879,2.6947,2.7285,2.7887,2.6629,2.6063,2.6927,2.4803,2.3668,2.4721,2.4357,2.3745,2.3376,2.3574,2.3211,2.1987,2.371,2.4221,2.2334,2.1952,2.1832,2.1766,2.1887,2.2014,2.1915,2.2986,2.371,2.3894,2.5121,2.6169,2.6199,2.6461,2.7186,2.8398,2.7591,2.7391,2.8537,2.883,2.9136,3.0374,3.0664,3.0664,2.5708,0.0,2.5708,2.5708,0.0,2.5708,2.543,2.5116,2.6238,2.6714,2.6796,2.8005,2.8197,2.7654,2.7959,2.8765,2.988,2.9568,2.975,3.0305,3.0316,2.9681,2.8518,2.8518,2.8179,2.7555,2.6969,2.6658,2.6634,2.6014,2.5708,2.5708,2.5708,2.5708,2.5693,2.5923,2.5932,2.5693,2.5708,2.5708,2.5708,2.5708,2.5815,2.602,0.0,0.0,0.0,0.0,0.0,0.0,0.0,0.0,0.0,0.0,0.0,2.5708,2.5708,2.5781,2.601,2.6055,2.6152,2.6323,2.6342,2.6254,2.605,2.6455,2.6689,2.6699,2.6904,2.7012,2.7021,2.7393,2.7313,2.6593,2.6808,2.6947,2.6476,2.5162,2.4679,2.5532,2.4083,2.3097,2.3709,2.3596,2.2943,2.2169,2.2211,2.2073,2.1405,2.2286,2.2553,2.1297,2.1102,2.1102,2.1102,2.1102,2.1182,2.1435,2.2049,2.2606,2.2773,2.4132,2.5219,2.5274,2.5837,2.6963,2.8468,2.8254,2.8254,2.9788,3.0289,3.0479,3.1365,3.1221,3.0928,2.5708,2.5708,2.5708,2.5708,2.5708,2.5708,2.5708,2.5708,0.0,0.0,0.0,2.7851,2.8202,2.7268,2.7268,2.7921,2.8993,2.8049,2.8132,2.9062,2.9096,2.8425,2.7281,2.7268,2.6716,2.5732,2.5708,2.5708,2.5708,2.5708,2.5708,2.5718,2.5786,2.584,2.5962,2.6318,2.6318,2.5962,2.5932,2.5908,2.5908,2.5932,2.6108,2.6494,2.6504,2.666,2.7002,2.7012,2.7012,2.6976,2.6689,2.6494,2.6494,2.6137,2.5942,2.5942,2.5942,2.6123,2.6475,2.6504,2.665,2.6967,2.709,2.6953,2.6533,2.6885,2.7168,2.7226,2.7305,2.7367,2.7435,2.8086,2.801,2.6692,2.6876,2.6577,2.5394,2.3606,2.3161,2.4115,2.3452,2.2681,2.2604,2.2846,2.2716,2.1481,2.1314,2.1191,2.1243,2.1356,2.1436,2.1241,2.1283,2.1296,2.1276,2.1296,2.137,2.1622,2.1688,2.1749,2.2134,2.3065,2.3865,2.3904,2.5328,2.6954,2.8607,2.8853,2.9732,3.1398,3.1774,3.1753,3.1716,3.1422,3.1182,2.5708,2.5708,2.5708,2.5708,2.5708,2.5708,2.5708,2.5708,2.5708,2.5708,2.5732,2.6052,2.6125,2.5975,2.5975,2.6658,2.7814,2.7683,2.7683,0.0,2.7861,2.7197,2.5989,2.5965,2.5878,2.5708,2.5708,2.5708,2.5708,2.5684,2.5708,2.5767,2.6113,2.645,2.6791,2.6869,2.6869,2.682,2.6811,2.6836,2.6811,2.6811,2.684,2.6924,2.6898,2.6918,2.7012,2.7021,2.7012,2.7012,2.6963,2.6908,2.6924,2.6855,2.6811,2.6811,2.6801,2.6855,2.6914,2.6898,2.6928,2.6996,2.7389,2.7418,2.6982,2.735,2.7725,2.8076,2.8408,2.8809,2.916,2.9277,2.9151,2.8817,2.7806,2.7113,2.693,2.4526,2.2989,2.3565,2.2366,2.1438,2.1514,2.1531,2.1547,2.1226,2.1395,2.1602,2.1717,2.1683,2.1542,2.1555,2.1736,2.187,2.183,2.185,2.185,2.1943,2.1957,2.1984,2.2077,2.2348,2.2605,2.2425,2.4003,2.5575,2.7163,2.7533,2.8506,2.9916,3.0213,3.0247,3.0235,3.0976,3.1861,2.5708,2.5708,2.5708,2.5708,2.5708,2.5708,2.5708,2.5708,2.5708,2.5708,2.5708,2.5708,2.5708,2.5708,2.5708,2.6014,2.6572,2.6562,2.6572,2.6572,2.6572,2.6269,2.5732,2.5708,2.5708,2.5708,2.5708,2.5708,2.5728,2.5942,2.6094,2.6098,2.6514,2.6836,2.6986,2.7246,2.7399,2.7363,2.7139,2.7012,2.7012,2.7012,2.7129,2.7379,2.7399,2.748,2.7695,2.7715,2.7705,2.7705,2.749,2.7389,2.7389,2.7148,2.7012,2.7012,2.7012,2.7093,2.7379,2.7578,2.7812,2.8001,2.8232,2.8369,2.8408,2.8359,2.8525,2.8963,2.9197,2.9355,2.9533,2.9012,2.827,2.7331,2.6016,2.4942,2.4176,2.2973,2.2036,2.2132,2.1601,2.1169,2.1368,2.1381,2.143,2.155,2.1756,2.189,2.1984,2.2017,2.1997,2.187,2.193,2.2004,2.2024,2.2017,2.2051,2.2184,2.2218,2.2291,2.2445,2.2492,2.2485,2.2593,2.3923,2.5201,2.6236,2.7959,2.8924,2.8732,2.9786,2.9913,2.9467,3.0248,3.1489,2.5708,2.5708,2.5708,2.5708,2.5708,2.5708,2.5708,2.5708,2.5708,2.5708,2.5708,2.5708,2.5708,2.5708,2.5708,2.5708,2.5708,2.5708,2.5708,2.5708,2.5708,2.5708,2.5708,2.5708,2.5767,2.5854,2.5854,2.5913,2.603,2.6367,2.6582,2.6724,2.7002,2.7181,2.7314,2.7663,2.7839,2.7819,2.748,2.7305,2.7305,2.7305,2.7461,2.78,2.7839,2.7969,2.8271,2.8301,2.8301,2.8281,2.8015,2.7829,2.7819,2.749,2.7295,2.7305,2.7305,2.749,2.7946,2.8376,2.8721,2.9033,2.9062,2.9248,2.9647,2.9404,2.9336,2.9676,2.9735,2.9784,2.9771,2.8732,2.739,2.6087,2.4522,2.3319,2.1971,2.1416,2.1209,2.1209,2.1256,2.141,2.1616,2.1683,2.1796,2.2004,2.2084,2.2104,2.2184,2.2392,2.2398,2.2265,2.2178,2.2211,2.2218,2.2238,2.2305,2.2498,2.2519,2.2605,2.28,2.2873,2.2887,2.3024,2.4367,2.5457,2.5884,2.808,2.9403,2.8867,2.9429,3.002,2.9602,3.0267,3.1387,2.5708,2.5708,2.5708,2.5708,2.5708,2.5708,2.5708,2.5708,2.5708,2.5708,2.5708,2.5708,2.5708,2.5708,2.5708,2.5708,2.5708,2.5708,2.5708,2.5693,2.5708,2.5708,2.5737,2.5703,2.5923,2.6289,2.6328,2.6504,2.6791,2.6924,2.7148,2.7536,2.7614,2.7819,2.8142,2.8193,2.8232,2.8232,2.8193,2.8174,2.8174,2.8174,2.8193,2.8232,2.8232,2.8252,2.8291,2.8301,2.8301,2.8291,2.8298,2.8269,2.8259,2.8193,2.8174,2.8174,2.8174,2.8369,2.8742,2.9227,2.9471,2.953,2.953,2.9715,3.0098,3.0098,3.0088,3.0146,3.0175,3.0312,3.0616,2.931,2.817,2.7577,2.5253,2.3519,2.3104,2.2292,2.1574,2.1574,2.1736,2.1917,2.1964,2.1997,2.2117,2.2338,2.2378,2.2452,2.2679,2.276,2.2827,2.2806,2.2806,2.2793,2.2773,2.2806,2.2786,2.2833,2.286,2.2914,2.2974,2.298,2.2914,2.326,2.4595,2.5848,2.6162,2.7702,2.9003,2.8335,2.8674,2.9538,3.094,3.1566,3.2085,2.5708,2.5708,2.5708,2.5708,2.5708,2.5708,2.5708,2.5708,2.5708,2.5708,2.5708,2.5708,2.5708,2.5708,2.5708,2.5708,2.5708,2.5708,2.5708,2.5713,2.5971,2.6098,2.6143,2.6362,2.6567,2.6723,2.6758,2.6836,2.7006,2.7275,2.7643,2.7998,2.8064,2.8125,2.8291,2.8301,2.8301,2.8301,2.8301,2.8301,2.8301,2.8301,2.8301,2.8301,2.8301,2.8301,2.832,2.8525,2.8662,2.8682,2.8906,2.908,2.908,2.908,2.908,2.907,2.908,2.9121,2.9324,2.95,2.9706,2.995,2.9941,3.0127,3.0576,3.0605,3.0605,3.0605,3.0634,3.0703,3.0743,2.9412,2.8051,2.6957,2.5083,2.3488,2.2472,2.2109,2.1843,2.185,2.195,2.2064,2.2225,2.2392,2.2572,2.2665,2.2679,2.2732,2.2887,2.29,2.298,2.3093,2.3133,2.3081,2.2967,2.29,2.298,2.3086,2.314,2.316,2.3375,2.3435,2.3435,2.3415,2.4916,2.5545,2.4715,2.6916,2.8612,2.7486,2.722,2.8138,2.9919,3.1231,3.2407,2.6069,2.6059,2.6069,2.6059,2.6059,2.6059,2.6069,2.6059,2.6059,2.6069,2.6059,2.6059,2.6069,2.605,2.5952,2.5893,2.5903,2.601,2.6059,2.6098,2.6426,2.6562,2.6592,2.6855,2.708,2.7178,2.7197,2.7256,2.7383,2.7692,2.8024,2.8262,2.8301,2.8301,2.8301,2.8301,2.8301,2.8301,2.8301,2.835,2.8447,2.8457,2.8467,2.8476,2.8584,2.8643,2.8689,2.8935,2.9092,2.9101,2.9442,2.9608,2.9608,2.9608,2.9608,2.9618,2.9706,2.9774,2.9774,2.9882,3.0087,3.0342,3.0381,3.0556,3.081,3.0928,3.0928,3.0889,3.0996,3.1035,3.0743,2.9071,2.738,2.6141,2.46,2.2953,2.1943,2.1957,2.2104,2.2104,2.2211,2.2325,2.2512,2.2706,2.2867,2.2873,2.2887,2.2947,2.3,2.3047,2.3106,2.3394,2.3447,2.3367,2.3194,2.3194,2.3281,2.334,2.3447,2.3514,2.3734,2.379,2.3797,2.3777,2.5109,2.5477,2.4638,2.6233,2.7446,2.5392,2.5278,2.7102,2.9382,3.0737,3.2458,2.6928,2.6918,2.6943,2.6879,2.6928,2.6889,2.6934,2.684,2.6889,2.6934,2.6894,2.6879,2.6934,2.6859,2.6543,2.6367,2.6406,2.6703,2.685,2.6859,2.6963,2.6967,2.6992,2.7012,2.7246,2.7643,2.7663,2.7839,2.8164,2.8232,2.8271,2.8291,2.8301,2.8301,2.8301,2.8301,2.8301,2.834,2.834,2.8496,2.882,2.8906,2.8898,2.8965,2.9305,2.9471,2.95,2.9549,2.9569,2.9579,2.9637,2.9647,2.9627,2.9647,2.9667,2.9676,2.9961,3.0176,3.0225,3.0527,3.0791,3.0859,3.0801,3.0879,3.0879,3.0928,3.0908,3.0908,3.125,3.1299,3.08,2.8693,2.6766,2.614,2.3833,2.2423,2.203,2.2225,2.2378,2.2432,2.2599,2.276,2.2847,2.2887,2.2914,2.292,2.2914,2.3014,2.324,2.3272,2.344,2.369,2.379,2.3783,2.3763,2.3623,2.3669,2.3741,2.3748,2.3817,2.3803,2.381,2.3837,2.3897,2.4401,2.4596,2.4374,2.4541,2.505,2.4629,2.4888,2.6518,2.9433,3.0072,3.1948,2.7012,2.7012,2.7012,2.7012,2.7012,2.7012,2.7012,2.7012,2.7012,2.7012,2.7012,2.7012,2.7012,2.6996,2.7184,2.7051,2.6816,2.6928,2.7012,2.7025,2.7305,2.7432,2.7461,2.7695,2.79,2.8073,2.8066,2.8171,2.8271,2.8301,2.8301,2.8301,2.8301,2.8301,2.8301,2.8301,2.8418,2.8672,2.8664,2.8906,2.9316,2.959,2.9736,2.9726,2.9619,2.9608,2.9608,2.9852,2.9999,2.9999,3.0244,3.0449,3.0439,3.041,3.042,3.0458,3.0566,3.0644,3.0664,3.0801,3.0928,3.0928,3.0928,3.0928,3.0928,3.0937,3.0996,3.125,3.1377,3.1523,3.1349,2.9696,2.7503,2.5436,2.439,2.3367,2.2605,2.2519,2.2733,2.2719,2.2847,2.2893,2.2914,2.29,2.2974,2.312,2.316,2.33,2.3527,2.3614,2.3714,2.3961,2.4055,2.4108,2.4315,2.3955,2.3843,2.3975,2.4068,2.4175,2.4209,2.4242,2.4282,2.4249,2.4352,2.4372,2.4442,2.4469,2.4592,2.4703,2.4991,2.699,2.9777,3.0813,3.2839,2.7396,2.7396,2.7422,2.7406,2.7432,2.7406,2.7422,2.7432,2.7396,2.7432,2.7422,2.7422,2.7422,2.7471,2.7734,2.7725,2.7451,2.7432,2.7432,2.7451,2.777,2.7888,2.7936,2.8191,2.8301,2.8291,2.8301,2.8301,2.8301,2.8301,2.8301,2.8301,2.8301,2.8301,2.831,2.8418,2.8652,2.8896,2.9025,2.9336,2.9784,3.0049,3.0283,3.0361,3.0175,3.0018,3.0038,3.0273,3.042,3.0459,3.0752,3.0928,3.0918,3.0928,3.0928,3.0928,3.0918,3.0928,3.0928,3.0928,3.0928,3.0928,3.0928,3.0928,3.0908,3.1016,3.123,3.1445,3.1796,3.1949,3.1408,3.0517,2.8677,2.5988,2.5217,2.4397,2.2869,2.2766,2.2873,2.288,2.2887,2.2934,2.2993,2.3013,2.3166,2.3399,2.3467,2.3594,2.3841,2.3921,2.4008,2.4282,2.4306,2.4379,2.4466,2.4289,2.4148,2.4282,2.4302,2.4419,2.4492,2.4566,2.4592,2.4592,2.4592,2.4592,2.4592,2.4592,2.4629,2.4703,2.5925,2.7671,2.99,3.1843,3.3448,2.8252,2.8223,2.8281,2.8203,2.8184,2.8174,2.8269,2.8193,2.8213,2.8164,2.8125,2.8213,2.8154,2.8232,2.8193,2.8242,2.8184,2.8154,2.8154,2.8184,2.8223,2.8242,2.8252,2.8271,2.8301,2.8301,2.8301,2.8301,2.8301,2.8301,2.8301,2.8301,2.8301,2.832,2.832,2.8682,2.8879,2.9092,2.9422,2.9803,3.0146,3.0244,3.0449,3.0791,3.084,3.082,3.0849,3.084,3.083,3.0879,3.0869,3.0928,3.0928,3.0928,3.0928,3.0928,3.0928,3.0928,3.0928,3.0928,3.0928,3.0928,3.0928,3.0918,3.1016,3.1269,3.1484,3.1718,3.2185,3.2198,3.0965,3.0624,2.9661,2.7718,2.6075,2.4718,2.3365,2.2887,2.2907,2.2927,2.2954,2.3013,2.3233,2.3333,2.3454,2.3681,2.381,2.3875,2.4142,2.4209,2.4335,2.4479,2.4526,2.4532,2.4572,2.4586,2.4572,2.4566,2.4532,2.4566,2.4559,2.4592,2.4592,2.4592,2.4592,2.4592,2.4592,2.4592,2.4592,2.4954,2.6568,2.7715,2.923,3.0928,3.2952,2.8301,2.8301,2.8301,2.8301,2.8301,2.8301,2.8301,2.8301,2.8301,2.8301,2.8301,2.8301,2.8301,2.8301,2.8301,2.8301,2.8301,2.8301,2.8301,2.8301,2.8301,2.8301,2.8301,2.8301,2.8301,2.8301,2.8301,2.8301,2.8301,2.8301,2.8301,2.8301,2.8301,2.8457,2.8701,2.884,2.9133,2.9756,2.9932,3.0225,3.0625,3.0674,3.0752,3.0869,3.0928,3.0928,3.0928,3.0928,3.0928,3.0928,3.0928,3.0928,3.0928,3.0928,3.0928,3.0928,3.0928,3.0928,3.0928,3.0928,3.0928,3.0928,3.0928,3.1045,3.1279,3.1455,3.1807,3.2256,3.2666,3.256,3.2318,3.135,2.9559,2.6491,2.5718,2.4824,2.329,2.2914,2.3,2.3146,2.318,2.332,2.3541,2.3634,2.3754,2.4008,2.4068,2.4182,2.4372,2.4432,2.4479,2.4586,2.4592,2.4592,2.4592,2.4592,2.4592,2.4592,2.4592,2.4592,2.4592,2.4592,2.4592,2.4592,2.4592,2.4592,2.4592,2.4592,2.4592,2.4666,2.5566,2.6743,2.8025,2.9801,3.1825,2.8301,2.8301,2.8301,2.8301,2.8301,2.8301,2.8301,2.8301,2.8301,2.8301,2.8301,2.8301,2.8301,2.8301,2.8301,2.8301,2.8301,2.8301,2.8301,2.8301,2.8301,2.8301,2.8301,2.8301,2.8301,2.8301,2.8301,2.8301,2.8301,2.8301,2.8301,2.8301,2.8437,2.8643,2.8928,2.9258,2.9707,3.0156,3.0361,3.0596,3.083,3.0928,3.0928,3.0928,3.0928,3.0928,3.0928,3.0928,3.0928,3.0928,3.0928,3.0928,3.0928,3.0928,3.0928,3.0928,3.0928,3.0928,3.0928,3.0928,3.0928,3.0937,3.1035,3.1221,3.1523,3.1719,3.2285,3.2676,3.2949,3.3135,3.3087,3.1835,2.9531,2.6865,2.5905,2.4841,2.3426,2.304,2.3173,2.3394,2.3487,2.3634,2.3834,2.3935,2.4055,2.4289,2.4369,2.4396,2.4552,2.4586,2.4592,2.4592,2.4592,2.4592,2.4592,2.4592,2.4592,2.4592,2.4592,2.4592,2.4592,2.4592,2.4592,2.4592,2.4592,2.4592,2.4592,2.4592,2.4592,2.474,2.4991,2.6532,2.8068,2.8872,3.0539,2.8301,2.8301,2.8301,2.8301,2.8301,2.8301,2.8301,2.8301,2.8301,2.8301,2.8301,2.8301,2.8301,2.8301,2.8301,2.8301,2.8301,2.8301,2.8301,2.8301,2.8301,2.8301,2.8301,2.8301,2.8301,2.8301,2.8301,2.8301,2.8301,2.8301,2.8301,2.833,2.8662,2.8908,2.9131,2.9775,3.0156,3.0332,3.0664,3.0859,3.0928,3.0928,3.0928,3.0928,3.0928,3.0928,3.0928,3.0928,3.0928,3.0928,3.0928,3.0928,3.0928,3.0928,3.0928,3.0928,3.0928,3.0928,3.0928,3.0928,3.0957,3.1035,3.1279,3.1533,3.1748,3.2275,3.2705,3.2891,3.3174,3.3357,3.3082,3.1538,2.9629,2.7933,2.5886,2.452,2.3532,2.3265,2.3434,2.373,2.3843,2.3937,2.4182,2.4222,2.4356,2.4472,2.4552,2.4566,2.4579,2.4592,2.4592,2.4592,2.4592,2.4592,2.4592,2.4592,2.4592,2.4592,2.4592,2.4592,2.4592,2.4592,2.4592,2.4592,2.4592,2.4592,2.4592,2.4592,2.4592,2.4666,2.5492,2.6932,2.757,2.7917,2.8657,2.8301,2.8301,2.8301,2.8301,2.8301,2.8301,2.8301,2.8301,2.8301,2.8301,2.8301,2.8301,2.8301,2.8301,2.8301,2.8301,2.8301,2.8301,2.8301,2.8301,2.8301,2.8301,2.8301,2.8301,2.8301,2.8301,2.8301,2.8301,2.8301,2.8301,2.8301,2.831,2.875,2.9084,2.9443,2.9941,3.0371,3.0664,3.0801,3.0928,3.0928,3.0928,3.0928,3.0928,3.0928,3.0928,3.0928,3.0928,3.0928,3.0928,3.0928,3.0928,3.0928,3.0928,3.0928,3.0928,3.0928,3.0928,3.0928,3.0937,3.1025,3.1318,3.1504,3.1797,3.2422,3.2646,3.2949,3.3164,3.3347,3.3386,3.2924,3.0725,2.7859,2.4858,2.4094,2.366,2.3434,2.3305,2.3514,2.3975,2.4082,2.4229,2.4402,2.4466,2.4492,2.4572,2.4592,2.4592,2.4592,2.4592,2.4592,2.4592,2.4592,2.4592,2.4592,2.4592,2.4592,2.4592,2.4592,2.4592,2.4592,2.4592,2.4592,2.4592,2.4592,2.4592,2.4592,2.4592,2.4592,2.4592,2.5028,2.5852,2.5529,2.5705,2.667,2.8301,2.8301,2.8301,2.8301,2.8301,2.8301,2.8301,2.8301,2.8301,2.8301,2.8301,2.8301,2.8301,2.8301,2.8301,2.8301,2.8301,2.8301,2.8301,2.8301,2.8301,2.8301,2.8301,2.8301,2.8301,2.8301,2.8301,2.8301,2.8301,2.8301,2.8379,2.8623,2.8984,2.9414,2.9844,3.0264,3.0605,3.084,3.0928,3.0928,3.0928,3.0928,3.0928,3.0928,3.0928,3.0928,3.0928,3.0928,3.0928,3.0928,3.0928,3.0928,3.0928,3.0928,3.0928,3.0928,3.0928,3.0928,3.0928,3.1035,3.126,3.1543,3.1777,3.2266,3.2705,3.293,3.3172,3.3369,3.3377,3.3386,3.2829,3.0263,2.7138,2.4757,2.3365,2.3143,2.3454,2.3647,2.3901,2.4235,2.4396,2.4429,2.4586,2.4592,2.4592,2.4592,2.4592,2.4592,2.4592,2.4592,2.4592,2.4592,2.4592,2.4592,2.4592,2.4592,2.4592,2.4592,2.4592,2.4592,2.4592,2.4592,2.4592,2.4592,2.4592,2.4592,2.4592,2.4592,2.4592,2.4592,2.4592,2.4666,2.4703,2.4592,2.5462,2.8211,2.8094,2.8237,2.8301,2.8301,2.8301,2.8301,2.8301,2.8301,2.8301,2.8301,2.8301,2.8301,2.8301,2.8301,2.8301,2.8301,2.8301,2.8301,2.8301,2.8301,2.8301,2.8301,2.8301,2.8301,2.8301,2.8301,2.8301,2.8301,2.8301,2.8525,2.8857,2.9307,2.9756,3.0127,3.0605,3.0888,3.0908,3.0928,3.0928,3.0928,3.0928,3.0928,3.0928,3.0928,3.0928,3.0928,3.0928,3.0928,3.0928,3.0928,3.0928,3.0928,3.0928,3.0928,3.0957,3.0967,3.1016,3.1074,3.1367,3.1631,3.1826,3.2402,3.2822,3.2939,3.3193,3.3338,3.3377,3.3386,3.3219,3.2533,3.0142,2.7768,2.5633,2.4013,2.3624,2.3678,2.3981,2.4282,2.4546,2.4586,2.4592,2.4592,2.4592,2.4592,2.4592,2.4592,2.4592,2.4592,2.4592,2.4592,2.4592,2.4592,2.4592,2.4592,2.4592,2.4592,2.4592,2.4592,2.4592,2.4592,2.4592,2.4592,2.4592,2.4592,2.4592,2.4592,2.4592,2.4592,2.4592,2.4592,2.4777,2.4961,2.4703,2.5102,2.7618,2.6662,2.7816,2.8301,2.8301,2.8301,2.8301,2.8301,2.8301,2.8301,2.8301,2.8301,2.8301,2.8301,2.8301,2.8301,2.8301,2.8301,2.8301,2.8301,2.8301,2.8301,2.8301,2.8301,2.8301,2.8301,2.8301,2.8301,2.8301,2.8359,2.8516,2.8945,2.9414,2.9813,3.0234,3.0664,3.0928,3.0928,3.0928,3.0928,3.0928,3.0928,3.0928,3.0928,3.0928,3.0928,3.0928,3.0928,3.0928,3.0928,3.0928,3.0928,3.0928,3.0928,3.0937,3.0996,3.1211,3.1367,3.1455,3.1777,3.2168,3.2441,3.2666,3.2939,3.323,3.3308,3.3386,3.3386,3.3355,3.2892,3.1835,3.0845,2.8714,2.6478,2.5346,2.464,2.3813,2.3701,2.4108,2.4426,2.4586,2.4592,2.4592,2.4592,2.4592,2.4592,2.4592,2.4592,2.4592,2.4592,2.4592,2.4592,2.4592,2.4592,2.4592,2.4592,2.4592,2.4592,2.4592,2.4592,2.4592,2.4592,2.4592,2.4592,2.4592,2.4592,2.4592,2.4592,2.4592,2.4592,2.4666,2.5028,2.5175,2.4888,2.5102,2.7447,2.6291,2.7672,2.8301,2.8301,2.8301,2.8301,2.8301,2.8301,2.8301,2.8301,2.8301,2.8301,2.8301,2.8301,2.8301,2.8301,2.8301,2.8301,2.8301,2.8301,2.8301,2.8301,2.8301,2.8301,2.8301,2.8301,2.8301,2.833,2.8516,2.8828,2.9228,2.9648,3.0146,3.0469,3.0791,3.0908,3.0928,3.0928,3.0928,3.0928,3.0928,3.0928,3.0928,3.0928,3.0928,3.0928,3.0928,3.0928,3.0928,3.0928,3.0928,3.0928,3.0937,3.0976,3.1201,3.1357,3.1641,3.1846,3.2207,3.2549,3.2783,3.2959,3.3142,3.3328,3.3386,3.3386,3.3386,3.3323,3.2924,3.2059,3.107,2.9392,2.7461,2.6131,2.5069,2.3822,2.3701,2.4062,2.4359,2.4512,2.4572,2.4592,2.4592,2.4592,2.4592,2.4592,2.4592,2.4592,2.4592,2.4592,2.4592,2.4592,2.4592,2.4592,2.4592,2.4592,2.4592,2.4592,2.4592,2.4592,2.4592,2.4592,2.4592,2.4592,2.4592,2.4592,2.4592,2.4592,2.4592,2.4777,2.5279,2.5602,2.5602,2.6071,2.7303,2.59,2.7592,2.8301,2.8301,2.8301,2.8301,2.8301,2.8301,2.8301,2.8301,2.8301,2.8301,2.8301,2.8301,2.8301,2.8301,2.8301,2.8301,2.8301,2.8301,2.8301,2.8301,2.8301,2.8301,2.8301,2.8301,2.8301,2.8398,2.8711,2.9062,2.9569,2.9971,3.0361,3.0762,3.0918,3.0928,3.0928,3.0928,3.0928,3.0928,3.0928,3.0928,3.0928,3.0928,3.0928,3.0928,3.0928,3.0928,3.0928,3.0928,3.0928,3.0986,3.1016,3.1123,3.1474,3.167,3.1973,3.2306,3.2627,3.291,3.291,3.3184,3.3347,3.3377,3.3386,3.3386,3.3386,3.3355,3.3355,3.325,3.2292,3.0425,2.8468,2.6706,2.5227,2.3817,2.3754,2.3988,2.4242,2.4396,2.4452,2.4552,2.4592,2.4592,2.4592,2.4592,2.4592,2.4592,2.4592,2.4592,2.4592,2.4592,2.4592,2.4592,2.4592,2.4592,2.4592,2.4592,2.4592,2.4592,2.4592,2.4592,2.4592,2.4592,2.4592,2.4592,2.4592,2.4592,2.4592,2.4814,2.5212,2.5712,2.6254,2.6925,2.6662,2.4405,2.7141,2.8301,2.8301,2.8301,2.8301,2.8301,2.8301,2.8301,2.8301,2.8301,2.8301,2.8301,2.8301,2.8301,2.8301,2.8301,2.8301,2.8301,2.8301,2.8301,2.8301,2.8301,2.8301,2.8301,2.8301,2.8301,2.8428,2.8711,2.9219,2.9627,3.0029,3.0478,3.0781,3.0928,3.0928,3.0928,3.0928,3.0928,3.0928,3.0928,3.0928,3.0928,3.0928,3.0928,3.0928,3.0928,3.0928,3.0928,3.0928,3.1084,3.1299,3.1387,3.1455,3.1679,3.2158,3.25,3.2746,3.3047,3.3271,3.3308,3.3347,3.3377,3.3386,3.3386,3.3386,3.3386,3.3386,3.3386,3.3386,3.2892,3.1281,2.9222,2.7685,2.6278,2.3962,2.3287,2.3694,2.4008,2.4189,2.4362,2.4469,2.4546,2.4592,2.4592,2.4592,2.4592,2.4592,2.4592,2.4592,2.4592,2.4592,2.4592,2.4592,2.4592,2.4592,2.4592,2.4592,2.4592,2.4592,2.4592,2.4592,2.4592,2.4592,2.4592,2.4592,2.4592,2.4592,2.4592,2.4851,2.5102,2.5646,2.6254,2.7519,2.5845,2.4156,2.7051,2.8301,2.8301,2.8301,2.8301,2.8301,2.8301,2.8301,2.8301,2.8301,2.8301,2.8301,2.8301,2.8301,2.8301,2.8301,2.8301,2.8301,2.8301,2.8301,2.8301,2.8301,2.8301,2.8301,2.8301,2.8428,2.8652,2.9062,2.9453,2.9902,3.0332,3.0674,3.084,3.0928,3.0928,3.0928,3.0928,3.0928,3.0928,3.0928,3.0928,3.0928,3.0928,3.0928,3.0928,3.0928,3.0928,3.0928,3.0928,3.1123,3.1445,3.1738,3.1953,3.2197,3.2568,3.291,3.3076,3.3308,3.3357,3.3377,3.3386,3.3386,3.3386,3.3386,3.3386,3.3386,3.3386,3.3386,3.3386,3.3355,3.1643,2.9124,2.8106,2.6414,2.4061,2.3254,2.334,2.3754,2.4022,2.4209,2.4362,2.4476,2.4559,2.4592,2.4592,2.4592,2.4592,2.4592,2.4592,2.4592,2.4592,2.4592,2.4592,2.4592,2.4592,2.4592,2.4592,2.4592,2.4592,2.4592,2.4592,2.4592,2.4592,2.4592,2.4592,2.4592,2.4592,2.4592,2.474,2.4991,2.5573,2.643,2.7483,2.5187,2.4044,2.706,2.8301,2.8301,2.8301,2.8301,2.8301,2.8301,2.8301,2.8301,2.8301,2.8301,2.8301,2.8301,2.8301,2.8301,2.8301,2.8301,2.8301,2.8301,2.8301,2.8301,2.8301,2.8301,2.831,2.8457,2.8584,2.8887,2.9307,2.9766,3.0166,3.0644,3.0889,3.0928,3.0928,3.0928,3.0928,3.0928,3.0928,3.0928,3.0928,3.0928,3.0928,3.0928,3.0928,3.0928,3.0928,3.0928,3.0928,3.0967,3.1123,3.1592,3.2003,3.2423,3.2812,3.291,3.3115,3.3269,3.3377,3.3386,3.3386,3.3386,3.3386,3.3386,3.3386,3.3386,3.3386,3.3386,3.3386,3.3345,3.3019,3.1313,2.9115,2.7677,2.6555,2.4094,2.296,2.3034,2.338,2.3774,2.3988,2.4088,2.4322,2.4392,2.4486,2.4486,2.4592,2.4592,2.4592,2.4592,2.4592,2.4592,2.4592,2.4592,2.4592,2.4592,2.4592,2.4592,2.4592,2.4592,2.4592,2.4592,2.4592,2.4592,2.4592,2.4592,2.4592,2.4592,2.4592,2.4592,2.4777,2.5212,2.5822,2.6707,2.5187,2.4053,2.706,2.8301,2.8301,2.8301,2.8301,2.8301,2.8301,2.8301,2.8301,2.8301,2.8301,2.8301,2.8301,2.8301,2.8301,2.8301,2.8301,2.8301,2.8301,2.8301,2.8301,2.8301,2.834,2.8408,2.8672,2.8838,2.9121,2.9463,2.9852,3.0273,3.0664,3.0928,3.0928,3.0928,3.0928,3.0928,3.0928,3.0928,3.0928,3.0928,3.0928,3.0928,3.0928,3.0928,3.0928,3.0928,3.0928,3.0928,3.0928,3.1319,3.1954,3.2159,3.2658,3.3086,3.3318,3.3369,3.3377,3.3386,3.3386,3.3386,3.3386,3.3386,3.3386,3.3386,3.3386,3.3386,3.3386,3.3386,3.3114,3.2027,3.0287,2.855,2.6972,2.5383,2.3359,2.29,2.2967,2.3034,2.3394,2.3587,2.3728,2.4015,2.4262,2.4306,2.4399,2.4499,2.4579,2.4572,2.4592,2.4592,2.4592,2.4592,2.4592,2.4592,2.4592,2.4592,2.4592,2.4592,2.4592,2.4592,2.4592,2.4592,2.4592,2.4592,2.4592,2.4592,2.4592,2.4592,2.4592,2.4592,2.4666,2.5345,2.6028,2.4405,2.4064,2.7033,2.8301,2.8301,2.8301,2.8301,2.8301,2.8301,2.8301,2.8301,2.8301,2.8301,2.8301,2.8301,2.8301,2.8301,2.8301,2.8301,2.8301,2.8301,2.8301,2.8301,2.831,2.8369,2.8643,2.8877,2.9258,2.9502,2.9814,3.0146,3.0547,3.0771,3.0928,3.0928,3.0928,3.0928,3.0928,3.0928,3.0928,3.0928,3.0928,3.0928,3.0928,3.0928,3.0928,3.0928,3.0928,3.0928,3.0928,3.0928,3.1328,3.1964,3.2257,3.2539,3.3269,3.3377,3.3377,3.3386,3.3386,3.3386,3.3386,3.3386,3.3386,3.3386,3.3386,3.3386,3.3386,3.3386,3.3355,3.3019,3.1794,3.0101,2.8328,2.6314,2.4783,2.3393,2.3126,2.2927,2.2933,2.2986,2.32,2.3449,2.3703,2.3901,2.4022,2.4162,2.4286,2.4412,2.4506,2.4546,2.4592,2.4592,2.4592,2.4592,2.4592,2.4592,2.4592,2.4592,2.4592,2.4592,2.4592,2.4592,2.4592,2.4592,2.4592,2.4592,2.4592,2.4592,2.4592,2.4592,2.4592,2.4592,2.4666,2.5316,2.3961,2.4627,2.7195,2.8301,2.8301,2.8301,2.8301,2.8301,2.8301,2.8301,2.8301,2.8301,2.8301,2.8301,2.8301,2.8301,2.8301,2.8301,2.8301,2.8301,2.8301,2.8301,2.834,2.8379,2.8623,2.8928,2.9258,2.958,2.999,3.0322,3.0547,3.0879,3.0888,3.0928,3.0928,3.0928,3.0928,3.0928,3.0928,3.0928,3.0928,3.0928,3.0928,3.0928,3.0928,3.0928,3.0928,3.0928,3.0928,3.0928,3.0928,3.1328,3.2032,3.2237,3.2578,3.3203,3.3386,3.3386,3.3386,3.3386,3.3386,3.3386,3.3386,3.3386,3.3386,3.3386,3.3386,3.3386,3.3386,3.3187,3.2502,3.1079,2.9213,2.7404,2.5719,2.4358,2.3256,2.303,2.29,2.2927,2.2947,2.2927,2.3148,2.3368,2.3562,2.3703,2.3861,2.4075,2.4269,2.4392,2.4506,2.4572,2.4592,2.4592,2.4592,2.4592,2.4592,2.4592,2.4592,2.4592,2.4592,2.4592,2.4592,2.4592,2.4592,2.4592,2.4592,2.4592,2.4592,2.4592,2.4592,2.4592,2.4592,2.4592,2.4666,2.4401,2.6073,2.7645,2.8301,2.8301,2.8301,2.8301,2.8301,2.8301,2.8301,2.8301,2.8301,2.8301,2.8301,2.8301,2.8301,2.8301,2.8301,2.8301,2.8301,2.8301,2.832,2.8428,2.8652,2.8906,2.9141,2.957,2.998,3.0283,3.0615,3.0771,3.0889,3.0928,3.0928,3.0928,3.0928,3.0928,3.0928,3.0928,3.0928,3.0928,3.0928,3.0928,3.0928,3.0928,3.0928,3.0928,3.0928,3.0928,3.0928,3.0928,3.1328,3.2013,3.2179,3.2619,3.3193,3.3386,3.3386,3.3386,3.3386,3.3386,3.3386,3.3386,3.3386,3.3386,3.3386,3.3386,3.3386,3.3386,3.2765,3.1387,2.945,2.8131,2.6839,2.5416,2.3863,2.3058,2.2996,2.29,2.29,2.29,2.29,2.29,2.3141,2.3248,2.3388,2.3614,2.3834,2.4135,2.4322,2.4452,2.4546,2.4586,2.4592,2.4592,2.4592,2.4592,2.4592,2.4592,2.4592,2.4592,2.4592,2.4592,2.4592,2.4592,2.4592,2.4592,2.4592,2.4592,2.4592,2.4592,2.4592,2.4592,2.4592,2.4592,2.5748,2.7492,2.8094,2.8301,2.8301,2.8301,2.8301,2.8301,2.8301,2.8301,2.8301,2.8301,2.8301,2.8301,2.8301,2.8301,2.8301,2.8301,2.8301,2.8301,2.8301,2.8437,2.8633,2.8887,2.9142,2.9629,3.0088,3.04,3.0664,3.081,3.0879,3.0928,3.0928,3.0928,3.0928,3.0928,3.0928,3.0928,3.0928,3.0928,3.0928,3.0928,3.0928,3.0928,3.0928,3.0928,3.0928,3.0928,3.0928,3.0928,3.0928,3.1426,3.1983,3.212,3.2559,3.3232,3.3328,3.3357,3.3386,3.3386,3.3386,3.3386,3.3386,3.3386,3.3386,3.3386,3.3386,3.3386,3.3386,3.2797,3.2397,3.0012,2.7875,2.6639,2.5147,2.3461,2.29,2.29,2.29,2.29,2.29,2.29,2.29,2.292,2.2994,2.3087,2.3327,2.3607,2.3895,2.4155,2.4295,2.4402,2.4399,2.4519,2.4526,2.4552,2.4586,2.4592,2.4592,2.4592,2.4592,2.4592,2.4592,2.4592,2.4592,2.4592,2.4592,2.4592,2.4592,2.4592,2.4592,2.4592,2.4592,2.4592,2.4592,2.6383,2.8043,2.8242,2.8301,2.8301,2.8301,2.8301,2.8301,2.8301,2.8301,2.8301,2.8301,2.8301,2.8301,2.8301,2.8301,2.8301,2.8301,2.8301,2.8301,2.834,2.8555,2.8828,2.9141,2.9492,3.0098,3.0391,3.0615,3.083,3.0908,3.0928,3.0928,3.0928,3.0928,3.0928,3.0928,3.0928,3.0928,3.0928,3.0928,3.0928,3.0928,3.0928,3.0928,3.0928,3.0928,3.0928,3.0928,3.0928,3.0928,3.0996,3.1279,3.1689,3.208,3.2441,3.291,3.3211,3.325,3.3347,3.3386,3.3386,3.3386,3.3386,3.3386,3.3386,3.3386,3.3386,3.3386,3.3386,3.3228,3.2819,2.9906,2.7701,2.6373,2.4419,2.29,2.29,2.29,2.29,2.29,2.29,2.29,2.29,2.29,2.292,2.3021,2.3227,2.344,2.3601,2.3834,2.4028,2.4122,2.4182,2.4292,2.4439,2.4406,2.4399,2.4592,2.4592,2.4592,2.4592,2.4592,2.4592,2.4592,2.4592,2.4592,2.4592,2.4592,2.4592,2.4592,2.4592,2.4592,2.4592,2.4592,2.4592,2.6113,2.7689,2.8115,2.8271,2.8291,2.8301,2.8301,2.8301,2.8301,2.8301,2.8301,2.8301,2.8301,2.8301,2.8301,2.8301,2.8301,2.8301,2.8301,2.8301,2.8408,2.8603,2.8984,2.9385,2.9824,3.0225,3.0547,3.0791,3.0889,3.0918,3.0928,3.0928,3.0928,3.0928,3.0928,3.0928,3.0928,3.0928,3.0928,3.0928,3.0928,3.0928,3.0928,3.0928,3.0928,3.0928,3.0928,3.0928,3.0928,3.0928,3.0928,3.1162,3.1543,3.1621,3.2021,3.2705,3.2793,3.2988,3.334,3.3357,3.3386,3.3386,3.3386,3.3386,3.3386,3.3386,3.3386,3.3386,3.3386,3.2556,3.1143,2.9335,2.7693,2.5946,2.4026,2.29,2.29,2.29,2.29,2.29,2.29,2.29,2.29,2.29,2.29,2.2966,2.3166,2.33,2.3374,2.3541,2.3748,2.3841,2.3915,2.4055,2.4182,2.4202,2.4269,2.4459,2.4566,2.4532,2.4566,2.4592,2.4592,2.4592,2.4592,2.4592,2.4592,2.4592,2.4592,2.4592,2.4592,2.4592,2.4592,2.4592,2.4592,2.6609,2.7702,2.7839,2.8064,2.8271,2.8301,2.8301,2.8301,2.8301,2.8301,2.8301,2.8301,2.8301,2.8301,2.8301,2.8301,2.8301,2.8301,2.8301,2.832,2.8535,2.8975,2.9355,2.9736,3.0195,3.0576,3.0888,3.0928,3.0918,3.0928,3.0928,3.0928,3.0928,3.0928,3.0928,3.0928,3.0928,3.0928,3.0928,3.0928,3.0928,3.0928,3.0928,3.0928,3.0928,3.0928,3.0928,3.0928,3.0928,3.0928,3.0928,3.1084,3.1396,3.1445,3.1737,3.2266,3.2423,3.2578,3.2969,3.3162,3.3377,3.3367,3.3377,3.3377,3.3386,3.3386,3.3386,3.3386,3.3386,3.246,3.0973,2.9246,2.7569,2.5778,2.4155,2.3195,2.29,2.29,2.29,2.29,2.29,2.29,2.29,2.29,2.29,2.29,2.3026,2.304,2.3086,2.328,2.3445,2.3567,2.3654,2.3788,2.3917,2.3901,2.4035,2.4255,2.4346,2.4386,2.4446,2.4546,2.4592,2.4592,2.4592,2.4592,2.4592,2.4592,2.4592,2.4592,2.4592,2.4592,2.4592,2.4592,2.4592,2.6797,2.7467,2.7633,2.7936,2.8262,2.8301,2.8301,2.8301,2.8301,2.8301,2.8301,2.8301,2.8301,2.8301,2.8301,2.8301,2.8301,2.8301,2.8301,2.8359,2.8684,2.9111,2.9579,3.0038,3.0381,3.08,3.0928,3.0928,3.0928,3.0928,3.0928,3.0928,3.0928,3.0928,3.0928,3.0928,3.0928,3.0928,3.0928,3.0928,3.0928,3.0928,3.0928,3.0928,3.0928,3.0928,3.0928,3.0928,3.0928,3.0928,3.0937,3.1016,3.123,3.1357,3.1533,3.1837,3.2169,3.2325,3.2598,3.2959,3.3115,3.3123,3.3279,3.3377,3.3386,3.3386,3.3386,3.3386,3.3386,3.2365,3.095,2.9222,2.747,2.5711,2.4188,2.3229,2.29,2.29,2.29,2.29,2.29,2.29,2.29,2.29,2.29,2.29,2.2907,2.29,2.29,2.3046,2.3178,2.328,2.334,2.344,2.3541,2.3607,2.3774,2.4008,2.4128,2.4179,2.4396,2.4466,2.4532,2.4592,2.4592,2.4592,2.4592,2.4592,2.4592,2.4592,2.4592,2.4592,2.4592,2.4592,2.4592,2.6611,2.7031,2.7497,2.7888,2.8223,2.8271,2.8301,2.8301,2.8301,2.8301,2.8301,2.8301,2.8301,2.8301,2.8301,2.8301,2.8301,2.8301,2.8301,2.8457,2.8791,2.9209,2.9619,3.0097,3.0518,3.081,3.0928,3.0928,3.0928,3.0928,3.0928,3.0928,3.0928,3.0928,3.0928,3.0928,3.0928,3.0928,3.0928,3.0928,3.0928,3.0928,3.0928,3.0928,3.0928,3.0928,3.0928,3.0928,3.0928,3.0928,3.0937,3.0937,3.0947,3.0928,3.1162,3.1475,3.1915,3.2101,3.2228,3.2549,3.2734,3.2822,3.3135,3.3279,3.3386,3.3386,3.3386,3.3386,3.3355,3.2205,3.0968,2.9222,2.747,2.5719,2.3958,2.3297,2.2962,2.29,2.29,2.29,2.29,2.29,2.29,2.29,2.29,2.29,2.29,2.29,2.29,2.29,2.2993,2.2986,2.304,2.3073,2.3173,2.33,2.3474,2.3701,2.3888,2.4008,2.4209,2.4376,2.4442,2.4472,2.4566,2.4592,2.4592,2.4592,2.4592,2.4592,2.4592,2.4592,2.4592,2.4592,2.4592,2.6147,2.6602,2.7031,2.7451,2.7888,2.8174,2.8301,2.8301,2.8301,2.8301,2.8301,2.8301,2.8301,2.8301,2.8301,2.8301,2.8301,2.8301,2.8301,2.8545,2.9014,2.9355,2.9813,3.0312,3.0722,3.0869,3.0928,3.0928,3.0928,3.0928,3.0928,3.0928,3.0928,3.0928,3.0928,3.0928,3.0928,3.0928,3.0928,3.0928,3.0928,3.0928,3.0928,3.0928,3.0928,3.0928,3.0928,3.0928,3.0928,3.0928,3.0928,3.0928,3.0928,3.0928,3.1016,3.1074,3.1426,3.1719,3.1777,3.2109,3.2384,3.2452,3.2744,3.3125,3.3259,3.3347,3.3347,3.3386,3.3323,3.2438,3.0959,2.9213,2.747,2.5719,2.406,2.3167,2.29,2.29,2.29,2.29,2.29,2.29,2.29,2.29,2.29,2.29,2.29,2.29,2.29,2.29,2.29,2.29,2.2914,2.2987,2.2974,2.3033,2.32,2.338,2.3581,2.3761,2.3908,2.4075,2.4249,2.4402,2.4486,2.4559,2.4592,2.4592,2.4592,2.4592,2.4592,2.4592,2.4592,2.4592,2.4592,2.5962,2.6441,2.6836,2.7353,2.7927,2.8184,2.8301,2.8301,2.8301,2.8301,2.8301,2.8301,2.8301,2.8301,2.8301,2.8301,2.8301,2.831,2.8379,2.876,2.9276,2.96,3.0058,3.0507,3.083,3.0928,3.0928,3.0928,3.0928,3.0928,3.0928,3.0928,3.0928,3.0928,3.0928,3.0928,3.0928,3.0928,3.0928,3.0928,3.0928,3.0928,3.0928,3.0928,3.0928,3.0928,3.0928,3.0928,3.0928,3.0928,3.0928,3.0928,3.0928,3.0928,3.0928,3.0957,3.1094,3.126,3.1338,3.166,3.1846,3.2052,3.2305,3.2598,3.2949,3.3094,3.3259,3.3386,3.3219,3.2692,3.095,2.9213,2.7462,2.5678,2.4358,2.2996,2.29,2.29,2.29,2.29,2.29,2.29,2.29,2.29,2.29,2.29,2.29,2.29,2.29,2.29,2.29,2.29,2.29,2.292,2.29,2.29,2.2999,2.3173,2.3333,2.35,2.3627,2.3814,2.4042,2.4262,2.4432,2.4506,2.4586,2.4592,2.4592,2.4592,2.4592,2.4592,2.4592,2.4592,2.4592,2.5942,2.6357,2.6826,2.75,2.8232,2.8291,2.8301,2.8301,2.8301,2.8301,2.8301,2.8301,2.8301,2.8301,2.8301,2.8301,2.8301,2.8301,2.8506,2.8926,2.9336,2.9755,3.0166,3.0635,3.0879,3.0928,3.0928,3.0928,3.0928,3.0928,3.0928,3.0928,3.0928,3.0928,3.0928,3.0928,3.0928,3.0928,3.0928,3.0928,3.0928,3.0928,3.0928,3.0928,3.0928,3.0928,3.0928,3.0928,3.0928,3.0928,3.0928,3.0928,3.0928,3.0928,3.0928,3.0928,3.0957,3.0976,3.1055,3.1299,3.1416,3.1611,3.1895,3.211,3.2383,3.291,3.3154,3.324,3.3146,3.299,3.1643,3.006,2.8386,2.6606,2.5087,2.3727,2.2928,2.2928,2.29,2.29,2.29,2.29,2.29,2.29,2.29,2.29,2.29,2.29,2.29,2.29,2.29,2.29,2.29,2.29,2.29,2.29,2.29,2.2993,2.314,2.32,2.3293,2.3547,2.3848,2.4108,2.4339,2.4486,2.4572,2.4586,2.4592,2.4592,2.4592,2.4592,2.4592,2.4592,2.4592,2.5767,2.5942,2.6699,2.75,2.8242,2.8301,2.8301,2.8301,2.8301,2.8301,2.8301,2.8301,2.8301,2.8301,2.8301,2.8301,2.8301,2.832,2.8564,2.8955,2.9394,2.9882,3.0234,3.0684,3.0898,3.0928,3.0928,3.0928,3.0928,3.0928,3.0928,3.0928,3.0928,3.0928,3.0928,3.0928,3.0928,3.0928,3.0928,3.0928,3.0928,3.0928,3.0928,3.0928,3.0928,3.0928,3.0928,3.0928,3.0928,3.0928,3.0928,3.0928,3.0928,3.0928,3.0928,3.0928,3.0928,3.0928,3.0957,3.1025,3.1094,3.1201,3.1406,3.1572,3.1934,3.2568,3.2949,3.3037,3.3058,3.2932,3.2397,3.0877,2.9303,2.7528,2.5778,2.4419,2.3058,2.2928,2.29,2.29,2.29,2.29,2.29,2.29,2.29,2.29,2.29,2.29,2.29,2.29,2.29,2.29,2.29,2.29,2.29,2.29,2.29,2.29,2.3014,2.2999,2.2993,2.3307,2.3647,2.4001,2.4275,2.4372,2.4492,2.4586,2.4592,2.4592,2.4592,2.4592,2.4592,2.4592,2.4592,2.5708,2.5825,2.6625,2.7393,2.8005,2.8239,2.8301,2.8301,2.8301,2.8301,2.8301,2.8301,2.8301,2.8301,2.8301,2.8301,2.8301,2.8301,2.873,2.9197,2.9491,3.0009,3.0419,3.0791,3.0869,3.0928,3.0928,3.0928,3.0928,3.0928,3.0928,3.0928,3.0928,3.0928,3.0928,3.0928,3.0928,3.0928,3.0928,3.0928,3.0928,3.0928,3.0928,3.0928,3.0928,3.0928,3.0928,3.0928,3.0928,3.0928,3.0928,3.0928,3.0928,3.0928,3.0928,3.0928,3.0928,3.0928,3.0928,3.0928,3.0928,3.1006,3.1045,3.126,3.1318,3.1914,3.251,3.2676,3.3203,3.3146,3.2724,3.1474,2.9767,2.8032,2.6247,2.4689,2.3556,2.2893,2.29,2.29,2.29,2.29,2.29,2.29,2.29,2.29,2.29,2.29,2.29,2.29,2.29,2.29,2.29,2.29,2.29,2.29,2.29,2.29,2.29,2.2927,2.2953,2.318,2.346,2.3748,2.4028,2.4269,2.4389,2.4472,2.4579,2.4592,2.4592,2.4592,2.4592,2.4592,2.4592,2.5723,2.5913,2.668,2.7266,2.7721,2.8132,2.8301,2.8301,2.8301,2.8301,2.8301,2.8301,2.8301,2.8301,2.8301,2.8301,2.8301,2.8301,2.8826,2.9364,2.9559,3.0116,3.0576,3.0908,3.0928,3.0928,3.0928,3.0928,3.0928,3.0928,3.0928,3.0928,3.0928,3.0928,3.0928,3.0928,3.0928,3.0928,3.0928,3.0928,3.0928,3.0928,3.0928,3.0928,3.0928,3.0928,3.0928,3.0928,3.0928,3.0928,3.0928,3.0928,3.0928,3.0928,3.0928,3.0928,3.0928,3.0928,3.0928,3.0928,3.0928,3.0937,3.0928,3.0967,3.1025,3.1387,3.1973,3.25,3.3037,3.3192,3.274,3.2237,3.0498,2.8196,2.6447,2.4757,2.3727,2.29,2.29,2.29,2.29,2.29,2.29,2.29,2.29,2.29,2.29,2.29,2.29,2.29,2.29,2.29,2.29,2.29,2.29,2.29,2.29,2.29,2.29,2.29,2.2934,2.3053,2.322,2.3372,2.3681,2.3961,2.4229,2.4389,2.4452,2.4559,2.4592,2.4592,2.4592,2.4592,2.4592,2.5923,2.6309,2.6791,2.7266,2.7712,2.8115,2.8301,2.8301,2.8301,2.8301,2.8301,2.8301,2.8301,2.8301,2.8301,2.8301,2.8301,2.831,2.8828,2.9481,2.9588,3.0175,3.0693,3.0928,3.0928,3.0928,3.0928,3.0928,3.0928,3.0928,3.0928,3.0928,3.0928,3.0928,3.0928,3.0928,3.0928,3.0928,3.0928,3.0928,3.0928,3.0928,3.0928,3.0928,3.0928,3.0928,3.0928,3.0928,3.0928,3.0928,3.0928,3.0928,3.0928,3.0928,3.0928,3.0928,3.0928,3.0928,3.0928,3.0928,3.0928,3.0928,3.0928,3.0928,3.1025,3.123,3.1768,3.2257,3.2725,3.3125,3.293,3.3075,3.1771,2.8353,2.5886,2.4358,2.3065,2.29,2.29,2.29,2.29,2.29,2.29,2.29,2.29,2.29,2.29,2.29,2.29,2.29,2.29,2.29,2.29,2.29,2.29,2.29,2.29,2.29,2.29,2.29,2.29,2.2907,2.3061,2.3207,2.3365,2.3619,2.3879,2.4189,2.4359,2.4466,2.4559,2.4592,2.4592,2.4592,2.4592]},{"header":{"parameterUnit":"m.s-1","parameterCategory":1,"la1":31.0,"la2":29.5877,"lo1":-88.7671,"lo2":-86.6584,"dy":0.0162,"dx":0.0185,"nx":115,"ny":88,"refTime":"2023-05-23T12:00:00:Z","depth":0,"parameterNumber":3,"parameterNumberName":"V-component_of_WINDS"},"data":[0.0,0.0,0.0,0.0,0.0,0.0,0.0,0.0,0.0,0.0,0.0,0.0,0.0,0.0,0.0,0.0,0.0,0.0,0.0,0.0,0.0,0.0,0.0,0.0,0.0,0.0,0.0,0.0,0.0,0.0,0.0,0.0,0.0,0.0,0.0,0.0,0.0,0.0,0.0,0.0,0.0,0.0,0.0,0.0,0.0,0.0,0.0,0.0,0.0,0.0,0.0,0.0,0.0,0.0,0.0,0.0,0.0,0.0,0.0,0.0,0.0,0.0,0.0,0.0,0.0,0.0,0.0,0.0,0.0,0.0,0.0,0.0,0.0,0.0,0.0,0.0,0.0,0.0,0.0,0.0,0.0,0.0,0.0,0.0,0.0,0.0,0.0,0.0,0.0,0.0,0.0,0.0,0.0,0.0,0.0,0.0,0.0,0.0,0.0,0.0,0.0,0.0,0.0,0.0,0.0,0.0,0.0,0.0,0.0,0.0,0.0,0.0,0.0,0.0,0.0,0.0,0.0,0.0,0.0,0.0,0.0,0.0,0.0,0.0,0.0,0.0,0.0,0.0,0.0,0.0,0.0,0.0,0.0,0.0,0.0,0.0,0.0,0.0,0.0,0.0,0.0,0.0,0.0,0.0,0.0,0.0,0.0,0.0,0.0,0.0,0.0,0.0,0.0,0.0,0.0,0.0,0.0,0.0,0.0,0.0,0.0,0.0,0.0,0.0,0.0,0.0,0.0,0.0,0.0,0.0,0.0,0.0,0.0,0.0,0.0,0.0,0.0,0.0,0.0,0.0,0.0,0.0,0.0,0.0,0.0,0.0,0.0,0.0,0.0,0.0,0.0,0.0,0.0,0.0,0.0,0.0,0.0,0.0,0.0,0.0,0.0,0.0,0.0,0.0,0.0,0.0,0.0,0.0,0.0,0.0,0.0,0.0,0.0,0.0,0.0,0.0,0.0,0.0,0.0,0.0,0.0,0.0,0.0,0.0,0.0,0.0,0.0,0.0,0.0,0.0,0.0,0.0,0.0,0.0,0.0,0.0,0.0,0.0,0.0,0.0,0.0,0.0,0.0,0.0,0.0,0.0,0.0,0.0,0.0,0.0,0.0,0.0,0.0,0.0,0.0,0.0,0.0,0.0,0.0,0.0,0.0,0.0,0.0,0.0,0.0,0.0,0.0,0.0,0.0,0.0,0.0,0.0,0.0,0.0,0.0,0.0,0.0,0.0,0.0,0.0,0.0,0.0,0.0,0.0,0.0,0.0,0.0,0.0,0.0,0.0,0.0,0.0,0.0,0.0,0.0,0.0,0.0,0.0,0.0,0.0,0.0,0.0,0.0,0.0,0.0,0.0,0.0,0.0,0.0,0.0,0.0,0.0,0.0,0.0,0.0,0.0,0.0,0.0,0.0,0.0,0.0,0.0,0.0,0.0,0.0,0.0,0.0,0.0,0.0,0.0,0.0,0.0,0.0,0.0,0.0,0.0,0.0,0.0,0.0,0.0,0.0,0.0,0.0,0.0,0.0,0.0,0.0,0.0,0.0,0.0,0.0,0.0,0.0,0.0,0.0,0.0,0.0,0.0,0.0,0.0,0.0,0.0,0.0,0.0,0.0,0.0,0.0,0.0,0.0,0.0,0.0,0.0,0.0,0.0,0.0,0.0,0.0,0.0,0.0,0.0,0.0,0.0,0.0,0.0,0.0,0.0,0.0,0.0,0.0,0.0,0.0,0.0,0.0,0.0,0.0,0.0,0.0,0.0,0.0,0.0,0.0,0.0,0.0,0.0,0.0,0.0,0.0,0.0,0.0,0.0,0.0,0.0,0.0,0.0,0.0,0.0,0.0,0.0,0.0,0.0,0.0,0.0,0.0,0.0,0.0,0.0,0.0,0.0,0.0,0.0,0.0,0.0,0.0,0.0,0.0,0.0,0.0,0.0,0.0,0.0,0.0,0.0,0.0,0.0,0.0,0.0,0.0,0.0,0.0,0.0,0.0,0.0,0.0,0.0,0.0,0.0,0.0,0.0,0.0,0.0,0.0,0.0,0.0,0.0,0.0,0.0,0.0,0.0,0.0,0.0,0.0,0.0,0.0,0.0,0.0,0.0,0.0,0.0,0.0,0.0,0.0,0.0,0.0,0.0,0.0,0.0,0.0,0.0,0.0,0.0,0.0,0.0,0.0,0.0,0.0,0.0,0.0,0.0,0.0,0.0,0.0,0.0,0.0,0.0,0.0,0.0,0.0,0.0,0.0,0.0,0.0,0.0,0.0,0.0,0.0,0.0,0.0,0.0,0.0,0.0,0.0,0.0,0.0,0.0,0.0,0.0,0.0,0.0,0.0,0.0,0.0,0.0,0.0,0.0,0.0,0.0,0.0,0.0,0.0,0.0,0.0,0.0,0.0,0.0,0.0,0.0,0.0,0.0,0.0,0.0,0.0,0.0,0.0,0.0,0.0,0.0,0.0,0.0,0.0,0.0,0.0,0.0,0.0,0.0,0.0,0.0,0.0,0.0,0.0,0.0,0.0,0.0,0.0,0.0,0.0,0.0,0.0,0.0,0.0,0.0,0.0,0.0,0.0,0.0,0.0,0.0,0.0,0.0,0.0,0.0,0.0,0.0,0.0,0.0,0.0,0.0,0.0,0.0,0.0,0.0,0.0,0.0,0.0,0.0,0.0,0.0,0.0,0.0,0.0,0.0,0.0,0.0,0.0,0.0,0.0,0.0,0.0,0.0,0.0,0.0,0.0,0.0,0.0,0.0,0.0,0.0,0.0,0.0,0.0,0.0,0.0,0.0,0.0,0.0,0.0,0.0,0.0,0.0,0.0,0.0,0.0,0.0,0.0,0.0,0.0,0.0,0.0,0.0,0.0,0.0,0.0,0.0,0.0,0.0,0.0,0.0,0.0,0.0,0.0,0.0,0.0,0.0,0.0,0.0,0.0,0.0,0.0,0.0,0.0,0.0,0.0,0.0,0.0,0.0,0.0,0.0,0.0,0.0,0.0,0.0,0.0,0.0,0.0,0.0,0.0,0.0,0.0,0.0,0.0,0.0,0.0,0.0,0.0,0.0,0.0,0.0,0.0,0.0,0.0,0.0,0.0,0.0,0.0,0.0,0.0,0.0,0.0,0.0,0.0,0.0,0.0,0.0,0.0,0.0,0.0,0.0,0.0,0.0,0.0,0.0,0.0,0.0,0.0,0.0,0.0,0.0,0.0,0.0,0.0,0.0,0.0,0.0,0.0,0.0,0.0,0.0,0.0,0.0,0.0,0.0,0.0,0.0,0.0,0.0,0.0,0.0,0.0,0.0,0.0,0.0,0.0,0.0,0.0,0.0,0.0,0.0,0.0,0.0,0.0,0.0,0.0,0.0,0.0,0.0,0.0,0.0,0.0,0.0,0.0,0.0,0.0,0.0,0.0,0.0,0.0,0.0,0.0,0.0,0.0,0.0,0.0,0.0,0.0,0.0,0.0,0.0,0.0,0.0,0.0,0.0,0.0,0.0,0.0,0.0,0.0,0.0,0.0,0.0,0.0,0.0,0.0,0.0,0.0,0.0,0.0,0.0,0.0,0.0,0.0,0.0,0.0,0.0,0.0,0.0,0.0,0.0,0.0,0.0,0.0,0.0,0.0,0.0,0.0,0.0,0.0,0.0,0.0,0.0,0.0,0.0,0.0,0.0,0.0,0.0,0.0,0.0,0.0,0.0,0.0,0.0,0.0,0.0,0.0,0.0,0.0,0.0,0.0,0.0,0.0,0.0,0.0,0.0,0.0,0.0,0.0,0.0,0.0,0.0,0.0,0.0,0.0,0.0,0.0,0.0,0.0,0.0,0.0,0.0,0.0,0.0,0.0,0.0,0.0,0.0,0.0,0.0,0.0,0.0,0.0,0.0,0.0,0.0,0.0,0.0,0.0,0.0,0.0,0.0,0.0,0.0,0.0,0.0,0.0,0.0,0.0,0.0,0.0,0.0,0.0,0.0,0.0,0.0,0.0,0.0,0.0,0.0,0.0,0.0,0.0,0.0,0.0,0.0,0.0,0.0,0.0,0.0,0.0,0.0,0.0,0.0,0.0,0.0,0.0,0.0,0.0,0.0,0.0,0.0,0.0,0.0,0.0,0.0,0.0,0.0,0.0,0.0,0.0,0.0,0.0,0.0,0.0,0.0,0.0,0.0,0.0,0.0,0.0,0.0,0.0,0.0,0.0,0.0,0.0,0.0,0.0,0.0,0.0,0.0,0.0,0.0,0.0,0.0,0.0,0.0,0.0,0.0,2.9273,0.0,0.0,0.0,0.0,0.0,0.0,0.0,0.0,0.0,0.0,0.0,0.0,0.0,0.0,0.0,0.0,0.0,0.0,0.0,0.0,0.0,0.0,0.0,0.0,0.0,0.0,0.0,0.0,0.0,0.0,0.0,0.0,0.0,0.0,0.0,0.0,0.0,0.0,0.0,0.0,0.0,0.0,0.0,0.0,0.0,0.0,0.0,0.0,0.0,0.0,0.0,0.0,0.0,0.0,0.0,0.0,0.0,0.0,0.0,0.0,0.0,0.0,0.0,0.0,0.0,0.0,0.0,0.0,0.0,0.0,0.0,0.0,0.0,0.0,0.0,0.0,0.0,0.0,0.0,0.0,0.0,0.0,0.0,0.0,0.0,0.0,0.0,0.0,0.0,0.0,0.0,0.0,0.0,0.0,0.0,0.0,0.0,0.0,0.0,0.0,0.0,0.0,0.0,0.0,0.0,0.0,0.0,0.0,0.0,0.0,2.7539,2.7921,2.8561,2.8892,2.8927,0.0,0.0,0.0,0.0,0.0,0.0,0.0,0.0,0.0,0.0,0.0,0.0,0.0,0.0,0.0,0.0,0.0,0.0,0.0,0.0,0.0,0.0,0.0,0.0,0.0,0.0,0.0,0.0,0.0,0.0,0.0,0.0,0.0,0.0,0.0,0.0,0.0,0.0,0.0,0.0,0.0,0.0,0.0,0.0,0.0,0.0,0.0,0.0,0.0,0.0,0.0,0.0,0.0,0.0,0.0,0.0,0.0,0.0,0.0,0.0,0.0,0.0,0.0,0.0,0.0,0.0,0.0,0.0,0.0,0.0,0.0,0.0,0.0,0.0,0.0,0.0,0.0,0.0,0.0,0.0,0.0,0.0,0.0,0.0,0.0,0.0,0.0,0.0,0.0,0.0,0.0,0.0,0.0,0.0,0.0,0.0,0.0,0.0,0.0,0.0,0.0,0.0,0.0,0.0,0.0,0.0,0.0,0.0,0.0,0.0,0.0,0.0,2.8319,2.863,2.8919,0.0,0.0,0.0,0.0,0.0,0.0,0.0,0.0,0.0,0.0,0.0,0.0,0.0,0.0,0.0,0.0,0.0,0.0,0.0,0.0,0.0,0.0,0.0,0.0,0.0,0.0,0.0,0.0,0.0,0.0,0.0,0.0,0.0,0.0,0.0,0.0,0.0,0.0,0.0,0.0,0.0,0.0,0.0,0.0,0.0,0.0,0.0,0.0,0.0,0.0,0.0,0.0,0.0,0.0,0.0,0.0,0.0,0.0,0.0,0.0,0.0,0.0,0.0,0.0,0.0,0.0,0.0,0.0,0.0,0.0,0.0,0.0,0.0,0.0,0.0,0.0,0.0,0.0,0.0,0.0,0.0,0.0,0.0,0.0,0.0,0.0,0.0,0.0,0.0,0.0,0.0,0.0,0.0,0.0,0.0,0.0,0.0,0.0,0.0,0.0,0.0,0.0,0.0,0.0,0.0,0.0,0.0,0.0,0.0,0.0,2.8064,2.9191,2.8756,0.0,3.0048,0.0,0.0,0.0,0.0,0.0,0.0,0.0,0.0,0.0,0.0,0.0,0.0,0.0,0.0,0.0,0.0,0.0,0.0,0.0,0.0,0.0,0.0,0.0,0.0,0.0,0.0,0.0,0.0,0.0,0.0,0.0,0.0,0.0,0.0,0.0,0.0,0.0,0.0,0.0,0.0,0.0,0.0,0.0,0.0,0.0,0.0,0.0,0.0,0.0,0.0,0.0,0.0,0.0,0.0,0.0,0.0,0.0,0.0,0.0,0.0,0.0,0.0,0.0,0.0,0.0,0.0,0.0,0.0,0.0,0.0,0.0,0.0,0.0,0.0,0.0,0.0,0.0,0.0,0.0,0.0,0.0,0.0,0.0,0.0,0.0,0.0,0.0,0.0,0.0,0.0,0.0,0.0,0.0,0.0,0.0,0.0,0.0,0.0,0.0,0.0,0.0,0.0,0.0,0.0,0.0,0.0,0.0,0.0,0.0,0.0,2.799,2.885,2.9316,2.981,0.0,0.0,0.0,0.0,0.0,0.0,0.0,0.0,0.0,0.0,0.0,0.0,0.0,0.0,0.0,0.0,0.0,0.0,0.0,0.0,0.0,0.0,0.0,0.0,0.0,0.0,0.0,0.0,0.0,0.0,0.0,0.0,0.0,0.0,0.0,0.0,0.0,0.0,0.0,0.0,0.0,0.0,0.0,0.0,0.0,0.0,0.0,0.0,0.0,0.0,0.0,0.0,0.0,0.0,0.0,0.0,0.0,0.0,0.0,0.0,0.0,0.0,0.0,0.0,0.0,0.0,0.0,0.0,0.0,0.0,0.0,0.0,0.0,0.0,0.0,0.0,0.0,0.0,0.0,0.0,0.0,0.0,0.0,0.0,0.0,0.0,0.0,0.0,0.0,0.0,0.0,0.0,0.0,0.0,0.0,0.0,0.0,0.0,0.0,0.0,0.0,0.0,0.0,0.0,0.0,0.0,0.0,0.0,0.0,0.0,2.7685,2.7956,2.8744,2.9761,3.0383,3.0539,0.0,0.0,0.0,0.0,0.0,0.0,0.0,0.0,0.0,0.0,0.0,0.0,0.0,0.0,0.0,0.0,0.0,0.0,0.0,0.0,0.0,0.0,0.0,0.0,0.0,0.0,0.0,0.0,0.0,0.0,0.0,0.0,0.0,0.0,0.0,0.0,0.0,0.0,0.0,0.0,0.0,0.0,0.0,0.0,0.0,0.0,0.0,0.0,0.0,0.0,0.0,0.0,0.0,0.0,0.0,0.0,0.0,0.0,0.0,0.0,0.0,0.0,0.0,0.0,0.0,0.0,0.0,0.0,0.0,0.0,0.0,0.0,0.0,0.0,0.0,0.0,0.0,0.0,0.0,0.0,0.0,0.0,0.0,0.0,0.0,0.0,0.0,0.0,0.0,0.0,0.0,0.0,0.0,0.0,0.0,0.0,0.0,0.0,0.0,0.0,0.0,0.0,0.0,0.0,0.0,0.0,0.0,0.0,2.8391,2.791,2.8158,2.9321,2.9957,3.0559,0.0,0.0,0.0,0.0,0.0,0.0,0.0,0.0,0.0,0.0,0.0,0.0,0.0,0.0,0.0,0.0,0.0,0.0,0.0,0.0,0.0,0.0,0.0,0.0,0.0,0.0,0.0,0.0,0.0,0.0,0.0,0.0,0.0,0.0,0.0,0.0,0.0,0.0,0.0,0.0,0.0,0.0,0.0,0.0,0.0,0.0,0.0,0.0,0.0,0.0,0.0,0.0,0.0,0.0,0.0,0.0,0.0,0.0,0.0,0.0,0.0,0.0,0.0,0.0,0.0,0.0,0.0,0.0,0.0,0.0,0.0,0.0,0.0,0.0,0.0,0.0,0.0,0.0,0.0,0.0,0.0,0.0,0.0,0.0,0.0,0.0,0.0,0.0,0.0,0.0,0.0,0.0,0.0,0.0,0.0,0.0,0.0,0.0,0.0,0.0,0.0,0.0,0.0,0.0,0.0,0.0,0.0,0.0,0.0,2.7922,2.8079,2.8567,2.9372,2.9607,3.0187,0.0,0.0,0.0,0.0,0.0,0.0,0.0,0.0,0.0,0.0,0.0,0.0,0.0,0.0,0.0,0.0,0.0,0.0,0.0,0.0,0.0,0.0,0.0,0.0,0.0,0.0,0.0,0.0,0.0,0.0,0.0,0.0,0.0,0.0,0.0,0.0,0.0,0.0,0.0,0.0,0.0,0.0,0.0,0.0,0.0,0.0,0.0,0.0,0.0,0.0,0.0,0.0,0.0,0.0,0.0,0.0,0.0,0.0,0.0,0.0,0.0,0.0,0.0,0.0,0.0,0.0,0.0,0.0,0.0,0.0,0.0,0.0,0.0,0.0,0.0,0.0,0.0,0.0,0.0,0.0,0.0,0.0,0.0,0.0,0.0,0.0,0.0,0.0,0.0,0.0,0.0,0.0,0.0,0.0,0.0,0.0,0.0,0.0,0.0,0.0,0.0,0.0,0.0,0.0,0.0,0.0,0.0,0.0,0.0,2.791,0.0,2.8989,2.9356,2.9395,2.987,0.0,0.0,0.0,0.0,0.0,0.0,0.0,0.0,0.0,0.0,0.0,0.0,0.0,0.0,0.0,0.0,0.0,0.0,0.0,0.0,0.0,0.0,0.0,0.0,0.0,0.0,0.0,0.0,0.0,0.0,0.0,0.0,0.0,0.0,0.0,0.0,0.0,0.0,0.0,0.0,0.0,0.0,0.0,0.0,0.0,0.0,0.0,0.0,0.0,0.0,0.0,0.0,0.0,0.0,0.0,0.0,0.0,0.0,0.0,0.0,0.0,0.0,0.0,0.0,0.0,0.0,0.0,0.0,0.0,0.0,0.0,0.0,0.0,0.0,0.0,0.0,0.0,0.0,0.0,0.0,0.0,0.0,0.0,0.0,0.0,0.0,0.0,0.0,0.0,0.0,0.0,0.0,0.0,0.0,0.0,0.0,0.0,0.0,0.0,0.0,0.0,0.0,0.0,0.0,0.0,0.0,0.0,0.0,2.7922,2.8475,2.9058,2.9361,2.9406,2.9356,2.9662,0.0,0.0,0.0,0.0,0.0,0.0,0.0,0.0,0.0,0.0,0.0,0.0,0.0,0.0,0.0,0.0,0.0,0.0,0.0,0.0,0.0,0.0,0.0,0.0,0.0,0.0,0.0,0.0,0.0,0.0,0.0,0.0,0.0,0.0,0.0,0.0,0.0,0.0,0.0,0.0,0.0,0.0,0.0,0.0,0.0,0.0,0.0,0.0,0.0,0.0,0.0,0.0,0.0,0.0,0.0,0.0,0.0,0.0,0.0,0.0,0.0,0.0,0.0,0.0,0.0,0.0,0.0,0.0,0.0,0.0,0.0,0.0,0.0,0.0,0.0,0.0,0.0,0.0,0.0,0.0,0.0,0.0,0.0,0.0,0.0,0.0,0.0,0.0,0.0,0.0,0.0,0.0,0.0,0.0,0.0,0.0,0.0,0.0,0.0,0.0,0.0,0.0,0.0,0.0,0.0,0.0,0.0,0.0,0.0,2.8515,2.8689,2.9184,2.9935,2.881,2.9011,0.0,0.0,0.0,0.0,0.0,0.0,0.0,0.0,0.0,0.0,0.0,0.0,0.0,0.0,0.0,0.0,0.0,0.0,0.0,0.0,0.0,0.0,0.0,0.0,0.0,0.0,0.0,0.0,0.0,0.0,0.0,0.0,0.0,0.0,0.0,0.0,0.0,0.0,0.0,0.0,0.0,0.0,0.0,0.0,0.0,0.0,0.0,0.0,0.0,0.0,0.0,0.0,0.0,0.0,0.0,0.0,0.0,0.0,0.0,0.0,0.0,0.0,0.0,0.0,0.0,0.0,0.0,0.0,0.0,0.0,0.0,0.0,0.0,0.0,0.0,0.0,0.0,0.0,0.0,0.0,0.0,0.0,0.0,0.0,0.0,0.0,0.0,0.0,0.0,0.0,0.0,0.0,0.0,0.0,0.0,0.0,0.0,0.0,0.0,0.0,0.0,0.0,0.0,0.0,0.0,0.0,0.0,0.0,0.0,2.918,2.9395,2.9761,3.0293,2.9198,2.9323,3.0777,0.0,0.0,0.0,0.0,0.0,0.0,0.0,0.0,0.0,0.0,0.0,0.0,0.0,0.0,0.0,0.0,0.0,0.0,0.0,0.0,0.0,0.0,0.0,0.0,0.0,0.0,0.0,0.0,0.0,0.0,0.0,0.0,0.0,0.0,0.0,0.0,0.0,0.0,0.0,0.0,0.0,0.0,0.0,0.0,0.0,0.0,0.0,0.0,0.0,0.0,0.0,0.0,0.0,0.0,0.0,0.0,0.0,0.0,0.0,0.0,0.0,0.0,0.0,0.0,0.0,0.0,0.0,0.0,0.0,0.0,0.0,0.0,0.0,0.0,0.0,0.0,0.0,0.0,0.0,0.0,0.0,0.0,0.0,0.0,0.0,0.0,0.0,0.0,0.0,0.0,0.0,0.0,0.0,0.0,0.0,0.0,0.0,0.0,0.0,0.0,0.0,0.0,0.0,0.0,0.0,0.0,0.0,0.0,3.0351,3.0898,3.0908,3.0366,3.0251,3.0299,0.0,0.0,0.0,0.0,0.0,0.0,0.0,0.0,0.0,0.0,0.0,0.0,0.0,0.0,0.0,0.0,0.0,0.0,0.0,0.0,0.0,0.0,0.0,0.0,0.0,0.0,0.0,0.0,0.0,0.0,0.0,0.0,0.0,0.0,0.0,0.0,0.0,0.0,0.0,0.0,0.0,0.0,0.0,0.0,0.0,0.0,0.0,0.0,0.0,0.0,0.0,0.0,0.0,0.0,0.0,0.0,0.0,0.0,0.0,0.0,0.0,0.0,0.0,0.0,0.0,0.0,0.0,0.0,0.0,0.0,0.0,0.0,0.0,0.0,0.0,0.0,0.0,0.0,0.0,0.0,0.0,0.0,0.0,0.0,0.0,0.0,0.0,0.0,0.0,0.0,0.0,0.0,0.0,0.0,0.0,0.0,0.0,0.0,0.0,0.0,0.0,0.0,0.0,0.0,0.0,0.0,0.0,0.0,0.0,3.0918,3.1121,3.1114,3.0938,3.0102,3.0059,0.0,0.0,0.0,0.0,0.0,0.0,0.0,0.0,0.0,0.0,0.0,0.0,0.0,0.0,0.0,0.0,0.0,0.0,0.0,0.0,0.0,0.0,0.0,0.0,0.0,0.0,0.0,0.0,0.0,0.0,0.0,0.0,0.0,0.0,0.0,0.0,0.0,0.0,0.0,0.0,0.0,0.0,0.0,0.0,0.0,0.0,0.0,0.0,0.0,0.0,0.0,0.0,0.0,0.0,0.0,0.0,0.0,0.0,0.0,0.0,0.0,0.0,0.0,0.0,0.0,0.0,0.0,0.0,0.0,0.0,0.0,0.0,0.0,0.0,0.0,0.0,0.0,0.0,0.0,0.0,0.0,0.0,0.0,0.0,0.0,0.0,0.0,0.0,0.0,0.0,0.0,0.0,0.0,0.0,0.0,0.0,0.0,0.0,0.0,0.0,0.0,0.0,0.0,0.0,0.0,0.0,0.0,0.0,2.9865,3.0791,3.1075,3.119,3.119,3.0528,3.062,0.0,0.0,0.0,0.0,0.0,0.0,0.0,0.0,0.0,0.0,0.0,0.0,0.0,0.0,0.0,0.0,0.0,0.0,0.0,0.0,0.0,0.0,0.0,0.0,0.0,0.0,0.0,0.0,0.0,0.0,0.0,0.0,0.0,0.0,0.0,0.0,0.0,0.0,0.0,0.0,0.0,0.0,0.0,0.0,0.0,0.0,0.0,0.0,0.0,0.0,0.0,0.0,0.0,0.0,0.0,0.0,0.0,0.0,0.0,0.0,0.0,0.0,0.0,0.0,0.0,0.0,0.0,0.0,0.0,0.0,0.0,0.0,0.0,0.0,0.0,0.0,0.0,0.0,0.0,0.0,0.0,0.0,0.0,0.0,0.0,0.0,0.0,0.0,0.0,0.0,0.0,0.0,0.0,0.0,0.0,0.0,0.0,0.0,0.0,0.0,0.0,0.0,0.0,0.0,0.0,0.0,0.0,0.0,2.9777,3.0503,3.1036,3.1352,3.142,3.1352,3.1623,0.0,0.0,0.0,0.0,0.0,0.0,0.0,0.0,0.0,0.0,0.0,0.0,0.0,0.0,0.0,0.0,0.0,0.0,0.0,0.0,0.0,0.0,0.0,0.0,0.0,0.0,0.0,0.0,0.0,0.0,0.0,0.0,0.0,0.0,0.0,0.0,0.0,0.0,0.0,0.0,0.0,0.0,0.0,0.0,0.0,0.0,0.0,0.0,0.0,0.0,0.0,0.0,0.0,0.0,0.0,0.0,0.0,0.0,0.0,0.0,0.0,0.0,0.0,0.0,0.0,0.0,0.0,0.0,0.0,0.0,0.0,0.0,0.0,0.0,0.0,0.0,0.0,0.0,0.0,0.0,0.0,0.0,0.0,0.0,0.0,0.0,0.0,0.0,0.0,0.0,0.0,0.0,0.0,0.0,0.0,0.0,0.0,0.0,0.0,0.0,0.0,0.0,0.0,0.0,0.0,0.0,0.0,0.0,3.0196,3.183,3.1996,3.2361,3.2905,3.2357,3.2141,0.0,0.0,0.0,0.0,0.0,0.0,0.0,0.0,0.0,0.0,0.0,0.0,0.0,0.0,0.0,0.0,0.0,0.0,0.0,0.0,0.0,0.0,0.0,0.0,0.0,0.0,0.0,0.0,0.0,0.0,0.0,0.0,0.0,0.0,0.0,0.0,0.0,0.0,0.0,0.0,0.0,0.0,0.0,0.0,0.0,0.0,0.0,0.0,3.4981,0.0,0.0,0.0,0.0,0.0,0.0,0.0,0.0,0.0,0.0,0.0,0.0,0.0,0.0,0.0,0.0,0.0,0.0,0.0,0.0,0.0,0.0,0.0,0.0,0.0,0.0,0.0,0.0,0.0,0.0,0.0,0.0,0.0,0.0,0.0,0.0,0.0,0.0,0.0,0.0,0.0,0.0,0.0,0.0,0.0,0.0,0.0,0.0,0.0,0.0,0.0,0.0,0.0,0.0,0.0,0.0,0.0,0.0,0.0,3.0838,3.1867,3.2498,3.3017,3.3362,3.3366,3.3332,0.0,0.0,0.0,0.0,0.0,0.0,0.0,0.0,0.0,0.0,0.0,0.0,0.0,0.0,0.0,0.0,0.0,0.0,0.0,0.0,0.0,0.0,0.0,0.0,0.0,0.0,0.0,0.0,0.0,0.0,0.0,0.0,0.0,0.0,0.0,0.0,0.0,0.0,0.0,0.0,0.0,0.0,0.0,0.0,0.0,0.0,0.0,0.0,0.0,0.0,0.0,0.0,0.0,0.0,0.0,0.0,0.0,0.0,0.0,0.0,0.0,0.0,0.0,0.0,0.0,0.0,0.0,0.0,0.0,0.0,0.0,0.0,0.0,0.0,0.0,0.0,0.0,0.0,0.0,0.0,0.0,0.0,0.0,0.0,0.0,0.0,0.0,0.0,0.0,0.0,0.0,0.0,0.0,0.0,0.0,0.0,0.0,0.0,0.0,0.0,0.0,0.0,0.0,0.0,0.0,0.0,0.0,3.0438,3.1473,3.189,3.2988,3.3615,3.3734,3.4336,3.4675,3.4669,0.0,0.0,0.0,0.0,0.0,0.0,0.0,0.0,0.0,0.0,0.0,0.0,0.0,0.0,0.0,0.0,0.0,0.0,0.0,0.0,0.0,0.0,0.0,0.0,0.0,0.0,0.0,0.0,0.0,0.0,0.0,0.0,0.0,0.0,0.0,0.0,0.0,0.0,3.2706,3.329,0.0,0.0,0.0,0.0,0.0,0.0,0.0,0.0,3.6055,0.0,0.0,0.0,0.0,0.0,0.0,0.0,0.0,0.0,0.0,0.0,0.0,0.0,0.0,0.0,0.0,0.0,0.0,0.0,0.0,0.0,0.0,0.0,0.0,0.0,0.0,0.0,0.0,0.0,0.0,0.0,0.0,0.0,0.0,0.0,0.0,0.0,0.0,0.0,0.0,0.0,0.0,0.0,0.0,0.0,0.0,0.0,0.0,0.0,0.0,0.0,0.0,0.0,0.0,0.0,0.0,3.0166,3.0482,3.1734,3.3926,3.4203,3.4607,3.5211,3.5357,3.5425,3.5425,0.0,0.0,0.0,0.0,0.0,0.0,0.0,0.0,0.0,0.0,0.0,0.0,0.0,0.0,0.0,0.0,0.0,0.0,0.0,0.0,0.0,0.0,0.0,0.0,0.0,0.0,0.0,0.0,0.0,0.0,0.0,0.0,0.0,0.0,0.0,0.0,0.0,0.0,0.0,3.4263,3.4578,0.0,0.0,0.0,0.0,0.0,0.0,0.0,0.0,3.6415,0.0,0.0,0.0,0.0,0.0,0.0,0.0,0.0,0.0,0.0,0.0,0.0,0.0,0.0,0.0,0.0,0.0,0.0,0.0,0.0,0.0,0.0,0.0,0.0,0.0,0.0,0.0,0.0,0.0,0.0,0.0,0.0,0.0,0.0,0.0,0.0,0.0,0.0,0.0,0.0,0.0,0.0,0.0,0.0,0.0,0.0,0.0,0.0,0.0,0.0,0.0,0.0,0.0,0.0,0.0,3.0468,3.1487,3.2796,3.4433,3.4878,3.5239,3.5583,3.5628,3.5628,0.0,0.0,0.0,0.0,0.0,0.0,0.0,0.0,0.0,0.0,0.0,0.0,0.0,0.0,0.0,0.0,0.0,0.0,0.0,0.0,0.0,0.0,0.0,0.0,0.0,0.0,0.0,0.0,0.0,0.0,0.0,0.0,0.0,0.0,0.0,0.0,0.0,0.0,0.0,0.0,3.5385,3.5845,3.6584,0.0,0.0,0.0,0.0,0.0,0.0,3.7783,3.806,0.0,0.0,0.0,0.0,0.0,0.0,0.0,0.0,0.0,0.0,0.0,0.0,0.0,0.0,0.0,0.0,0.0,0.0,0.0,0.0,0.0,0.0,0.0,0.0,0.0,0.0,0.0,0.0,0.0,0.0,0.0,0.0,0.0,0.0,0.0,0.0,0.0,0.0,0.0,0.0,0.0,0.0,0.0,0.0,0.0,0.0,0.0,0.0,0.0,0.0,0.0,0.0,0.0,0.0,0.0,3.0743,3.2514,3.3857,3.4692,3.5306,3.5628,3.5628,3.5628,3.5628,0.0,0.0,0.0,0.0,0.0,0.0,0.0,0.0,0.0,0.0,0.0,0.0,0.0,0.0,0.0,0.0,0.0,0.0,0.0,0.0,0.0,0.0,0.0,0.0,0.0,0.0,0.0,0.0,0.0,0.0,0.0,0.0,0.0,0.0,0.0,0.0,0.0,0.0,0.0,0.0,0.0,3.6828,3.7471,3.7254,0.0,0.0,0.0,0.0,3.9165,3.9364,0.0,0.0,0.0,0.0,0.0,0.0,0.0,0.0,0.0,0.0,0.0,0.0,0.0,0.0,0.0,0.0,0.0,0.0,0.0,0.0,0.0,0.0,0.0,0.0,0.0,0.0,0.0,0.0,0.0,0.0,0.0,0.0,0.0,0.0,0.0,0.0,0.0,0.0,0.0,0.0,0.0,0.0,0.0,0.0,0.0,0.0,0.0,0.0,0.0,0.0,0.0,0.0,0.0,0.0,0.0,0.0,3.147,3.2861,3.4196,3.5408,3.5566,3.5628,3.5628,3.5628,3.5628,0.0,0.0,0.0,0.0,0.0,0.0,0.0,0.0,0.0,0.0,0.0,0.0,0.0,0.0,0.0,0.0,0.0,0.0,0.0,0.0,0.0,0.0,0.0,0.0,0.0,0.0,0.0,0.0,0.0,0.0,0.0,0.0,0.0,0.0,0.0,0.0,0.0,0.0,0.0,0.0,0.0,3.663,3.6722,3.7829,3.8629,0.0,0.0,4.0713,4.0929,4.0929,0.0,0.0,0.0,0.0,0.0,0.0,0.0,0.0,0.0,0.0,0.0,0.0,0.0,0.0,0.0,0.0,0.0,0.0,0.0,0.0,0.0,0.0,0.0,0.0,0.0,0.0,0.0,0.0,0.0,0.0,0.0,0.0,0.0,0.0,0.0,0.0,0.0,0.0,0.0,0.0,0.0,0.0,0.0,0.0,0.0,0.0,0.0,0.0,0.0,0.0,0.0,0.0,0.0,0.0,0.0,3.0784,3.2156,3.3449,3.4807,3.6219,3.6265,3.6293,3.6299,3.6276,3.6299,0.0,0.0,0.0,0.0,0.0,0.0,0.0,0.0,0.0,0.0,0.0,0.0,0.0,0.0,0.0,0.0,0.0,0.0,0.0,0.0,0.0,0.0,0.0,0.0,0.0,0.0,0.0,0.0,0.0,0.0,0.0,0.0,0.0,0.0,0.0,0.0,0.0,0.0,0.0,0.0,0.0,0.0,3.9156,3.9793,0.0,0.0,0.0,4.1352,4.1762,0.0,0.0,0.0,0.0,0.0,0.0,0.0,0.0,0.0,0.0,0.0,0.0,0.0,0.0,0.0,0.0,0.0,0.0,0.0,0.0,0.0,0.0,0.0,0.0,0.0,0.0,0.0,0.0,0.0,0.0,0.0,0.0,0.0,0.0,0.0,0.0,0.0,0.0,0.0,0.0,0.0,0.0,0.0,0.0,0.0,0.0,0.0,0.0,0.0,0.0,0.0,0.0,0.0,0.0,0.0,0.0,0.0,3.2842,3.4306,3.5633,3.6761,3.6987,3.7083,3.7071,3.7071,0.0,0.0,0.0,0.0,0.0,0.0,0.0,0.0,0.0,0.0,0.0,0.0,0.0,0.0,0.0,0.0,0.0,0.0,0.0,0.0,0.0,0.0,0.0,0.0,0.0,0.0,0.0,3.2766,0.0,0.0,0.0,0.0,0.0,0.0,0.0,0.0,0.0,0.0,0.0,0.0,0.0,0.0,4.0575,4.1141,4.1513,4.1739,0.0,0.0,4.2233,4.281,4.3323,4.391,0.0,0.0,0.0,0.0,0.0,0.0,0.0,0.0,0.0,0.0,0.0,0.0,0.0,0.0,0.0,0.0,0.0,0.0,0.0,0.0,0.0,0.0,0.0,0.0,0.0,0.0,0.0,0.0,0.0,0.0,0.0,0.0,0.0,0.0,0.0,0.0,0.0,0.0,0.0,0.0,0.0,0.0,0.0,0.0,0.0,0.0,0.0,0.0,0.0,0.0,0.0,0.0,0.0,0.0,0.0,3.3561,3.5585,3.6694,3.6829,3.7483,3.7826,3.7826,3.7809,3.7838,0.0,0.0,0.0,0.0,0.0,0.0,0.0,0.0,0.0,0.0,0.0,0.0,0.0,0.0,0.0,0.0,0.0,0.0,0.0,0.0,0.0,0.0,0.0,0.0,0.0,0.0,0.0,0.0,0.0,0.0,0.0,0.0,0.0,0.0,0.0,0.0,0.0,0.0,0.0,0.0,0.0,4.1151,4.1208,4.2376,4.3239,0.0,0.0,4.4392,4.4412,4.4471,4.4516,4.4584,0.0,0.0,0.0,0.0,0.0,0.0,0.0,0.0,0.0,0.0,0.0,0.0,0.0,0.0,0.0,0.0,0.0,0.0,0.0,0.0,0.0,0.0,0.0,0.0,0.0,0.0,0.0,0.0,0.0,0.0,0.0,0.0,0.0,0.0,0.0,0.0,0.0,0.0,0.0,0.0,0.0,0.0,0.0,0.0,0.0,0.0,0.0,0.0,0.0,0.0,0.0,0.0,0.0,3.3356,3.4888,3.6144,3.7224,3.812,3.8425,3.8565,3.8582,3.8565,3.8565,0.0,0.0,0.0,0.0,0.0,0.0,0.0,0.0,0.0,0.0,0.0,0.0,0.0,0.0,0.0,0.0,0.0,0.0,0.0,0.0,0.0,0.0,0.0,0.0,0.0,0.0,0.0,0.0,3.4712,3.5405,3.6152,0.0,0.0,0.0,0.0,0.0,0.0,0.0,0.0,0.0,0.0,4.2548,4.2565,4.3474,0.0,0.0,4.4398,4.4584,4.4584,4.4584,4.4584,4.4584,4.4584,0.0,0.0,0.0,0.0,0.0,0.0,0.0,0.0,0.0,0.0,0.0,0.0,0.0,0.0,0.0,0.0,0.0,0.0,0.0,0.0,0.0,0.0,0.0,0.0,0.0,0.0,0.0,0.0,0.0,0.0,0.0,0.0,0.0,0.0,0.0,0.0,0.0,0.0,0.0,0.0,0.0,0.0,0.0,0.0,0.0,0.0,0.0,0.0,0.0,0.0,0.0,0.0,3.4156,3.6019,3.6977,3.7951,3.8971,3.922,3.9322,3.9322,3.9309,3.9339,0.0,0.0,0.0,0.0,0.0,0.0,0.0,0.0,0.0,0.0,0.0,0.0,0.0,0.0,0.0,0.0,0.0,0.0,0.0,0.0,0.0,0.0,0.0,0.0,0.0,0.0,0.0,0.0,3.6167,3.7079,3.7608,0.0,0.0,0.0,0.0,0.0,0.0,0.0,0.0,0.0,0.0,4.3761,4.3761,4.4245,4.4584,4.4584,4.4584,4.4584,4.4584,4.4584,4.4584,4.4584,0.0,0.0,0.0,0.0,0.0,0.0,0.0,0.0,0.0,0.0,0.0,0.0,0.0,0.0,0.0,0.0,0.0,0.0,0.0,0.0,0.0,0.0,0.0,0.0,0.0,0.0,0.0,0.0,0.0,0.0,2.7555,0.0,0.0,0.0,0.0,0.0,0.0,0.0,0.0,0.0,0.0,0.0,0.0,0.0,0.0,0.0,0.0,0.0,0.0,0.0,0.0,0.0,0.0,3.535,3.6771,3.8193,3.8949,3.9039,3.9694,4.0062,4.0062,4.0079,4.0066,4.0062,0.0,0.0,0.0,0.0,0.0,0.0,0.0,0.0,0.0,0.0,0.0,0.0,0.0,0.0,0.0,0.0,0.0,0.0,0.0,0.0,0.0,0.0,0.0,0.0,0.0,0.0,3.6553,3.8616,3.9956,0.0,0.0,0.0,0.0,0.0,0.0,0.0,0.0,0.0,0.0,4.4062,4.4564,4.4564,4.4584,4.4584,4.4584,4.4584,4.4584,4.4584,4.4584,4.4584,0.0,0.0,0.0,0.0,0.0,0.0,0.0,0.0,0.0,0.0,0.0,0.0,0.0,0.0,0.0,0.0,0.0,0.0,0.0,0.0,0.0,0.0,0.0,0.0,0.0,0.0,0.0,2.7585,2.7585,0.0,0.0,0.0,0.0,0.0,0.0,0.0,0.0,0.0,0.0,0.0,2.9264,2.925,0.0,0.0,0.0,0.0,0.0,0.0,0.0,0.0,0.0,0.0,0.0,0.0,3.5865,3.8162,3.8746,3.9237,3.9723,3.9977,4.0113,4.0113,4.0113,4.0113,4.0113,0.0,0.0,0.0,0.0,0.0,0.0,0.0,0.0,0.0,0.0,0.0,0.0,0.0,0.0,0.0,0.0,0.0,0.0,0.0,0.0,0.0,0.0,0.0,0.0,0.0,3.7586,0.0,0.0,0.0,0.0,0.0,0.0,0.0,0.0,0.0,0.0,0.0,4.4198,4.4198,4.4432,4.4584,4.4584,4.4584,4.4584,0.0,0.0,0.0,0.0,0.0,0.0,0.0,0.0,0.0,0.0,0.0,0.0,0.0,0.0,4.5751,4.477,4.4584,4.4736,4.5229,0.0,0.0,0.0,0.0,0.0,0.0,0.0,0.0,0.0,0.0,0.0,0.0,0.0,0.0,0.0,0.0,2.8304,0.0,0.0,0.0,0.0,0.0,0.0,0.0,0.0,2.9922,3.0148,3.0611,3.0597,3.0717,0.0,3.0955,3.0955,0.0,0.0,0.0,0.0,0.0,0.0,0.0,0.0,3.688,3.8905,3.9254,3.9745,4.0455,4.0489,4.0608,4.0857,4.0608,4.0489,4.0489,4.0248,4.0113,0.0,0.0,0.0,0.0,0.0,0.0,0.0,0.0,0.0,0.0,0.0,0.0,0.0,0.0,0.0,0.0,0.0,0.0,0.0,0.0,0.0,0.0,0.0,3.9287,0.0,0.0,0.0,0.0,0.0,0.0,0.0,0.0,0.0,4.3893,4.4279,4.4584,4.4584,4.4584,4.4584,4.4584,0.0,0.0,0.0,0.0,0.0,0.0,0.0,4.4973,4.499,4.5193,4.5362,4.5362,4.5768,4.6075,4.6092,0.0,0.0,4.5531,4.5362,4.5497,4.5974,4.6075,4.6227,4.6716,4.6786,4.6786,0.0,0.0,0.0,0.0,0.0,0.0,0.0,0.0,2.9593,2.9606,0.0,2.9638,0.0,0.0,0.0,0.0,0.0,2.9713,0.0,0.0,3.0642,3.1285,3.2467,3.2497,3.2856,3.3469,3.3425,3.344,3.3396,3.2276,0.0,0.0,0.0,0.0,0.0,0.0,3.8369,3.9094,3.9779,4.0489,4.1191,4.1238,4.1576,4.2215,4.161,4.1238,4.1221,4.0574,4.0197,4.0197,4.0197,0.0,0.0,0.0,0.0,0.0,0.0,0.0,0.0,0.0,0.0,0.0,0.0,0.0,0.0,0.0,0.0,0.0,0.0,0.0,0.0,4.0359,0.0,0.0,0.0,0.0,0.0,0.0,0.0,0.0,0.0,0.0,4.455,4.4567,4.4584,4.4584,0.0,0.0,0.0,0.0,4.4682,4.4685,4.4668,4.4668,4.4685,4.5263,4.5737,4.5737,0.0,0.0,4.6783,4.6817,4.6851,4.6819,4.6902,4.6853,4.6885,4.6783,4.6766,4.6834,4.6834,4.6836,4.6885,4.7022,4.6972,3.1713,0.0,0.0,0.0,0.0,2.9517,2.9608,2.9623,3.0072,3.0238,3.0268,3.0762,0.0,0.0,0.0,0.0,0.0,0.0,3.2004,3.2632,3.2632,3.2841,3.3215,3.3215,3.3305,3.3499,3.3499,3.3499,3.3515,3.3609,3.3411,3.2976,0.0,0.0,0.0,0.0,3.8852,4.0472,4.0781,4.1238,4.1948,4.1982,4.2097,4.23,4.2083,4.1982,4.1982,4.1792,4.1674,4.1674,4.1674,0.0,0.0,0.0,0.0,0.0,0.0,0.0,0.0,0.0,0.0,0.0,0.0,0.0,0.0,0.0,0.0,0.0,0.0,0.0,4.1277,4.2199,4.2863,0.0,0.0,0.0,0.0,0.0,0.0,0.0,0.0,0.0,4.4584,4.4584,4.4584,0.0,0.0,4.5382,4.5382,4.5836,4.6174,4.6174,0.0,0.0,0.0,4.6346,4.6481,4.6481,4.665,4.6786,4.6786,4.7225,4.7582,4.7582,4.8005,4.8359,4.8308,4.7496,4.7056,4.7445,4.7582,4.7784,4.824,4.8359,4.8359,3.3918,3.206,3.2073,3.1554,3.0833,3.1367,3.1446,3.118,3.1524,3.1704,3.1719,3.2108,3.2288,3.2273,3.2288,0.0,0.0,0.0,3.326,3.3904,3.4158,3.4427,3.4712,3.4936,3.5071,3.5055,3.504,3.5217,3.5565,3.5984,3.6151,3.6075,0.0,0.0,3.8084,3.8874,4.0035,4.155,4.1644,4.1999,4.2726,4.3047,4.3213,4.3196,4.2895,4.2743,4.2726,4.2455,4.2303,4.2303,4.2303,4.2303,0.0,0.0,0.0,0.0,0.0,0.0,0.0,0.0,0.0,0.0,0.0,4.0254,0.0,0.0,0.0,0.0,4.1894,4.2392,4.3139,4.3606,0.0,0.0,0.0,0.0,0.0,0.0,0.0,4.4584,4.4871,4.5041,4.5041,4.5294,4.5362,4.506,4.5669,4.6143,4.6126,0.0,4.6786,4.6786,4.6786,4.6786,4.6786,4.7056,4.7327,4.7646,4.7665,4.7665,4.7699,4.8071,4.8326,4.8377,4.8682,4.9018,4.9018,4.8257,4.7767,4.8225,4.8343,4.8496,4.8917,4.9018,4.9018,3.6176,3.6121,3.6273,3.4953,3.2943,3.4152,3.431,3.3683,3.3606,3.362,3.3651,3.368,3.3649,3.3649,3.3709,0.0,3.3754,3.3784,3.4173,3.4742,3.5355,3.5968,3.6598,3.712,3.7387,3.7404,3.7473,3.7916,3.8614,3.8743,3.9251,4.0032,3.8746,3.8779,4.0158,4.0926,4.1644,4.2367,4.2384,4.276,4.349,4.4215,4.4584,4.4567,4.3876,4.349,4.3474,4.2844,4.2486,4.2486,4.2486,4.2486,4.2472,0.0,0.0,0.0,0.0,0.0,0.0,0.0,0.0,0.0,0.0,0.0,0.0,0.0,0.0,0.0,4.3098,0.0,4.4547,4.4584,0.0,0.0,0.0,4.4618,4.4668,4.4668,4.4702,4.4767,0.0,0.0,4.5788,0.0,4.6821,4.6142,4.6542,4.6917,4.7041,4.7132,4.7101,4.7539,4.7352,4.7337,4.778,4.8226,4.8822,4.9385,4.9308,4.9308,4.9309,4.9218,4.9203,4.9223,4.9189,4.9221,4.9187,4.9221,4.9187,4.9204,4.9137,4.9103,4.9256,4.9306,4.9323,3.955,3.9112,4.0252,3.8526,3.5015,3.4783,3.4902,3.5186,3.4547,3.4575,3.5093,3.5071,3.5026,3.5055,3.5549,3.579,3.5805,3.6267,3.6567,3.6716,3.6881,3.706,3.7195,3.7313,3.7387,3.7439,3.8084,3.8482,3.8741,3.9376,4.0128,4.0867,4.056,4.0578,4.0953,4.1681,4.2405,4.3135,4.3135,4.3538,4.4296,4.4499,4.4584,4.4584,4.4415,4.4313,4.4296,4.4144,4.4042,4.4059,4.4056,4.4042,4.4073,4.3872,0.0,0.0,0.0,0.0,0.0,0.0,0.0,0.0,0.0,4.3135,4.3152,0.0,4.4042,0.0,4.4212,4.4398,4.4584,4.4584,0.0,0.0,4.4584,4.4821,4.5365,4.5432,4.5652,4.6225,4.6876,4.7119,4.6588,4.8111,4.9206,4.9045,4.8233,4.8025,4.9117,4.9312,4.9947,5.1378,5.128,5.1275,5.1665,5.2028,5.2144,5.2383,5.197,5.161,5.1578,5.1083,5.066,5.0677,5.0677,5.066,5.0643,5.0677,5.066,5.0626,5.0236,5.0016,5.0542,5.066,5.066,4.1427,4.1094,4.194,4.0906,3.8623,3.7923,3.7623,3.7639,3.7151,3.6971,3.6956,3.6542,3.6574,3.6951,3.7316,3.7268,3.6961,3.7664,3.7765,3.7419,3.7701,3.8047,3.8441,3.873,3.9088,3.946,3.9953,4.0372,4.0751,4.1231,4.1909,4.2698,4.2712,4.2729,4.271,4.2755,4.3166,4.3927,4.3944,4.4147,4.4581,4.4584,4.4584,4.4584,4.4584,4.4584,4.4584,4.4584,4.4584,4.4584,4.4584,4.4584,4.4584,4.4584,4.4584,0.0,0.0,0.0,0.0,0.0,0.0,0.0,0.0,0.0,0.0,0.0,4.4584,4.4584,4.4584,4.4584,4.4584,4.4888,4.5077,4.5091,4.5379,4.5751,4.6143,4.6459,4.6667,4.6794,4.7957,4.8646,4.8363,4.9907,5.121,5.1542,5.0902,5.0687,5.142,5.1622,5.2094,5.3266,5.3161,5.3022,5.3445,5.3499,5.3499,5.3472,5.3175,5.2895,5.2884,5.2245,5.1735,5.1719,5.1438,5.1218,5.1218,5.1218,5.1286,5.1556,5.1369,5.115,5.1184,5.1218,5.1218,4.2574,4.2587,4.2604,4.2604,4.2547,4.191,4.112,4.0275,4.0081,3.9578,3.8822,3.8069,3.8152,3.887,3.8948,3.8522,3.7765,3.8565,3.8561,3.7863,3.8419,3.9146,4.0005,4.0581,4.1247,4.1981,4.2109,4.2552,4.3291,4.3413,4.3844,4.457,4.4584,4.4584,4.455,4.3893,4.3893,4.4567,4.4584,4.4584,4.4584,4.4584,4.4584,4.4584,4.4584,4.4584,4.4584,4.4584,4.4584,4.4584,4.4584,4.4584,4.4584,4.4584,4.4584,0.0,4.4584,0.0,0.0,0.0,0.0,0.0,0.0,0.0,0.0,4.4685,4.4736,4.475,4.4821,4.4886,4.4886,4.5449,4.5838,4.5872,4.6413,4.6868,4.7084,4.768,4.7955,4.7576,4.9321,5.0593,5.0603,5.1865,5.3078,5.3637,5.3802,5.3896,5.4038,5.378,5.3667,5.3967,5.4082,5.4366,5.4361,5.4237,5.425,5.4175,5.4127,5.3936,5.4011,5.3391,5.2854,5.2812,5.2419,5.1907,5.1681,5.1761,5.2013,5.2577,5.263,5.2378,5.1791,5.1641,5.1488,4.4175,4.4161,4.4161,4.4161,4.4161,4.4018,4.3171,4.179,4.0543,3.9899,3.9747,3.9594,3.9593,3.9795,4.0338,4.0101,3.9329,4.0005,4.0235,4.0081,4.0204,4.0725,4.1548,4.1692,4.1836,4.2046,4.2707,4.3155,4.3321,4.402,4.4457,4.4584,4.4584,4.4584,4.4584,0.0,0.0,0.0,4.4584,4.4584,4.4584,4.4584,4.4584,4.4584,4.4584,0.0,4.4584,4.4584,4.4584,4.4584,4.4584,0.0,0.0,0.0,0.0,0.0,0.0,0.0,0.0,0.0,0.0,0.0,4.453,4.4584,4.4601,4.5128,4.55,4.55,4.6056,4.6394,4.6363,4.6498,4.6583,4.6614,4.6733,4.7259,4.8423,4.9237,5.0067,5.1247,5.274,5.3473,5.3015,5.4149,5.5101,5.5322,5.5875,5.6471,5.7,5.552,5.5128,5.6697,5.6909,5.706,5.7168,5.7018,5.6885,5.709,5.6626,5.6284,5.6206,5.5604,5.5097,5.5083,5.4936,5.4602,5.4048,5.4443,5.4565,5.424,5.4151,5.3943,5.3211,5.3044,5.3044,4.4584,0.0,4.4584,4.4584,0.0,4.4584,4.4158,4.3392,4.2608,4.2288,4.2213,4.1374,4.122,4.1633,4.1993,4.1659,4.0891,4.1645,4.1755,4.133,4.1346,4.1804,4.263,4.263,4.2878,4.3305,4.3741,4.3931,4.3946,4.4384,4.4584,4.4584,4.4584,4.4584,4.4615,4.4956,4.4973,4.4615,4.4584,4.4584,4.4584,4.4584,4.477,4.5125,0.0,0.0,0.0,0.0,0.0,0.0,0.0,0.0,0.0,0.0,0.0,4.4584,4.4584,4.4767,4.5108,4.5128,4.5297,4.565,4.5684,4.5531,4.5176,4.5821,4.6227,4.6244,4.6599,4.6786,4.6802,4.7445,4.8031,4.8411,4.9118,5.002,5.1064,5.1876,5.2475,5.2933,5.425,5.4995,5.4691,5.559,5.6432,5.6825,5.7207,5.7595,5.7826,5.7031,5.6799,5.7824,5.7978,5.7978,5.7978,5.7978,5.8198,5.8397,5.8293,5.8226,5.856,5.7992,5.7485,5.7439,5.7188,5.6688,5.5947,5.6055,5.6055,5.5366,5.5138,5.5056,5.4601,5.4008,5.3501,4.4584,4.4584,4.4584,4.4584,4.4584,4.4584,4.4584,4.4584,0.0,0.0,0.0,4.3092,4.2862,4.3532,4.3532,4.3046,4.2284,4.2986,4.2909,4.2237,4.2237,4.2692,4.3501,4.3532,4.3919,4.457,4.4584,4.4584,4.4584,4.4584,4.4584,4.4601,4.4719,4.4869,4.5024,4.5585,4.5585,4.5024,4.4973,4.4987,4.4987,4.4973,4.5277,4.5889,4.5906,4.6177,4.6769,4.6786,4.6786,4.6783,4.6227,4.5889,4.5889,4.5328,4.499,4.499,4.499,4.5246,4.5855,4.5906,4.616,4.6766,4.6921,4.6684,4.5957,4.6566,4.7056,4.7158,4.7293,4.746,4.7579,4.8646,4.9634,5.0267,5.156,5.2657,5.3389,5.4289,5.4565,5.4321,5.5333,5.6138,5.6211,5.6724,5.7302,5.7839,5.8067,5.832,5.8364,5.828,5.8105,5.826,5.8474,5.851,5.8455,5.851,5.8712,5.9306,5.9386,5.9655,6.0097,5.9892,5.9535,5.9351,5.8864,5.8051,5.7299,5.7088,5.6811,5.6065,5.5875,5.5909,5.5773,5.4839,5.4008,4.4584,4.4584,4.4584,4.4584,4.4584,4.4584,4.4584,4.4584,4.4584,4.4584,4.457,4.4338,4.4296,4.4429,4.4429,4.3931,4.3139,4.3246,4.3246,0.0,4.3108,4.3577,4.4398,4.4412,4.4485,4.4584,4.4584,4.4584,4.4584,4.4598,4.4584,4.4685,4.5229,4.587,4.6462,4.6597,4.6597,4.6513,4.6496,4.6481,4.6496,4.6496,4.6546,4.6633,4.6648,4.6682,4.6786,4.6802,4.6786,4.6786,4.6701,4.6665,4.6633,4.6515,4.6496,4.6496,4.6479,4.6515,4.6616,4.6648,4.6699,4.6817,4.738,4.743,4.6735,4.7312,4.802,4.8629,4.9204,4.9898,5.0507,5.071,5.094,5.113,5.1886,5.2713,5.3573,5.4844,5.5844,5.6281,5.7146,5.7626,5.7639,5.7779,5.7919,5.812,5.8682,5.9251,5.9667,5.9471,5.9086,5.9123,5.9618,5.9985,5.9875,6.0034,6.0034,6.0187,6.0224,6.0297,6.0554,6.0475,6.0359,6.028,5.969,5.8906,5.8169,5.7887,5.7567,5.6935,5.6822,5.6738,5.6789,5.6098,5.5465,4.4584,4.4584,4.4584,4.4584,4.4584,4.4584,4.4584,4.4584,4.4584,4.4584,4.4584,4.4584,4.4584,4.4584,4.4584,4.4384,4.4006,4.3989,4.4006,4.4006,4.4006,4.421,4.457,4.4584,4.4584,4.4584,4.4584,4.4584,4.4618,4.499,4.5196,4.5261,4.5923,4.6481,4.68,4.7192,4.7396,4.7394,4.7005,4.6786,4.6786,4.6786,4.6989,4.7363,4.7396,4.7597,4.797,4.8003,4.7986,4.7986,4.7614,4.738,4.738,4.7022,4.6786,4.6786,4.6786,4.6986,4.7363,4.7767,4.8173,4.856,4.89,4.9137,4.9204,4.912,4.9407,5.0102,5.0508,5.0845,5.1216,5.1938,5.2612,5.2996,5.4088,5.5128,5.5851,5.6504,5.7127,5.7468,5.7774,5.8162,5.8609,5.8646,5.8877,5.9208,5.9673,6.004,6.0401,6.0493,6.0334,5.9985,6.015,6.0352,6.0407,6.0389,6.0584,6.0951,6.1043,6.1245,6.1563,6.1692,6.1673,6.1655,6.1025,6.0466,5.9982,5.9198,5.8733,5.8827,5.83,5.8235,5.8462,5.8106,5.7175,4.4584,4.4584,4.4584,4.4584,4.4584,4.4584,4.4584,4.4584,4.4584,4.4584,4.4584,4.4584,4.4584,4.4584,4.4584,4.4584,4.4584,4.4584,4.4584,4.4584,4.4584,4.4584,4.4584,4.4584,4.4685,4.4838,4.4838,4.4939,4.5142,4.5669,4.6041,4.623,4.6769,4.7139,4.731,4.7853,4.8157,4.8124,4.7597,4.7293,4.7293,4.7293,4.7564,4.809,4.8157,4.8443,4.8968,4.9018,4.9018,4.8984,4.8462,4.814,4.8124,4.7614,4.7276,4.7293,4.7293,4.7614,4.8343,4.9087,4.9746,5.0287,5.0338,5.0659,5.1286,5.093,5.0811,5.1336,5.1438,5.1522,5.1891,5.2918,5.3975,5.4617,5.5978,5.6912,5.7613,5.805,5.8272,5.8272,5.84,5.8822,5.9288,5.9471,5.9783,6.0456,6.0676,6.0731,6.0951,6.152,6.1539,6.1172,6.0933,6.1025,6.0939,6.0994,6.1282,6.1814,6.1869,6.2108,6.2536,6.2738,6.2774,6.262,6.2257,6.184,6.1726,6.0909,6.0369,6.0691,6.0421,6.0129,6.0358,6.0049,5.8875,4.4584,4.4584,4.4584,4.4584,4.4584,4.4584,4.4584,4.4584,4.4584,4.4584,4.4584,4.4584,4.4584,4.4584,4.4584,4.4584,4.4584,4.4584,4.4584,4.4615,4.4584,4.4584,4.4635,4.4632,4.4956,4.5534,4.5602,4.5906,4.6462,4.6633,4.7022,4.7633,4.7768,4.8124,4.8682,4.8832,4.89,4.89,4.8832,4.8798,4.8798,4.8798,4.8832,4.89,4.89,4.8934,4.9001,4.9018,4.9018,4.9001,4.8952,4.8901,4.8884,4.8832,4.8798,4.8798,4.8798,4.9137,4.9846,5.0558,5.0981,5.1083,5.1083,5.1404,5.2131,5.2131,5.2114,5.2215,5.2199,5.2503,5.3229,5.3982,5.4476,5.4712,5.6059,5.6956,5.7273,5.8264,5.9074,5.9074,5.9618,6.0217,6.0242,6.0334,6.0664,6.1374,6.1484,6.1686,6.2205,6.2426,6.2609,6.2554,6.2554,6.2517,6.2462,6.2554,6.2499,6.2627,6.2701,6.2848,6.3013,6.3031,6.2848,6.3262,6.2839,6.2693,6.2774,6.2495,6.2376,6.2446,6.2377,6.2189,6.1635,6.1207,6.0185,4.4584,4.4584,4.4584,4.4584,4.4584,4.4584,4.4584,4.4584,4.4584,4.4584,4.4584,4.4584,4.4584,4.4584,4.4584,4.4584,4.4584,4.4584,4.4584,4.4649,4.5041,4.5261,4.528,4.5717,4.6073,4.6343,4.6346,4.6481,4.6834,4.7242,4.7819,4.8494,4.8546,4.8714,4.9001,4.9018,4.9018,4.9018,4.9018,4.9018,4.9018,4.9018,4.9018,4.9018,4.9018,4.9018,4.9052,4.9407,4.9644,4.9678,5.0067,5.0305,5.0305,5.0305,5.0305,5.0288,5.0305,5.0439,5.0728,5.1032,5.1387,5.181,5.186,5.2181,5.2892,5.301,5.301,5.301,5.2993,5.3179,5.3517,5.4171,5.4757,5.5347,5.667,5.7771,5.8257,5.9231,5.9912,5.993,6.0205,6.0621,6.1062,6.152,6.1912,6.2273,6.231,6.2456,6.2774,6.2811,6.3031,6.3447,6.3558,6.3306,6.2994,6.2811,6.3031,6.3429,6.3576,6.3631,6.4114,6.4279,6.4279,6.4224,6.3866,6.3828,6.4279,6.341,6.2964,6.3591,6.3642,6.3199,6.2375,6.1794,6.0788,4.521,4.5193,4.521,4.5193,4.5193,4.5193,4.521,4.5193,4.5193,4.521,4.5193,4.5193,4.521,4.5176,4.5007,4.4905,4.4922,4.5108,4.5193,4.5261,4.5771,4.6007,4.6058,4.6515,4.6904,4.7073,4.7107,4.7208,4.7428,4.7904,4.8479,4.8951,4.9018,4.9018,4.9018,4.9018,4.9018,4.9018,4.9018,4.9103,4.9272,4.9289,4.9306,4.9323,4.9509,4.961,4.9628,5.0118,5.0388,5.0405,5.093,5.1218,5.1218,5.1218,5.1218,5.1235,5.1387,5.1505,5.1505,5.1691,5.2046,5.2553,5.2621,5.2858,5.3365,5.3501,5.3501,5.3501,5.3687,5.3754,5.3585,5.4532,5.5444,5.606,5.7604,5.893,5.948,6.0224,6.0731,6.0731,6.1025,6.1233,6.1851,6.2383,6.2719,6.2738,6.2774,6.2939,6.3086,6.3215,6.3484,6.4273,6.442,6.42,6.3618,6.3618,6.3857,6.4127,6.442,6.4604,6.5209,6.5251,6.527,6.4778,6.4672,6.4884,6.5354,6.4624,6.4268,6.5295,6.5318,6.4434,6.3643,6.2847,6.202,4.6699,4.6682,4.6667,4.6614,4.6699,4.6631,4.665,4.6546,4.6631,4.665,4.6583,4.6614,4.665,4.658,4.5974,4.5669,4.5737,4.631,4.6563,4.658,4.6701,4.6766,4.6752,4.6786,4.7192,4.7819,4.7853,4.8157,4.8781,4.89,4.8968,4.9001,4.9018,4.9018,4.9018,4.9018,4.9018,4.9086,4.9086,4.9357,4.9981,5.0067,5.0117,5.0168,5.0694,5.0981,5.1032,5.1116,5.115,5.1167,5.1269,5.1286,5.1252,5.1286,5.1319,5.1336,5.1894,5.2266,5.235,5.2875,5.3331,5.3382,5.3348,5.3416,5.3484,5.3501,5.3534,5.3534,5.4126,5.4211,5.3957,5.5414,5.6673,5.7029,5.8896,6.0073,6.0322,6.1062,6.1484,6.163,6.2089,6.2426,6.2664,6.2774,6.2848,6.2866,6.2848,6.3123,6.3851,6.4047,6.4402,6.4976,6.5251,6.5233,6.5178,6.4793,6.4921,6.5228,6.5246,6.5325,6.5288,6.5307,6.538,6.5545,6.5922,6.6224,6.6515,6.6745,6.6889,6.7211,6.7012,6.6257,6.4586,6.4765,6.3817,4.6786,4.6786,4.6786,4.6786,4.6786,4.6786,4.6786,4.6786,4.6786,4.6786,4.6786,4.6786,4.6786,4.6817,4.7024,4.6853,4.6447,4.6699,4.6786,4.6868,4.7293,4.7513,4.7564,4.797,4.8325,4.8563,4.8612,4.8732,4.8968,4.9018,4.9018,4.9018,4.9018,4.9018,4.9018,4.9018,4.9221,4.9661,4.971,5.0067,5.0777,5.1251,5.1505,5.1488,5.1302,5.1218,5.1218,5.1641,5.1894,5.1894,5.2384,5.2672,5.2655,5.2672,5.2689,5.2689,5.2942,5.3078,5.3112,5.3348,5.3501,5.3501,5.3501,5.3501,5.3501,5.3518,5.3687,5.4126,5.4414,5.46,5.5128,5.6146,5.7339,5.8413,5.9618,6.0675,6.1172,6.1869,6.2352,6.242,6.2664,6.2793,6.2848,6.2811,6.3013,6.3521,6.3631,6.4016,6.464,6.4879,6.5154,6.5833,6.609,6.6237,6.6806,6.5815,6.5398,6.587,6.6127,6.6421,6.6512,6.6604,6.6714,6.6623,6.7021,6.7076,6.7155,6.7228,6.7682,6.7642,6.7515,6.6594,6.5245,6.4783,6.3846,4.7511,4.7511,4.7496,4.7528,4.7513,4.7528,4.7496,4.7513,4.7511,4.7513,4.7496,4.7496,4.7496,4.7581,4.8037,4.802,4.7547,4.7513,4.7513,4.7547,4.8039,4.8242,4.8326,4.8766,4.9018,4.9001,4.9018,4.9018,4.9018,4.9018,4.9018,4.9018,4.9018,4.9018,4.9035,4.9221,4.9627,5.005,5.0337,5.0811,5.1522,5.2046,5.2452,5.2587,5.2199,5.1928,5.1962,5.2435,5.2689,5.2756,5.3196,5.3501,5.3484,5.3501,5.3501,5.3501,5.3484,5.3501,5.3501,5.3501,5.3501,5.3501,5.3501,5.3501,5.3534,5.3721,5.4093,5.4533,5.5142,5.5617,5.6372,5.7169,5.8071,5.9237,6.0227,6.1153,6.1886,6.2444,6.2738,6.2756,6.2774,6.2903,6.3172,6.3227,6.3649,6.4396,6.4475,6.4824,6.5503,6.5723,6.5962,6.6714,6.6893,6.7095,6.7333,6.6733,6.6347,6.6714,6.6769,6.7205,6.7407,6.7609,6.7682,6.7682,6.7682,6.7682,6.7682,6.7682,6.7669,6.7642,6.7099,6.6292,6.5232,6.4305,6.3574,4.8934,4.8883,4.8984,4.8849,4.8815,4.8798,4.8901,4.8832,4.8866,4.8781,4.8714,4.8866,4.8765,4.89,4.8832,4.8917,4.8815,4.8765,4.8765,4.8815,4.8883,4.8917,4.8934,4.8968,4.9018,4.9018,4.9018,4.9018,4.9018,4.9018,4.9018,4.9018,4.9018,4.9052,4.9052,4.9678,5.0083,5.0388,5.0897,5.1556,5.2215,5.2384,5.2739,5.3331,5.3349,5.3315,5.3365,5.3416,5.3399,5.3416,5.3467,5.3501,5.3501,5.3501,5.3501,5.3501,5.3501,5.3501,5.3501,5.3501,5.3501,5.3501,5.3501,5.3551,5.3721,5.416,5.46,5.5006,5.5887,5.6982,5.7705,5.8438,5.9086,5.9441,6.069,6.1761,6.2493,6.2774,6.2829,6.2884,6.2958,6.3227,6.3833,6.4108,6.4439,6.5063,6.5307,6.5595,6.6329,6.6512,6.6861,6.737,6.7499,6.7517,6.7627,6.7664,6.7627,6.7609,6.7517,6.7609,6.759,6.7682,6.7682,6.7682,6.7682,6.7682,6.7682,6.7682,6.7682,6.7529,6.6805,6.6295,6.5556,6.4751,6.381,4.9018,4.9018,4.9018,4.9018,4.9018,4.9018,4.9018,4.9018,4.9018,4.9018,4.9018,4.9018,4.9018,4.9018,4.9018,4.9018,4.9018,4.9018,4.9018,4.9018,4.9018,4.9018,4.9018,4.9018,4.9018,4.9018,4.9018,4.9018,4.9018,4.9018,4.9018,4.9018,4.9018,4.9289,4.9712,5.0015,5.0523,5.1539,5.1843,5.235,5.3044,5.3129,5.3264,5.3467,5.3501,5.3501,5.3501,5.3501,5.3501,5.3501,5.3501,5.3501,5.3501,5.3501,5.3501,5.3501,5.3501,5.3501,5.3501,5.3501,5.3501,5.3501,5.3501,5.3771,5.4177,5.4482,5.5091,5.5869,5.6579,5.7113,5.7855,5.8651,5.953,6.0744,6.133,6.1928,6.2709,6.2848,6.3086,6.3594,6.3686,6.4071,6.4677,6.4934,6.5264,6.5962,6.6127,6.6439,6.7076,6.7242,6.737,6.7664,6.7682,6.7682,6.7682,6.7682,6.7682,6.7682,6.7682,6.7682,6.7682,6.7682,6.7682,6.7682,6.7682,6.7682,6.7682,6.7682,6.7682,6.7655,6.7258,6.6714,6.6122,6.5298,6.4358,4.9018,4.9018,4.9018,4.9018,4.9018,4.9018,4.9018,4.9018,4.9018,4.9018,4.9018,4.9018,4.9018,4.9018,4.9018,4.9018,4.9018,4.9018,4.9018,4.9018,4.9018,4.9018,4.9018,4.9018,4.9018,4.9018,4.9018,4.9018,4.9018,4.9018,4.9018,4.9018,4.9255,4.961,5.0167,5.0676,5.1454,5.2232,5.2587,5.2993,5.3399,5.3501,5.3501,5.3501,5.3501,5.3501,5.3501,5.3501,5.3501,5.3501,5.3501,5.3501,5.3501,5.3501,5.3501,5.3501,5.3501,5.3501,5.3501,5.3501,5.3501,5.3518,5.3754,5.4076,5.46,5.4938,5.5919,5.6596,5.707,5.7391,5.7891,5.8633,5.9718,6.0964,6.14,6.2069,6.2971,6.3301,6.3668,6.4273,6.453,6.4934,6.5485,6.576,6.609,6.6733,6.6953,6.7026,6.7572,6.7664,6.7682,6.7682,6.7682,6.7682,6.7682,6.7682,6.7682,6.7682,6.7682,6.7682,6.7682,6.7682,6.7682,6.7682,6.7682,6.7682,6.7682,6.7682,6.7682,6.7628,6.7515,6.682,6.6125,6.5714,6.4935,4.9018,4.9018,4.9018,4.9018,4.9018,4.9018,4.9018,4.9018,4.9018,4.9018,4.9018,4.9018,4.9018,4.9018,4.9018,4.9018,4.9018,4.9018,4.9018,4.9018,4.9018,4.9018,4.9018,4.9018,4.9018,4.9018,4.9018,4.9018,4.9018,4.9018,4.9018,4.9069,4.9644,5.0133,5.0456,5.1572,5.2232,5.2536,5.3112,5.345,5.3501,5.3501,5.3501,5.3501,5.3501,5.3501,5.3501,5.3501,5.3501,5.3501,5.3501,5.3501,5.3501,5.3501,5.3501,5.3501,5.3501,5.3501,5.3501,5.3501,5.3551,5.3687,5.4177,5.4685,5.4989,5.5902,5.6647,5.6968,5.7459,5.7849,5.8029,5.8772,5.967,6.0504,6.145,6.2448,6.3786,6.4029,6.4383,6.5086,6.5398,6.5655,6.6439,6.6549,6.6916,6.7352,6.7572,6.7609,6.7645,6.7682,6.7682,6.7682,6.7682,6.7682,6.7682,6.7682,6.7682,6.7682,6.7682,6.7682,6.7682,6.7682,6.7682,6.7682,6.7682,6.7682,6.7682,6.7682,6.7682,6.7655,6.7286,6.6659,6.6356,6.6168,6.5808,4.9018,4.9018,4.9018,4.9018,4.9018,4.9018,4.9018,4.9018,4.9018,4.9018,4.9018,4.9018,4.9018,4.9018,4.9018,4.9018,4.9018,4.9018,4.9018,4.9018,4.9018,4.9018,4.9018,4.9018,4.9018,4.9018,4.9018,4.9018,4.9018,4.9018,4.9018,4.9035,4.9796,5.0438,5.0997,5.186,5.2604,5.3112,5.3348,5.3501,5.3501,5.3501,5.3501,5.3501,5.3501,5.3501,5.3501,5.3501,5.3501,5.3501,5.3501,5.3501,5.3501,5.3501,5.3501,5.3501,5.3501,5.3501,5.3501,5.3518,5.3737,5.4245,5.4566,5.5074,5.6156,5.6545,5.707,5.7442,5.7832,5.79,5.8119,5.9179,6.0517,6.1915,6.2258,6.2863,6.3843,6.4139,6.4604,6.587,6.6164,6.6568,6.7045,6.7333,6.7407,6.7627,6.7682,6.7682,6.7682,6.7682,6.7682,6.7682,6.7682,6.7682,6.7682,6.7682,6.7682,6.7682,6.7682,6.7682,6.7682,6.7682,6.7682,6.7682,6.7682,6.7682,6.7682,6.7682,6.7682,6.7682,6.7501,6.7127,6.7272,6.7184,6.6743,4.9018,4.9018,4.9018,4.9018,4.9018,4.9018,4.9018,4.9018,4.9018,4.9018,4.9018,4.9018,4.9018,4.9018,4.9018,4.9018,4.9018,4.9018,4.9018,4.9018,4.9018,4.9018,4.9018,4.9018,4.9018,4.9018,4.9018,4.9018,4.9018,4.9018,4.9154,4.9576,5.0202,5.0947,5.1691,5.2418,5.301,5.3416,5.3501,5.3501,5.3501,5.3501,5.3501,5.3501,5.3501,5.3501,5.3501,5.3501,5.3501,5.3501,5.3501,5.3501,5.3501,5.3501,5.3501,5.3501,5.3501,5.3501,5.3568,5.3754,5.4143,5.4634,5.504,5.5886,5.6647,5.7036,5.7527,5.7797,5.7883,5.79,5.8173,5.9394,6.0864,6.1955,6.2598,6.3263,6.4439,6.4971,6.5668,6.6586,6.7026,6.7118,6.7664,6.7682,6.7682,6.7682,6.7682,6.7682,6.7682,6.7682,6.7682,6.7682,6.7682,6.7682,6.7682,6.7682,6.7682,6.7682,6.7682,6.7682,6.7682,6.7682,6.7682,6.7682,6.7682,6.7682,6.7682,6.7682,6.7682,6.7682,6.7682,6.7655,6.7642,6.7682,6.7318,4.9048,4.9092,4.9032,4.9018,4.9018,4.9018,4.9018,4.9018,4.9018,4.9018,4.9018,4.9018,4.9018,4.9018,4.9018,4.9018,4.9018,4.9018,4.9018,4.9018,4.9018,4.9018,4.9018,4.9018,4.9018,4.9018,4.9018,4.9018,4.9018,4.9018,4.9407,4.9982,5.076,5.1539,5.2181,5.301,5.3433,5.3467,5.3501,5.3501,5.3501,5.3501,5.3501,5.3501,5.3501,5.3501,5.3501,5.3501,5.3501,5.3501,5.3501,5.3501,5.3501,5.3501,5.3501,5.3551,5.3636,5.3721,5.3754,5.4329,5.4786,5.5124,5.6122,5.685,5.7053,5.7492,5.7815,5.7883,5.79,5.7974,5.8316,5.9478,6.058,6.1598,6.2352,6.3502,6.4835,6.5888,6.6714,6.7554,6.7664,6.7682,6.7682,6.7682,6.7682,6.7682,6.7682,6.7682,6.7682,6.7682,6.7682,6.7682,6.7682,6.7682,6.7682,6.7682,6.7682,6.7682,6.7682,6.7682,6.7682,6.7682,6.7682,6.7682,6.7682,6.7682,6.7682,6.7682,6.7682,6.7682,6.7682,6.7615,6.7547,6.7642,6.7474,4.9316,4.9751,4.9228,4.9018,4.9018,4.9018,4.9018,4.9018,4.9018,4.9018,4.9018,4.9018,4.9018,4.9018,4.9018,4.9018,4.9018,4.9018,4.9018,4.9018,4.9018,4.9018,4.9018,4.9018,4.9018,4.9018,4.9018,4.9018,4.9018,4.912,4.939,5.0135,5.0947,5.1573,5.2367,5.3112,5.3501,5.3501,5.3501,5.3501,5.3501,5.3501,5.3501,5.3501,5.3501,5.3501,5.3501,5.3501,5.3501,5.3501,5.3501,5.3501,5.3501,5.3501,5.3518,5.3687,5.4059,5.4329,5.4482,5.504,5.5716,5.619,5.6579,5.7053,5.7629,5.7764,5.79,5.79,5.7918,5.8137,5.8633,5.9095,6.0115,6.1261,6.2244,6.3157,6.4223,6.5118,6.6237,6.7223,6.7664,6.7682,6.7682,6.7682,6.7682,6.7682,6.7682,6.7682,6.7682,6.7682,6.7682,6.7682,6.7682,6.7682,6.7682,6.7682,6.7682,6.7682,6.7682,6.7682,6.7682,6.7682,6.7682,6.7682,6.7682,6.7682,6.7682,6.7682,6.7682,6.7682,6.7655,6.7501,6.7447,6.7574,6.7474,4.9389,4.9904,4.9286,4.9018,4.9018,4.9018,4.9018,4.9018,4.9018,4.9018,4.9018,4.9018,4.9018,4.9018,4.9018,4.9018,4.9018,4.9018,4.9018,4.9018,4.9018,4.9018,4.9018,4.9018,4.9018,4.9018,4.9018,4.9018,4.9069,4.939,4.9932,5.0625,5.1352,5.2148,5.2773,5.3264,5.3467,5.3501,5.3501,5.3501,5.3501,5.3501,5.3501,5.3501,5.3501,5.3501,5.3501,5.3501,5.3501,5.3501,5.3501,5.3501,5.3501,5.3518,5.3653,5.4042,5.4313,5.4803,5.5158,5.5784,5.6376,5.6782,5.7087,5.7477,5.7798,5.79,5.79,5.79,5.7936,5.8119,5.8511,5.8976,5.9765,6.0784,6.1749,6.2735,6.3928,6.5118,6.6109,6.704,6.7462,6.7627,6.7682,6.7682,6.7682,6.7682,6.7682,6.7682,6.7682,6.7682,6.7682,6.7682,6.7682,6.7682,6.7682,6.7682,6.7682,6.7682,6.7682,6.7682,6.7682,6.7682,6.7682,6.7682,6.7682,6.7682,6.7682,6.7682,6.7682,6.7682,6.7615,6.7387,6.7244,6.7244,6.7043,4.9447,5.0086,4.9331,4.9018,4.9018,4.9018,4.9018,4.9018,4.9018,4.9018,4.9018,4.9018,4.9018,4.9018,4.9018,4.9018,4.9018,4.9018,4.9018,4.9018,4.9018,4.9018,4.9018,4.9018,4.9018,4.9018,4.9018,4.9018,4.9187,4.9729,5.0338,5.115,5.1911,5.2587,5.3281,5.3484,5.3501,5.3501,5.3501,5.3501,5.3501,5.3501,5.3501,5.3501,5.3501,5.3501,5.3501,5.3501,5.3501,5.3501,5.3501,5.3568,5.367,5.3721,5.3907,5.4583,5.4854,5.5378,5.5885,5.6511,5.7002,5.7002,5.7476,5.7832,5.7883,5.79,5.79,5.79,5.7918,5.7918,5.7955,5.8406,5.9312,6.0275,6.1055,6.2145,6.3701,6.5264,6.5907,6.6604,6.7026,6.7297,6.7572,6.7682,6.7682,6.7682,6.7682,6.7682,6.7682,6.7682,6.7682,6.7682,6.7682,6.7682,6.7682,6.7682,6.7682,6.7682,6.7682,6.7682,6.7682,6.7682,6.7682,6.7682,6.7682,6.7682,6.7682,6.7682,6.7682,6.7682,6.7601,6.7433,6.7202,6.6971,6.6641,4.9751,5.081,4.9536,4.9018,4.9018,4.9018,4.9018,4.9018,4.9018,4.9018,4.9018,4.9018,4.9018,4.9018,4.9018,4.9018,4.9018,4.9018,4.9018,4.9018,4.9018,4.9018,4.9018,4.9018,4.9018,4.9018,4.9018,4.9018,4.9238,4.9729,5.0608,5.1252,5.2012,5.279,5.3315,5.3501,5.3501,5.3501,5.3501,5.3501,5.3501,5.3501,5.3501,5.3501,5.3501,5.3501,5.3501,5.3501,5.3501,5.3501,5.3501,5.3839,5.4211,5.4363,5.455,5.4939,5.57,5.6292,5.6646,5.7239,5.7628,5.7764,5.7832,5.7883,5.79,5.79,5.79,5.79,5.79,5.79,5.79,5.8137,5.8909,5.9914,6.0661,6.1347,6.2832,6.398,6.5099,6.5962,6.6457,6.6935,6.7228,6.7554,6.7682,6.7682,6.7682,6.7682,6.7682,6.7682,6.7682,6.7682,6.7682,6.7682,6.7682,6.7682,6.7682,6.7682,6.7682,6.7682,6.7682,6.7682,6.7682,6.7682,6.7682,6.7682,6.7682,6.7682,6.7682,6.7682,6.7588,6.7474,6.7248,6.6971,6.6335,5.0115,5.0929,4.9563,4.9018,4.9018,4.9018,4.9018,4.9018,4.9018,4.9018,4.9018,4.9018,4.9018,4.9018,4.9018,4.9018,4.9018,4.9018,4.9018,4.9018,4.9018,4.9018,4.9018,4.9018,4.9018,4.9018,4.9018,4.9238,4.9627,5.0338,5.1014,5.1792,5.2536,5.3129,5.3416,5.3501,5.3501,5.3501,5.3501,5.3501,5.3501,5.3501,5.3501,5.3501,5.3501,5.3501,5.3501,5.3501,5.3501,5.3501,5.3501,5.3907,5.4465,5.4972,5.5344,5.5767,5.641,5.7002,5.7289,5.7764,5.7849,5.7883,5.79,5.79,5.79,5.79,5.79,5.79,5.79,5.79,5.79,5.7918,5.8737,5.9961,6.0445,6.1203,6.2376,6.3139,6.4127,6.5264,6.5999,6.6512,6.6935,6.7247,6.759,6.7682,6.7682,6.7682,6.7682,6.7682,6.7682,6.7682,6.7682,6.7682,6.7682,6.7682,6.7682,6.7682,6.7682,6.7682,6.7682,6.7682,6.7682,6.7682,6.7682,6.7682,6.7682,6.7682,6.7682,6.7682,6.7628,6.7515,6.7276,6.6881,6.635,5.0449,5.0981,4.958,4.9018,4.9018,4.9018,4.9018,4.9018,4.9018,4.9018,4.9018,4.9018,4.9018,4.9018,4.9018,4.9018,4.9018,4.9018,4.9018,4.9018,4.9018,4.9018,4.9018,4.9018,4.9018,4.9035,4.9289,4.9509,5.0033,5.076,5.1555,5.2249,5.3078,5.3501,5.3501,5.3501,5.3501,5.3501,5.3501,5.3501,5.3501,5.3501,5.3501,5.3501,5.3501,5.3501,5.3501,5.3501,5.3501,5.3501,5.3568,5.3907,5.4718,5.5361,5.6088,5.6833,5.7002,5.7357,5.7697,5.7883,5.79,5.79,5.79,5.79,5.79,5.79,5.79,5.79,5.79,5.79,5.7901,5.8065,5.8892,5.9944,6.0643,6.1164,6.2258,6.2976,6.3178,6.4237,6.5319,6.5907,6.6182,6.6824,6.7131,6.7388,6.7388,6.7682,6.7682,6.7682,6.7682,6.7682,6.7682,6.7682,6.7682,6.7682,6.7682,6.7682,6.7682,6.7682,6.7682,6.7682,6.7682,6.7682,6.7682,6.7682,6.7682,6.7682,6.7682,6.7682,6.7682,6.7615,6.7433,6.716,6.6729,5.0449,5.0999,4.958,4.9018,4.9018,4.9018,4.9018,4.9018,4.9018,4.9018,4.9018,4.9018,4.9018,4.9018,4.9018,4.9018,4.9018,4.9018,4.9018,4.9018,4.9018,4.9018,4.9018,4.9018,4.9086,4.9204,4.9661,4.9949,5.0439,5.1031,5.1641,5.2435,5.3112,5.3501,5.3501,5.3501,5.3501,5.3501,5.3501,5.3501,5.3501,5.3501,5.3501,5.3501,5.3501,5.3501,5.3501,5.3501,5.3501,5.3501,5.3501,5.4177,5.5276,5.5631,5.6494,5.7306,5.7781,5.7797,5.7883,5.79,5.79,5.79,5.79,5.79,5.79,5.79,5.79,5.79,5.79,5.79,5.8011,5.8529,5.9361,6.0194,6.0938,6.1659,6.2579,6.2811,6.2994,6.3178,6.4273,6.4806,6.5191,6.598,6.6659,6.6893,6.715,6.7425,6.7645,6.7627,6.7682,6.7682,6.7682,6.7682,6.7682,6.7682,6.7682,6.7682,6.7682,6.7682,6.7682,6.7682,6.7682,6.7682,6.7682,6.7682,6.7682,6.7682,6.7682,6.7682,6.7682,6.7682,6.7655,6.7341,6.7039,5.081,5.0951,4.9595,4.9018,4.9018,4.9018,4.9018,4.9018,4.9018,4.9018,4.9018,4.9018,4.9018,4.9018,4.9018,4.9018,4.9018,4.9018,4.9018,4.9018,4.9018,4.9018,4.9018,4.9035,4.9137,4.961,5.0016,5.0676,5.1099,5.164,5.2215,5.2909,5.3298,5.3501,5.3501,5.3501,5.3501,5.3501,5.3501,5.3501,5.3501,5.3501,5.3501,5.3501,5.3501,5.3501,5.3501,5.3501,5.3501,5.3501,5.3501,5.4194,5.5293,5.58,5.6359,5.7697,5.7883,5.7883,5.79,5.79,5.79,5.79,5.79,5.79,5.79,5.79,5.79,5.79,5.79,5.7918,5.8065,5.8634,5.9477,6.032,6.1247,6.1924,6.2567,6.2686,6.2884,6.3007,6.3154,6.3741,6.4316,6.5013,6.5668,6.5999,6.6384,6.6838,6.7187,6.7444,6.7554,6.7682,6.7682,6.7682,6.7682,6.7682,6.7682,6.7682,6.7682,6.7682,6.7682,6.7682,6.7682,6.7682,6.7682,6.7682,6.7682,6.7682,6.7682,6.7682,6.7682,6.7682,6.7682,6.7655,6.7373,5.0805,5.0703,4.9506,4.9018,4.9018,4.9018,4.9018,4.9018,4.9018,4.9018,4.9018,4.9018,4.9018,4.9018,4.9018,4.9018,4.9018,4.9018,4.9018,4.9018,4.9018,4.9018,4.9086,4.9154,4.9576,5.0167,5.0676,5.1234,5.1944,5.252,5.2909,5.3484,5.3433,5.3501,5.3501,5.3501,5.3501,5.3501,5.3501,5.3501,5.3501,5.3501,5.3501,5.3501,5.3501,5.3501,5.3501,5.3501,5.3501,5.3501,5.3501,5.4194,5.5411,5.5767,5.6427,5.7509,5.79,5.79,5.79,5.79,5.79,5.79,5.79,5.79,5.79,5.79,5.79,5.79,5.79,5.7992,5.8334,5.8994,5.9896,6.0745,6.152,6.2134,6.2618,6.2743,6.2811,6.2884,6.2939,6.2884,6.349,6.4095,6.4628,6.5013,6.5558,6.6145,6.6678,6.7131,6.7444,6.7627,6.7682,6.7682,6.7682,6.7682,6.7682,6.7682,6.7682,6.7682,6.7682,6.7682,6.7682,6.7682,6.7682,6.7682,6.7682,6.7682,6.7682,6.7682,6.7682,6.7682,6.7682,6.7682,6.7655,5.003,5.0019,4.9301,4.9018,4.9018,4.9018,4.9018,4.9018,4.9018,4.9018,4.9018,4.9018,4.9018,4.9018,4.9018,4.9018,4.9018,4.9018,4.9018,4.9018,4.9018,4.9052,4.9238,4.9627,5.0067,5.0473,5.1217,5.1928,5.2452,5.3027,5.3298,5.3501,5.3501,5.3501,5.3501,5.3501,5.3501,5.3501,5.3501,5.3501,5.3501,5.3501,5.3501,5.3501,5.3501,5.3501,5.3501,5.3501,5.3501,5.3501,5.3501,5.4194,5.5378,5.5665,5.6426,5.7492,5.79,5.79,5.79,5.79,5.79,5.79,5.79,5.79,5.79,5.79,5.79,5.79,5.79,5.8209,5.8875,5.9802,6.0412,6.0997,6.1646,6.2368,6.2712,6.2755,6.2811,6.2811,6.2811,6.2811,6.2811,6.3472,6.3765,6.415,6.4879,6.5485,6.6311,6.6824,6.7297,6.7554,6.7664,6.7682,6.7682,6.7682,6.7682,6.7682,6.7682,6.7682,6.7682,6.7682,6.7682,6.7682,6.7682,6.7682,6.7682,6.7682,6.7682,6.7682,6.7682,6.7682,6.7682,6.7682,6.7682,4.9329,4.9342,4.9092,4.9018,4.9018,4.9018,4.9018,4.9018,4.9018,4.9018,4.9018,4.9018,4.9018,4.9018,4.9018,4.9018,4.9018,4.9018,4.9018,4.9018,4.9018,4.9255,4.9593,5.0033,5.054,5.1319,5.2114,5.2655,5.3112,5.3365,5.3416,5.3501,5.3501,5.3501,5.3501,5.3501,5.3501,5.3501,5.3501,5.3501,5.3501,5.3501,5.3501,5.3501,5.3501,5.3501,5.3501,5.3501,5.3501,5.3501,5.3501,5.4363,5.5327,5.5564,5.6393,5.756,5.7798,5.7849,5.79,5.79,5.79,5.79,5.79,5.79,5.79,5.79,5.79,5.79,5.79,5.8191,5.837,5.9543,6.0552,6.1084,6.1756,6.2541,6.2811,6.2811,6.2811,6.2811,6.2811,6.2811,6.2811,6.2866,6.3068,6.3325,6.409,6.4861,6.565,6.6366,6.6751,6.7045,6.715,6.748,6.7499,6.7572,6.7664,6.7682,6.7682,6.7682,6.7682,6.7682,6.7682,6.7682,6.7682,6.7682,6.7682,6.7682,6.7682,6.7682,6.7682,6.7682,6.7682,6.7682,6.7682,4.8592,4.8694,4.8917,4.9018,4.9018,4.9018,4.9018,4.9018,4.9018,4.9018,4.9018,4.9018,4.9018,4.9018,4.9018,4.9018,4.9018,4.9018,4.9018,4.9018,4.9086,4.9458,4.9932,5.0473,5.1082,5.2131,5.2638,5.3027,5.3399,5.3467,5.3501,5.3501,5.3501,5.3501,5.3501,5.3501,5.3501,5.3501,5.3501,5.3501,5.3501,5.3501,5.3501,5.3501,5.3501,5.3501,5.3501,5.3501,5.3501,5.3501,5.3619,5.4177,5.4888,5.5564,5.619,5.7002,5.7595,5.7663,5.7832,5.79,5.79,5.79,5.79,5.79,5.79,5.79,5.79,5.79,5.79,5.7991,5.8156,5.9575,6.061,6.12,6.2089,6.2811,6.2811,6.2811,6.2811,6.2811,6.2811,6.2811,6.2811,6.2811,6.2866,6.3141,6.3815,6.4402,6.4842,6.5485,6.6017,6.6274,6.6439,6.6856,6.726,6.7168,6.715,6.7682,6.7682,6.7682,6.7682,6.7682,6.7682,6.7682,6.7682,6.7682,6.7682,6.7682,6.7682,6.7682,6.7682,6.7682,6.7682,6.7682,6.7682,4.7783,4.8019,4.8697,4.8968,4.9001,4.9018,4.9018,4.9018,4.9018,4.9018,4.9018,4.9018,4.9018,4.9018,4.9018,4.9018,4.9018,4.9018,4.9018,4.9018,4.9204,4.9543,5.0202,5.0896,5.1657,5.235,5.2909,5.3331,5.3501,5.3484,5.3501,5.3501,5.3501,5.3501,5.3501,5.3501,5.3501,5.3501,5.3501,5.3501,5.3501,5.3501,5.3501,5.3501,5.3501,5.3501,5.3501,5.3501,5.3501,5.3501,5.3501,5.3974,5.4634,5.4769,5.5463,5.6647,5.6799,5.7137,5.7746,5.7849,5.79,5.79,5.79,5.79,5.79,5.79,5.79,5.79,5.79,5.8281,5.896,5.9815,6.0592,6.1403,6.2284,6.2811,6.2811,6.2811,6.2811,6.2811,6.2811,6.2811,6.2811,6.2811,6.2811,6.3099,6.3649,6.4016,6.4218,6.4677,6.5246,6.5503,6.5705,6.609,6.6439,6.6494,6.6678,6.7315,6.7609,6.7517,6.7609,6.7682,6.7682,6.7682,6.7682,6.7682,6.7682,6.7682,6.7682,6.7682,6.7682,6.7682,6.7682,6.7682,6.7682,4.6971,4.7921,4.8157,4.8546,4.8968,4.9018,4.9018,4.9018,4.9018,4.9018,4.9018,4.9018,4.9018,4.9018,4.9018,4.9018,4.9018,4.9018,4.9018,4.9052,4.9424,5.0185,5.0845,5.1505,5.23,5.2959,5.3433,5.3501,5.3484,5.3501,5.3501,5.3501,5.3501,5.3501,5.3501,5.3501,5.3501,5.3501,5.3501,5.3501,5.3501,5.3501,5.3501,5.3501,5.3501,5.3501,5.3501,5.3501,5.3501,5.3501,5.3501,5.3839,5.438,5.4533,5.504,5.5886,5.6088,5.6427,5.7103,5.7511,5.7883,5.7866,5.7883,5.7883,5.79,5.79,5.79,5.79,5.79,5.8335,5.9027,5.988,6.067,6.1474,6.2214,6.2661,6.2811,6.2811,6.2811,6.2811,6.2811,6.2811,6.2811,6.2811,6.2811,6.2811,6.3264,6.3301,6.3429,6.3961,6.4525,6.4751,6.4989,6.5356,6.56,6.5668,6.6035,6.6641,6.7003,6.7113,6.7278,6.7554,6.7682,6.7682,6.7682,6.7682,6.7682,6.7682,6.7682,6.7682,6.7682,6.7682,6.7682,6.7682,6.7682,4.6413,4.7515,4.7802,4.8326,4.8951,4.9018,4.9018,4.9018,4.9018,4.9018,4.9018,4.9018,4.9018,4.9018,4.9018,4.9018,4.9018,4.9018,4.9018,4.912,4.9744,5.0422,5.1167,5.1962,5.2621,5.3281,5.3501,5.3501,5.3501,5.3501,5.3501,5.3501,5.3501,5.3501,5.3501,5.3501,5.3501,5.3501,5.3501,5.3501,5.3501,5.3501,5.3501,5.3501,5.3501,5.3501,5.3501,5.3501,5.3501,5.3501,5.3585,5.3721,5.4093,5.4313,5.4617,5.5073,5.5648,5.5919,5.6461,5.7087,5.7357,5.7443,5.7714,5.7883,5.79,5.79,5.79,5.79,5.79,5.8388,5.9061,5.9914,6.0715,6.1502,6.22,6.2649,6.2811,6.2811,6.2811,6.2811,6.2811,6.2811,6.2811,6.2811,6.2811,6.2811,6.2829,6.2811,6.2811,6.3319,6.379,6.3961,6.4127,6.4402,6.4677,6.4861,6.5319,6.5962,6.6292,6.6544,6.7026,6.7333,6.7517,6.7682,6.7682,6.7682,6.7682,6.7682,6.7682,6.7682,6.7682,6.7682,6.7682,6.7682,6.7682,4.6092,4.6819,4.7566,4.8242,4.8883,4.8968,4.9018,4.9018,4.9018,4.9018,4.9018,4.9018,4.9018,4.9018,4.9018,4.9018,4.9018,4.9018,4.9018,4.9289,4.993,5.0591,5.1302,5.2063,5.2858,5.3298,5.3501,5.3501,5.3501,5.3501,5.3501,5.3501,5.3501,5.3501,5.3501,5.3501,5.3501,5.3501,5.3501,5.3501,5.3501,5.3501,5.3501,5.3501,5.3501,5.3501,5.3501,5.3501,5.3501,5.3501,5.3518,5.3518,5.3534,5.3501,5.3974,5.4515,5.5209,5.553,5.575,5.6376,5.6697,5.685,5.7391,5.7714,5.79,5.79,5.79,5.79,5.7918,5.8476,5.9096,5.9914,6.0715,6.152,6.2311,6.2623,6.2768,6.2811,6.2811,6.2811,6.2811,6.2811,6.2811,6.2811,6.2811,6.2811,6.2811,6.2811,6.2811,6.2811,6.3172,6.3154,6.3301,6.3392,6.3668,6.4016,6.4494,6.5118,6.5632,6.5962,6.6512,6.6971,6.7155,6.7352,6.7609,6.7682,6.7682,6.7682,6.7682,6.7682,6.7682,6.7682,6.7682,6.7682,6.7682,4.5345,4.6075,4.6819,4.7547,4.8242,4.8798,4.9018,4.9018,4.9018,4.9018,4.9018,4.9018,4.9018,4.9018,4.9018,4.9018,4.9018,4.9018,4.9018,4.9441,5.0253,5.0845,5.1573,5.2435,5.3146,5.3399,5.3501,5.3501,5.3501,5.3501,5.3501,5.3501,5.3501,5.3501,5.3501,5.3501,5.3501,5.3501,5.3501,5.3501,5.3501,5.3501,5.3501,5.3501,5.3501,5.3501,5.3501,5.3501,5.3501,5.3501,5.3501,5.3501,5.3501,5.3501,5.3721,5.3822,5.4431,5.4938,5.504,5.5615,5.602,5.6139,5.6714,5.7374,5.768,5.7832,5.7832,5.79,5.7936,5.8369,5.9079,5.9896,6.0715,6.152,6.2271,6.2692,6.2811,6.2811,6.2811,6.2811,6.2811,6.2811,6.2811,6.2811,6.2811,6.2811,6.2811,6.2811,6.2811,6.2811,6.2811,6.2811,6.2848,6.305,6.3013,6.3282,6.3741,6.4237,6.4787,6.5283,6.5687,6.6145,6.6623,6.7045,6.7388,6.759,6.7682,6.7682,6.7682,6.7682,6.7682,6.7682,6.7682,6.7682,6.7682,4.5024,4.5739,4.6481,4.7378,4.831,4.8815,4.9018,4.9018,4.9018,4.9018,4.9018,4.9018,4.9018,4.9018,4.9018,4.9018,4.9018,4.9035,4.9154,4.9813,5.0643,5.1268,5.1996,5.2774,5.3332,5.3501,5.3501,5.3501,5.3501,5.3501,5.3501,5.3501,5.3501,5.3501,5.3501,5.3501,5.3501,5.3501,5.3501,5.3501,5.3501,5.3501,5.3501,5.3501,5.3501,5.3501,5.3501,5.3501,5.3501,5.3501,5.3501,5.3501,5.3501,5.3501,5.3501,5.3619,5.3856,5.4143,5.4279,5.4837,5.5158,5.5445,5.5953,5.6461,5.707,5.7392,5.768,5.79,5.7974,5.8227,5.9061,5.9896,6.0698,6.1516,6.2134,6.2755,6.2811,6.2811,6.2811,6.2811,6.2811,6.2811,6.2811,6.2811,6.2811,6.2811,6.2811,6.2811,6.2811,6.2811,6.2811,6.2811,6.2811,6.2866,6.2811,6.2811,6.3191,6.3668,6.4108,6.4567,6.4916,6.543,6.6054,6.6659,6.7242,6.7444,6.7664,6.7682,6.7682,6.7682,6.7682,6.7682,6.7682,6.7682,6.7682,4.499,4.5652,4.6464,4.7631,4.89,4.9001,4.9018,4.9018,4.9018,4.9018,4.9018,4.9018,4.9018,4.9018,4.9018,4.9018,4.9018,4.9018,4.9373,5.0101,5.0811,5.1472,5.2249,5.3061,5.3416,5.3501,5.3501,5.3501,5.3501,5.3501,5.3501,5.3501,5.3501,5.3501,5.3501,5.3501,5.3501,5.3501,5.3501,5.3501,5.3501,5.3501,5.3501,5.3501,5.3501,5.3501,5.3501,5.3501,5.3501,5.3501,5.3501,5.3501,5.3501,5.3501,5.3501,5.3501,5.3619,5.3653,5.3788,5.4211,5.4414,5.4752,5.5175,5.5547,5.6089,5.7002,5.7425,5.7646,5.77,5.8014,5.8737,5.9476,6.0271,6.1099,6.1801,6.242,6.278,6.278,6.2811,6.2811,6.2811,6.2811,6.2811,6.2811,6.2811,6.2811,6.2811,6.2811,6.2811,6.2811,6.2811,6.2811,6.2811,6.2811,6.2811,6.2811,6.2811,6.3172,6.3576,6.3741,6.3998,6.4695,6.5521,6.6237,6.6985,6.7388,6.7627,6.7664,6.7682,6.7682,6.7682,6.7682,6.7682,6.7682,6.7682,4.4685,4.499,4.6244,4.7631,4.8917,4.9018,4.9018,4.9018,4.9018,4.9018,4.9018,4.9018,4.9018,4.9018,4.9018,4.9018,4.9018,4.9052,4.9475,5.0152,5.0913,5.1691,5.2367,5.3145,5.345,5.3501,5.3501,5.3501,5.3501,5.3501,5.3501,5.3501,5.3501,5.3501,5.3501,5.3501,5.3501,5.3501,5.3501,5.3501,5.3501,5.3501,5.3501,5.3501,5.3501,5.3501,5.3501,5.3501,5.3501,5.3501,5.3501,5.3501,5.3501,5.3501,5.3501,5.3501,5.3501,5.3501,5.3551,5.3737,5.3856,5.4042,5.4397,5.4685,5.531,5.641,5.707,5.7222,5.7548,5.7912,5.837,5.9078,5.9831,6.0668,6.1474,6.2089,6.2712,6.278,6.2811,6.2811,6.2811,6.2811,6.2811,6.2811,6.2811,6.2811,6.2811,6.2811,6.2811,6.2811,6.2811,6.2811,6.2811,6.2811,6.2811,6.2811,6.2811,6.2811,6.3123,6.3191,6.3172,6.4035,6.4971,6.5944,6.6696,6.7076,6.7407,6.7664,6.7682,6.7682,6.7682,6.7682,6.7682,6.7682,6.7682,4.4584,4.4787,4.6174,4.7445,4.8445,4.8851,4.9018,4.9018,4.9018,4.9018,4.9018,4.9018,4.9018,4.9018,4.9018,4.9018,4.9018,4.9018,4.9763,5.0508,5.1015,5.1911,5.2621,5.3264,5.3399,5.3501,5.3501,5.3501,5.3501,5.3501,5.3501,5.3501,5.3501,5.3501,5.3501,5.3501,5.3501,5.3501,5.3501,5.3501,5.3501,5.3501,5.3501,5.3501,5.3501,5.3501,5.3501,5.3501,5.3501,5.3501,5.3501,5.3501,5.3501,5.3501,5.3501,5.3501,5.3501,5.3501,5.3501,5.3501,5.3501,5.3704,5.3771,5.4143,5.4245,5.5277,5.6308,5.6596,5.7509,5.7993,5.8209,5.8806,5.9623,6.0458,6.1275,6.1982,6.2484,6.2793,6.2811,6.2811,6.2811,6.2811,6.2811,6.2811,6.2811,6.2811,6.2811,6.2811,6.2811,6.2811,6.2811,6.2811,6.2811,6.2811,6.2811,6.2811,6.2811,6.2811,6.2811,6.2884,6.3062,6.3686,6.4457,6.5246,6.6017,6.6678,6.7008,6.7352,6.7645,6.7682,6.7682,6.7682,6.7682,6.7682,6.7682,4.4666,4.4939,4.621,4.7225,4.7954,4.8665,4.9018,4.9018,4.9018,4.9018,4.9018,4.9018,4.9018,4.9018,4.9018,4.9018,4.9018,4.9018,4.9865,5.0795,5.1133,5.2097,5.2892,5.3467,5.3501,5.3501,5.3501,5.3501,5.3501,5.3501,5.3501,5.3501,5.3501,5.3501,5.3501,5.3501,5.3501,5.3501,5.3501,5.3501,5.3501,5.3501,5.3501,5.3501,5.3501,5.3501,5.3501,5.3501,5.3501,5.3501,5.3501,5.3501,5.3501,5.3501,5.3501,5.3501,5.3501,5.3501,5.3501,5.3501,5.3501,5.3518,5.3501,5.3568,5.3737,5.4363,5.5378,5.6292,5.7222,5.7854,5.8089,5.8458,5.9296,6.0381,6.1189,6.1955,6.242,6.2811,6.2811,6.2811,6.2811,6.2811,6.2811,6.2811,6.2811,6.2811,6.2811,6.2811,6.2811,6.2811,6.2811,6.2811,6.2811,6.2811,6.2811,6.2811,6.2811,6.2811,6.2811,6.2811,6.2903,6.3337,6.3796,6.4323,6.5063,6.5833,6.6568,6.7008,6.7297,6.759,6.7682,6.7682,6.7682,6.7682,6.7682,4.4956,4.5568,4.6462,4.7225,4.7938,4.8697,4.9018,4.9018,4.9018,4.9018,4.9018,4.9018,4.9018,4.9018,4.9018,4.9018,4.9018,4.9035,4.9932,5.0998,5.1184,5.2199,5.3095,5.3501,5.3501,5.3501,5.3501,5.3501,5.3501,5.3501,5.3501,5.3501,5.3501,5.3501,5.3501,5.3501,5.3501,5.3501,5.3501,5.3501,5.3501,5.3501,5.3501,5.3501,5.3501,5.3501,5.3501,5.3501,5.3501,5.3501,5.3501,5.3501,5.3501,5.3501,5.3501,5.3501,5.3501,5.3501,5.3501,5.3501,5.3501,5.3501,5.3501,5.3501,5.3737,5.4093,5.5023,5.58,5.6681,5.7374,5.7689,5.7943,5.8668,6.0287,6.145,6.2134,6.273,6.2811,6.2811,6.2811,6.2811,6.2811,6.2811,6.2811,6.2811,6.2811,6.2811,6.2811,6.2811,6.2811,6.2811,6.2811,6.2811,6.2811,6.2811,6.2811,6.2811,6.2811,6.2811,6.2811,6.2811,6.2829,6.3251,6.3759,6.4304,6.5002,6.5718,6.6457,6.704,6.7333,6.759,6.7682,6.7682,6.7682,6.7682]}]]